<?xml version="1.0" encoding="UTF-8" standalone="no" ?>
<gpx xmlns="http://www.topografix.com/GPX/1/1" xmlns:xsi="http://www.w3.org/2001/XMLSchema-instance" xsi:schemaLocation="http://www.topografix.com/GPX/1/1 http://www.topografix.com/GPX/1/1/gpx.xsd" version="1.1" creator="VisuGPX - https://www.visugpx.com">
  <metadata>
    <name>Pramousquier-Hyeres</name>
    <desc><![CDATA[Pramousquier-Hyères par la piste cyclable, voie verte, du littoral.]]></desc>
  </metadata>
  <trk>
    <name><![CDATA[ACTIVE LOG- 29 JUL 2011 10-38-MNT]]></name>
    <trkseg>
      <trkpt lat="43.14934" lon="6.4174">
        <ele>37.6996</ele>
        <time>2011-07-29T08:38:11Z</time>
      </trkpt>
      <trkpt lat="43.14939" lon="6.41684">
        <ele>29.349953</ele>
        <time>2011-07-29T08:38:33Z</time>
      </trkpt>
      <trkpt lat="43.14948" lon="6.41632">
        <ele>28.252501</ele>
        <time>2011-07-29T08:39:20Z</time>
      </trkpt>
      <trkpt lat="43.14952" lon="6.41567">
        <ele>25.965328</ele>
        <time>2011-07-29T08:39:35Z</time>
      </trkpt>
      <trkpt lat="43.14959" lon="6.41507">
        <ele>24.254499</ele>
        <time>2011-07-29T08:39:48Z</time>
      </trkpt>
      <trkpt lat="43.14975" lon="6.41438">
        <ele>25.399063</ele>
        <time>2011-07-29T08:39:58Z</time>
      </trkpt>
      <trkpt lat="43.15" lon="6.41379">
        <ele>26.51</ele>
        <time>2011-07-29T08:40:08Z</time>
      </trkpt>
      <trkpt lat="43.15021" lon="6.41323">
        <ele>25.686251</ele>
        <time>2011-07-29T08:40:19Z</time>
      </trkpt>
      <trkpt lat="43.15029" lon="6.41258">
        <ele>24.035</ele>
        <time>2011-07-29T08:40:29Z</time>
      </trkpt>
      <trkpt lat="43.15016" lon="6.412">
        <ele>23.078253</ele>
        <time>2011-07-29T08:40:40Z</time>
      </trkpt>
      <trkpt lat="43.14997" lon="6.41141">
        <ele>23.333124</ele>
        <time>2011-07-29T08:40:50Z</time>
      </trkpt>
      <trkpt lat="43.14969" lon="6.41086">
        <ele>19.413124</ele>
        <time>2011-07-29T08:40:58Z</time>
      </trkpt>
      <trkpt lat="43.1494" lon="6.41034">
        <ele>21.41489</ele>
        <time>2011-07-29T08:41:06Z</time>
      </trkpt>
      <trkpt lat="43.14924" lon="6.4097">
        <ele>24.511049</ele>
        <time>2011-07-29T08:41:15Z</time>
      </trkpt>
      <trkpt lat="43.14926" lon="6.40895">
        <ele>19.324827</ele>
        <time>2011-07-29T08:41:23Z</time>
      </trkpt>
      <trkpt lat="43.1493" lon="6.40828">
        <ele>13.770703</ele>
        <time>2011-07-29T08:41:30Z</time>
      </trkpt>
      <trkpt lat="43.14941" lon="6.40762">
        <ele>14.132731</ele>
        <time>2011-07-29T08:41:39Z</time>
      </trkpt>
      <trkpt lat="43.14952" lon="6.40697">
        <ele>15.212769</ele>
        <time>2011-07-29T08:41:57Z</time>
      </trkpt>
      <trkpt lat="43.1496" lon="6.40635">
        <ele>13.359015</ele>
        <time>2011-07-29T08:42:11Z</time>
      </trkpt>
      <trkpt lat="43.14967" lon="6.40569">
        <ele>8.927137</ele>
        <time>2011-07-29T08:42:28Z</time>
      </trkpt>
      <trkpt lat="43.14976" lon="6.40503">
        <ele>6.225213</ele>
        <time>2011-07-29T08:42:49Z</time>
      </trkpt>
      <trkpt lat="43.14977" lon="6.40532">
        <ele>8.101525</ele>
        <time>2011-07-29T08:43:20Z</time>
      </trkpt>
      <trkpt lat="43.14972" lon="6.40595">
        <ele>12.816969</ele>
        <time>2011-07-29T08:43:36Z</time>
      </trkpt>
      <trkpt lat="43.14959" lon="6.40657">
        <ele>14.605288</ele>
        <time>2011-07-29T08:43:54Z</time>
      </trkpt>
      <trkpt lat="43.14955" lon="6.4072">
        <ele>16.419168</ele>
        <time>2011-07-29T08:44:10Z</time>
      </trkpt>
      <trkpt lat="43.14942" lon="6.40693">
        <ele>13.47885</ele>
        <time>2011-07-29T08:44:28Z</time>
      </trkpt>
      <trkpt lat="43.14954" lon="6.40626">
        <ele>11.543459</ele>
        <time>2011-07-29T08:44:37Z</time>
      </trkpt>
      <trkpt lat="43.14957" lon="6.40561">
        <ele>6.60525</ele>
        <time>2011-07-29T08:44:44Z</time>
      </trkpt>
      <trkpt lat="43.14966" lon="6.40499">
        <ele>4.562938</ele>
        <time>2011-07-29T08:44:50Z</time>
      </trkpt>
      <trkpt lat="43.14981" lon="6.40433">
        <ele>3.6048</ele>
        <time>2011-07-29T08:44:58Z</time>
      </trkpt>
      <trkpt lat="43.14984" lon="6.40364">
        <ele>2.056097</ele>
        <time>2011-07-29T08:45:06Z</time>
      </trkpt>
      <trkpt lat="43.14983" lon="6.40303">
        <ele>1.235</ele>
        <time>2011-07-29T08:45:17Z</time>
      </trkpt>
      <trkpt lat="43.14978" lon="6.40239">
        <ele>2.01745</ele>
        <time>2011-07-29T08:45:32Z</time>
      </trkpt>
      <trkpt lat="43.14973" lon="6.40176">
        <ele>2.9675</ele>
        <time>2011-07-29T08:45:47Z</time>
      </trkpt>
      <trkpt lat="43.14954" lon="6.40118">
        <ele>4.944953</ele>
        <time>2011-07-29T08:46:09Z</time>
      </trkpt>
      <trkpt lat="43.14911" lon="6.40099">
        <ele>4.474406</ele>
        <time>2011-07-29T08:46:27Z</time>
      </trkpt>
      <trkpt lat="43.14866" lon="6.40105">
        <ele>5.073225</ele>
        <time>2011-07-29T08:46:46Z</time>
      </trkpt>
      <trkpt lat="43.14824" lon="6.40077">
        <ele>8.62</ele>
        <time>2011-07-29T08:47:07Z</time>
      </trkpt>
      <trkpt lat="43.14796" lon="6.40031">
        <ele>11.274406</ele>
        <time>2011-07-29T08:48:21Z</time>
      </trkpt>
      <trkpt lat="43.14771" lon="6.39977">
        <ele>13.853063</ele>
        <time>2011-07-29T08:49:06Z</time>
      </trkpt>
      <trkpt lat="43.14745" lon="6.39927">
        <ele>11.6527</ele>
        <time>2011-07-29T08:49:22Z</time>
      </trkpt>
      <trkpt lat="43.14718" lon="6.39877">
        <ele>13.5965</ele>
        <time>2011-07-29T08:49:37Z</time>
      </trkpt>
      <trkpt lat="43.14682" lon="6.39838">
        <ele>14.31625</ele>
        <time>2011-07-29T08:49:50Z</time>
      </trkpt>
      <trkpt lat="43.14646" lon="6.39804">
        <ele>18.255001</ele>
        <time>2011-07-29T08:50:01Z</time>
      </trkpt>
      <trkpt lat="43.14615" lon="6.39743">
        <ele>24.672579</ele>
        <time>2011-07-29T08:50:10Z</time>
      </trkpt>
      <trkpt lat="43.1461" lon="6.39682">
        <ele>22.1898</ele>
        <time>2011-07-29T08:50:18Z</time>
      </trkpt>
      <trkpt lat="43.14624" lon="6.39612">
        <ele>13.765375</ele>
        <time>2011-07-29T08:50:26Z</time>
      </trkpt>
      <trkpt lat="43.14648" lon="6.39554">
        <ele>9.588575</ele>
        <time>2011-07-29T08:50:37Z</time>
      </trkpt>
      <trkpt lat="43.14656" lon="6.3949">
        <ele>4.84925</ele>
        <time>2011-07-29T08:50:47Z</time>
      </trkpt>
      <trkpt lat="43.1465" lon="6.39427">
        <ele>1.990106</ele>
        <time>2011-07-29T08:50:58Z</time>
      </trkpt>
      <trkpt lat="43.14628" lon="6.39372">
        <ele>6.46</ele>
        <time>2011-07-29T08:51:10Z</time>
      </trkpt>
      <trkpt lat="43.14595" lon="6.39333">
        <ele>11.301631</ele>
        <time>2011-07-29T08:51:27Z</time>
      </trkpt>
      <trkpt lat="43.14558" lon="6.39292">
        <ele>12.893281</ele>
        <time>2011-07-29T08:51:45Z</time>
      </trkpt>
      <trkpt lat="43.14527" lon="6.39243">
        <ele>15.443375</ele>
        <time>2011-07-29T08:52:02Z</time>
      </trkpt>
      <trkpt lat="43.14507" lon="6.39185">
        <ele>18.688749</ele>
        <time>2011-07-29T08:52:18Z</time>
      </trkpt>
      <trkpt lat="43.14488" lon="6.39127">
        <ele>20.476563</ele>
        <time>2011-07-29T08:52:33Z</time>
      </trkpt>
      <trkpt lat="43.14472" lon="6.39063">
        <ele>23.135</ele>
        <time>2011-07-29T08:52:48Z</time>
      </trkpt>
      <trkpt lat="43.14459" lon="6.38999">
        <ele>22.455</ele>
        <time>2011-07-29T08:53:01Z</time>
      </trkpt>
      <trkpt lat="43.14461" lon="6.38935">
        <ele>22.057499</ele>
        <time>2011-07-29T08:53:41Z</time>
      </trkpt>
      <trkpt lat="43.14475" lon="6.38873">
        <ele>19.328493</ele>
        <time>2011-07-29T08:53:51Z</time>
      </trkpt>
      <trkpt lat="43.14503" lon="6.38819">
        <ele>18.696501</ele>
        <time>2011-07-29T08:54:00Z</time>
      </trkpt>
      <trkpt lat="43.14527" lon="6.3876">
        <ele>18.173388</ele>
        <time>2011-07-29T08:54:09Z</time>
      </trkpt>
      <trkpt lat="43.1454" lon="6.38701">
        <ele>17.460312</ele>
        <time>2011-07-29T08:54:17Z</time>
      </trkpt>
      <trkpt lat="43.14538" lon="6.38634">
        <ele>16.770079</ele>
        <time>2011-07-29T08:54:25Z</time>
      </trkpt>
      <trkpt lat="43.14522" lon="6.38574">
        <ele>17.92</ele>
        <time>2011-07-29T08:54:33Z</time>
      </trkpt>
      <trkpt lat="43.14509" lon="6.38511">
        <ele>18.391624</ele>
        <time>2011-07-29T08:54:41Z</time>
      </trkpt>
      <trkpt lat="43.14491" lon="6.3844">
        <ele>14.095613</ele>
        <time>2011-07-29T08:54:49Z</time>
      </trkpt>
      <trkpt lat="43.14478" lon="6.38367">
        <ele>8.3875</ele>
        <time>2011-07-29T08:54:57Z</time>
      </trkpt>
      <trkpt lat="43.14477" lon="6.38299">
        <ele>6.235469</ele>
        <time>2011-07-29T08:55:29Z</time>
      </trkpt>
      <trkpt lat="43.14477" lon="6.38233">
        <ele>6</ele>
        <time>2011-07-29T08:55:38Z</time>
      </trkpt>
      <trkpt lat="43.14477" lon="6.38168">
        <ele>6.006688</ele>
        <time>2011-07-29T08:55:48Z</time>
      </trkpt>
      <trkpt lat="43.14479" lon="6.38105">
        <ele>6.0175</ele>
        <time>2011-07-29T08:55:56Z</time>
      </trkpt>
      <trkpt lat="43.14474" lon="6.38041">
        <ele>6</ele>
        <time>2011-07-29T08:56:05Z</time>
      </trkpt>
      <trkpt lat="43.14462" lon="6.37984">
        <ele>6</ele>
        <time>2011-07-29T08:56:18Z</time>
      </trkpt>
      <trkpt lat="43.14441" lon="6.37949">
        <ele>6</ele>
        <time>2011-07-29T08:57:14Z</time>
      </trkpt>
      <trkpt lat="43.14399" lon="6.3792">
        <ele>6.22125</ele>
        <time>2011-07-29T08:57:30Z</time>
      </trkpt>
      <trkpt lat="43.14355" lon="6.37905">
        <ele>7.166775</ele>
        <time>2011-07-29T08:57:45Z</time>
      </trkpt>
      <trkpt lat="43.1431" lon="6.37906">
        <ele>11.051212</ele>
        <time>2011-07-29T08:58:00Z</time>
      </trkpt>
      <trkpt lat="43.14263" lon="6.37905">
        <ele>11.718938</ele>
        <time>2011-07-29T08:58:16Z</time>
      </trkpt>
      <trkpt lat="43.14213" lon="6.37907">
        <ele>9.058544</ele>
        <time>2011-07-29T08:58:30Z</time>
      </trkpt>
      <trkpt lat="43.14169" lon="6.37925">
        <ele>7.7582</ele>
        <time>2011-07-29T08:58:44Z</time>
      </trkpt>
      <trkpt lat="43.14125" lon="6.37932">
        <ele>7.116763</ele>
        <time>2011-07-29T08:58:55Z</time>
      </trkpt>
      <trkpt lat="43.14081" lon="6.37955">
        <ele>6.115875</ele>
        <time>2011-07-29T08:59:07Z</time>
      </trkpt>
      <trkpt lat="43.14036" lon="6.37975">
        <ele>6.77625</ele>
        <time>2011-07-29T08:59:24Z</time>
      </trkpt>
      <trkpt lat="43.13993" lon="6.37996">
        <ele>11.42175</ele>
        <time>2011-07-29T08:59:42Z</time>
      </trkpt>
      <trkpt lat="43.13947" lon="6.38004">
        <ele>16.620001</ele>
        <time>2011-07-29T09:00:00Z</time>
      </trkpt>
      <trkpt lat="43.13902" lon="6.37982">
        <ele>20.387501</ele>
        <time>2011-07-29T09:00:18Z</time>
      </trkpt>
      <trkpt lat="43.13869" lon="6.37935">
        <ele>17.856075</ele>
        <time>2011-07-29T09:00:36Z</time>
      </trkpt>
      <trkpt lat="43.13854" lon="6.37872">
        <ele>19.994387</ele>
        <time>2011-07-29T09:00:54Z</time>
      </trkpt>
      <trkpt lat="43.13848" lon="6.37807">
        <ele>24.220325</ele>
        <time>2011-07-29T09:01:10Z</time>
      </trkpt>
      <trkpt lat="43.1385" lon="6.37743">
        <ele>28.81625</ele>
        <time>2011-07-29T09:01:22Z</time>
      </trkpt>
      <trkpt lat="43.13851" lon="6.3768">
        <ele>27.295</ele>
        <time>2011-07-29T09:01:35Z</time>
      </trkpt>
      <trkpt lat="43.13832" lon="6.37615">
        <ele>23.141537</ele>
        <time>2011-07-29T09:01:46Z</time>
      </trkpt>
      <trkpt lat="43.13818" lon="6.37575">
        <ele>22.931999</ele>
        <time>2011-07-29T09:02:35Z</time>
      </trkpt>
      <trkpt lat="43.1381" lon="6.37511">
        <ele>22.455774</ele>
        <time>2011-07-29T09:02:45Z</time>
      </trkpt>
      <trkpt lat="43.13822" lon="6.37448">
        <ele>19.837931</ele>
        <time>2011-07-29T09:02:53Z</time>
      </trkpt>
      <trkpt lat="43.13853" lon="6.37399">
        <ele>17.9575</ele>
        <time>2011-07-29T09:03:00Z</time>
      </trkpt>
      <trkpt lat="43.13879" lon="6.37344">
        <ele>16.5</ele>
        <time>2011-07-29T09:03:08Z</time>
      </trkpt>
      <trkpt lat="43.13894" lon="6.37288">
        <ele>12.726557</ele>
        <time>2011-07-29T09:03:46Z</time>
      </trkpt>
      <trkpt lat="43.13889" lon="6.37225">
        <ele>10.13875</ele>
        <time>2011-07-29T09:04:02Z</time>
      </trkpt>
      <trkpt lat="43.13892" lon="6.37163">
        <ele>10.729656</ele>
        <time>2011-07-29T09:04:28Z</time>
      </trkpt>
      <trkpt lat="43.13895" lon="6.37097">
        <ele>10.6279</ele>
        <time>2011-07-29T09:04:41Z</time>
      </trkpt>
      <trkpt lat="43.13902" lon="6.37031">
        <ele>10.9435</ele>
        <time>2011-07-29T09:04:51Z</time>
      </trkpt>
      <trkpt lat="43.13908" lon="6.36967">
        <ele>11.04725</ele>
        <time>2011-07-29T09:05:00Z</time>
      </trkpt>
      <trkpt lat="43.13894" lon="6.36907">
        <ele>12.52625</ele>
        <time>2011-07-29T09:05:11Z</time>
      </trkpt>
      <trkpt lat="43.13868" lon="6.36859">
        <ele>15.11355</ele>
        <time>2011-07-29T09:05:22Z</time>
      </trkpt>
      <trkpt lat="43.13842" lon="6.36806">
        <ele>16.058775</ele>
        <time>2011-07-29T09:05:33Z</time>
      </trkpt>
      <trkpt lat="43.13827" lon="6.36744">
        <ele>17.113125</ele>
        <time>2011-07-29T09:05:43Z</time>
      </trkpt>
      <trkpt lat="43.13824" lon="6.36678">
        <ele>17.307405</ele>
        <time>2011-07-29T09:05:53Z</time>
      </trkpt>
      <trkpt lat="43.13823" lon="6.36615">
        <ele>15.407363</ele>
        <time>2011-07-29T09:06:25Z</time>
      </trkpt>
      <trkpt lat="43.13819" lon="6.36551">
        <ele>10.8014</ele>
        <time>2011-07-29T09:07:30Z</time>
      </trkpt>
      <trkpt lat="43.13819" lon="6.36488">
        <ele>10.81375</ele>
        <time>2011-07-29T09:07:40Z</time>
      </trkpt>
      <trkpt lat="43.13816" lon="6.36419">
        <ele>10.6325</ele>
        <time>2011-07-29T09:07:47Z</time>
      </trkpt>
      <trkpt lat="43.13814" lon="6.36351">
        <ele>8.732644</ele>
        <time>2011-07-29T09:07:54Z</time>
      </trkpt>
      <trkpt lat="43.13815" lon="6.36283">
        <ele>8.6005</ele>
        <time>2011-07-29T09:08:01Z</time>
      </trkpt>
      <trkpt lat="43.13834" lon="6.36219">
        <ele>9.890594</ele>
        <time>2011-07-29T09:08:09Z</time>
      </trkpt>
      <trkpt lat="43.13861" lon="6.36167">
        <ele>10.9925</ele>
        <time>2011-07-29T09:08:18Z</time>
      </trkpt>
      <trkpt lat="43.13885" lon="6.36114">
        <ele>11.9775</ele>
        <time>2011-07-29T09:08:29Z</time>
      </trkpt>
      <trkpt lat="43.13909" lon="6.3606">
        <ele>12.5475</ele>
        <time>2011-07-29T09:08:41Z</time>
      </trkpt>
      <trkpt lat="43.13931" lon="6.36003">
        <ele>12.817594</ele>
        <time>2011-07-29T09:08:52Z</time>
      </trkpt>
      <trkpt lat="43.13944" lon="6.35939">
        <ele>11.050324</ele>
        <time>2011-07-29T09:09:02Z</time>
      </trkpt>
      <trkpt lat="43.13967" lon="6.35891">
        <ele>10.5732</ele>
        <time>2011-07-29T09:09:20Z</time>
      </trkpt>
      <trkpt lat="43.13947" lon="6.35836">
        <ele>8.3973</ele>
        <time>2011-07-29T09:09:31Z</time>
      </trkpt>
      <trkpt lat="43.13947" lon="6.35772">
        <ele>8.07951</ele>
        <time>2011-07-29T09:09:40Z</time>
      </trkpt>
      <trkpt lat="43.13939" lon="6.35707">
        <ele>8.704275</ele>
        <time>2011-07-29T09:09:51Z</time>
      </trkpt>
      <trkpt lat="43.13935" lon="6.35644">
        <ele>8.320237</ele>
        <time>2011-07-29T09:10:04Z</time>
      </trkpt>
      <trkpt lat="43.1393" lon="6.3558">
        <ele>8.837015</ele>
        <time>2011-07-29T09:10:19Z</time>
      </trkpt>
      <trkpt lat="43.13925" lon="6.35518">
        <ele>9</ele>
        <time>2011-07-29T09:10:35Z</time>
      </trkpt>
      <trkpt lat="43.13922" lon="6.35453">
        <ele>9.3423</ele>
        <time>2011-07-29T09:10:51Z</time>
      </trkpt>
      <trkpt lat="43.13922" lon="6.3539">
        <ele>10.20875</ele>
        <time>2011-07-29T09:11:07Z</time>
      </trkpt>
      <trkpt lat="43.1393" lon="6.35325">
        <ele>11.374</ele>
        <time>2011-07-29T09:11:23Z</time>
      </trkpt>
      <trkpt lat="43.13939" lon="6.3526">
        <ele>13.569718</ele>
        <time>2011-07-29T09:11:39Z</time>
      </trkpt>
      <trkpt lat="43.13951" lon="6.35202">
        <ele>15.279078</ele>
        <time>2011-07-29T09:11:56Z</time>
      </trkpt>
      <trkpt lat="43.13975" lon="6.3515">
        <ele>17.846613</ele>
        <time>2011-07-29T09:12:12Z</time>
      </trkpt>
      <trkpt lat="43.14013" lon="6.35113">
        <ele>19.701113</ele>
        <time>2011-07-29T09:12:27Z</time>
      </trkpt>
      <trkpt lat="43.14059" lon="6.35089">
        <ele>19.77125</ele>
        <time>2011-07-29T09:12:41Z</time>
      </trkpt>
      <trkpt lat="43.14104" lon="6.35067">
        <ele>19.219528</ele>
        <time>2011-07-29T09:12:54Z</time>
      </trkpt>
      <trkpt lat="43.14129" lon="6.35052">
        <ele>19.157694</ele>
        <time>2011-07-29T09:13:21Z</time>
      </trkpt>
      <trkpt lat="43.14163" lon="6.3501">
        <ele>18.365524</ele>
        <time>2011-07-29T09:13:35Z</time>
      </trkpt>
      <trkpt lat="43.14192" lon="6.3496">
        <ele>20.182913</ele>
        <time>2011-07-29T09:13:51Z</time>
      </trkpt>
      <trkpt lat="43.14215" lon="6.34911">
        <ele>23.34305</ele>
        <time>2011-07-29T09:14:06Z</time>
      </trkpt>
      <trkpt lat="43.14236" lon="6.34855">
        <ele>26.394026</ele>
        <time>2011-07-29T09:14:22Z</time>
      </trkpt>
      <trkpt lat="43.14257" lon="6.34797">
        <ele>28.991249</ele>
        <time>2011-07-29T09:14:38Z</time>
      </trkpt>
      <trkpt lat="43.14278" lon="6.34738">
        <ele>29.565737</ele>
        <time>2011-07-29T09:14:53Z</time>
      </trkpt>
      <trkpt lat="43.14301" lon="6.34683">
        <ele>31.188631</ele>
        <time>2011-07-29T09:15:07Z</time>
      </trkpt>
      <trkpt lat="43.14324" lon="6.34627">
        <ele>32.562576</ele>
        <time>2011-07-29T09:15:21Z</time>
      </trkpt>
      <trkpt lat="43.14348" lon="6.34575">
        <ele>32.584255</ele>
        <time>2011-07-29T09:15:32Z</time>
      </trkpt>
      <trkpt lat="43.14375" lon="6.3452">
        <ele>31.487906</ele>
        <time>2011-07-29T09:15:55Z</time>
      </trkpt>
      <trkpt lat="43.14401" lon="6.34463">
        <ele>29.926918</ele>
        <time>2011-07-29T09:16:40Z</time>
      </trkpt>
      <trkpt lat="43.14418" lon="6.34405">
        <ele>29.460501</ele>
        <time>2011-07-29T09:16:53Z</time>
      </trkpt>
      <trkpt lat="43.14429" lon="6.34345">
        <ele>29.170338</ele>
        <time>2011-07-29T09:17:06Z</time>
      </trkpt>
      <trkpt lat="43.14428" lon="6.3428">
        <ele>29.042213</ele>
        <time>2011-07-29T09:17:20Z</time>
      </trkpt>
      <trkpt lat="43.14417" lon="6.34216">
        <ele>29.85</ele>
        <time>2011-07-29T09:17:34Z</time>
      </trkpt>
      <trkpt lat="43.14424" lon="6.34164">
        <ele>31.618656</ele>
        <time>2011-07-29T09:17:48Z</time>
      </trkpt>
      <trkpt lat="43.1442" lon="6.34104">
        <ele>33.193752</ele>
        <time>2011-07-29T09:18:01Z</time>
      </trkpt>
      <trkpt lat="43.14384" lon="6.34064">
        <ele>32.504612</ele>
        <time>2011-07-29T09:18:12Z</time>
      </trkpt>
      <trkpt lat="43.14369" lon="6.34013">
        <ele>33.82</ele>
        <time>2011-07-29T09:18:24Z</time>
      </trkpt>
      <trkpt lat="43.14333" lon="6.33982">
        <ele>33.872501</ele>
        <time>2011-07-29T09:18:39Z</time>
      </trkpt>
      <trkpt lat="43.14311" lon="6.33922">
        <ele>37.167999</ele>
        <time>2011-07-29T09:18:55Z</time>
      </trkpt>
      <trkpt lat="43.14291" lon="6.33863">
        <ele>38.230164</ele>
        <time>2011-07-29T09:19:09Z</time>
      </trkpt>
      <trkpt lat="43.14292" lon="6.338">
        <ele>37.642601</ele>
        <time>2011-07-29T09:19:48Z</time>
      </trkpt>
      <trkpt lat="43.14289" lon="6.33735">
        <ele>32.661995</ele>
        <time>2011-07-29T09:20:05Z</time>
      </trkpt>
      <trkpt lat="43.14294" lon="6.3367">
        <ele>28.900944</ele>
        <time>2011-07-29T09:20:17Z</time>
      </trkpt>
      <trkpt lat="43.14299" lon="6.33607">
        <ele>27.1819</ele>
        <time>2011-07-29T09:20:29Z</time>
      </trkpt>
      <trkpt lat="43.14297" lon="6.33545">
        <ele>27.440437</ele>
        <time>2011-07-29T09:20:39Z</time>
      </trkpt>
      <trkpt lat="43.14286" lon="6.33483">
        <ele>28.747469</ele>
        <time>2011-07-29T09:20:49Z</time>
      </trkpt>
      <trkpt lat="43.14265" lon="6.33426">
        <ele>29.469156</ele>
        <time>2011-07-29T09:21:01Z</time>
      </trkpt>
      <trkpt lat="43.14246" lon="6.33373">
        <ele>29.12495</ele>
        <time>2011-07-29T09:21:15Z</time>
      </trkpt>
      <trkpt lat="43.14232" lon="6.3331">
        <ele>31.344</ele>
        <time>2011-07-29T09:21:30Z</time>
      </trkpt>
      <trkpt lat="43.14232" lon="6.33248">
        <ele>33.966118</ele>
        <time>2011-07-29T09:21:44Z</time>
      </trkpt>
      <trkpt lat="43.14248" lon="6.33187">
        <ele>38.037498</ele>
        <time>2011-07-29T09:22:00Z</time>
      </trkpt>
      <trkpt lat="43.1428" lon="6.33139">
        <ele>42.8372</ele>
        <time>2011-07-29T09:22:17Z</time>
      </trkpt>
      <trkpt lat="43.1432" lon="6.33108">
        <ele>45.514999</ele>
        <time>2011-07-29T09:22:33Z</time>
      </trkpt>
      <trkpt lat="43.1436" lon="6.33086">
        <ele>45.528324</ele>
        <time>2011-07-29T09:22:49Z</time>
      </trkpt>
      <trkpt lat="43.14411" lon="6.33065">
        <ele>45.596004</ele>
        <time>2011-07-29T09:23:04Z</time>
      </trkpt>
      <trkpt lat="43.14436" lon="6.33017">
        <ele>44.893749</ele>
        <time>2011-07-29T09:23:16Z</time>
      </trkpt>
      <trkpt lat="43.14456" lon="6.32962">
        <ele>46.368069</ele>
        <time>2011-07-29T09:23:28Z</time>
      </trkpt>
      <trkpt lat="43.1447" lon="6.32902">
        <ele>45.396381</ele>
        <time>2011-07-29T09:23:40Z</time>
      </trkpt>
      <trkpt lat="43.1448" lon="6.32841">
        <ele>44.265858</ele>
        <time>2011-07-29T09:23:50Z</time>
      </trkpt>
      <trkpt lat="43.14494" lon="6.32777">
        <ele>41.239944</ele>
        <time>2011-07-29T09:23:59Z</time>
      </trkpt>
      <trkpt lat="43.14515" lon="6.32722">
        <ele>41.166775</ele>
        <time>2011-07-29T09:24:07Z</time>
      </trkpt>
      <trkpt lat="43.14542" lon="6.32669">
        <ele>42.081501</ele>
        <time>2011-07-29T09:24:16Z</time>
      </trkpt>
      <trkpt lat="43.14568" lon="6.32618">
        <ele>39.805019</ele>
        <time>2011-07-29T09:25:02Z</time>
      </trkpt>
      <trkpt lat="43.14597" lon="6.32564">
        <ele>36.891182</ele>
        <time>2011-07-29T09:25:12Z</time>
      </trkpt>
      <trkpt lat="43.14622" lon="6.32512">
        <ele>34.52</ele>
        <time>2011-07-29T09:25:21Z</time>
      </trkpt>
      <trkpt lat="43.14638" lon="6.32456">
        <ele>32.810001</ele>
        <time>2011-07-29T09:25:32Z</time>
      </trkpt>
      <trkpt lat="43.14649" lon="6.32393">
        <ele>32.064999</ele>
        <time>2011-07-29T09:25:47Z</time>
      </trkpt>
      <trkpt lat="43.14659" lon="6.32329">
        <ele>33.061298</ele>
        <time>2011-07-29T09:26:01Z</time>
      </trkpt>
      <trkpt lat="43.14672" lon="6.32267">
        <ele>35.445</ele>
        <time>2011-07-29T09:26:13Z</time>
      </trkpt>
      <trkpt lat="43.14684" lon="6.32205">
        <ele>38.123451</ele>
        <time>2011-07-29T09:26:24Z</time>
      </trkpt>
      <trkpt lat="43.14696" lon="6.32139">
        <ele>39.594921</ele>
        <time>2011-07-29T09:26:33Z</time>
      </trkpt>
      <trkpt lat="43.14706" lon="6.32077">
        <ele>36.968094</ele>
        <time>2011-07-29T09:26:42Z</time>
      </trkpt>
      <trkpt lat="43.14698" lon="6.32015">
        <ele>29.585938</ele>
        <time>2011-07-29T09:27:26Z</time>
      </trkpt>
      <trkpt lat="43.14692" lon="6.3195">
        <ele>27.068569</ele>
        <time>2011-07-29T09:27:36Z</time>
      </trkpt>
      <trkpt lat="43.14685" lon="6.31888">
        <ele>29.735222</ele>
        <time>2011-07-29T09:27:47Z</time>
      </trkpt>
      <trkpt lat="43.1469" lon="6.31824">
        <ele>36.444454</ele>
        <time>2011-07-29T09:28:03Z</time>
      </trkpt>
      <trkpt lat="43.14708" lon="6.31766">
        <ele>44.021641</ele>
        <time>2011-07-29T09:28:19Z</time>
      </trkpt>
      <trkpt lat="43.14737" lon="6.31713">
        <ele>46.029037</ele>
        <time>2011-07-29T09:28:35Z</time>
      </trkpt>
      <trkpt lat="43.14766" lon="6.31664">
        <ele>46.083199</ele>
        <time>2011-07-29T09:28:50Z</time>
      </trkpt>
      <trkpt lat="43.14799" lon="6.31619">
        <ele>48.237499</ele>
        <time>2011-07-29T09:29:06Z</time>
      </trkpt>
      <trkpt lat="43.14836" lon="6.31583">
        <ele>49.315868</ele>
        <time>2011-07-29T09:29:20Z</time>
      </trkpt>
      <trkpt lat="43.14875" lon="6.31547">
        <ele>49.368752</ele>
        <time>2011-07-29T09:29:35Z</time>
      </trkpt>
      <trkpt lat="43.14912" lon="6.31512">
        <ele>49.207771</ele>
        <time>2011-07-29T09:29:50Z</time>
      </trkpt>
      <trkpt lat="43.14955" lon="6.3148">
        <ele>50.374287</ele>
        <time>2011-07-29T09:30:06Z</time>
      </trkpt>
      <trkpt lat="43.14993" lon="6.31442">
        <ele>51.903439</ele>
        <time>2011-07-29T09:30:20Z</time>
      </trkpt>
      <trkpt lat="43.1502" lon="6.31393">
        <ele>52.141624</ele>
        <time>2011-07-29T09:30:35Z</time>
      </trkpt>
      <trkpt lat="43.15033" lon="6.31331">
        <ele>52.275002</ele>
        <time>2011-07-29T09:30:51Z</time>
      </trkpt>
      <trkpt lat="43.15029" lon="6.31267">
        <ele>54.616249</ele>
        <time>2011-07-29T09:31:07Z</time>
      </trkpt>
      <trkpt lat="43.15021" lon="6.31203">
        <ele>57.965</ele>
        <time>2011-07-29T09:31:23Z</time>
      </trkpt>
      <trkpt lat="43.15018" lon="6.31141">
        <ele>60.355</ele>
        <time>2011-07-29T09:31:38Z</time>
      </trkpt>
      <trkpt lat="43.15027" lon="6.31083">
        <ele>60.611675</ele>
        <time>2011-07-29T09:31:53Z</time>
      </trkpt>
      <trkpt lat="43.15042" lon="6.31023">
        <ele>59.713661</ele>
        <time>2011-07-29T09:32:09Z</time>
      </trkpt>
      <trkpt lat="43.15047" lon="6.30952">
        <ele>62.366394</ele>
        <time>2011-07-29T09:32:26Z</time>
      </trkpt>
      <trkpt lat="43.15052" lon="6.30883">
        <ele>65.333496</ele>
        <time>2011-07-29T09:32:42Z</time>
      </trkpt>
      <trkpt lat="43.15048" lon="6.30813">
        <ele>70.066628</ele>
        <time>2011-07-29T09:32:59Z</time>
      </trkpt>
      <trkpt lat="43.15031" lon="6.30742">
        <ele>74.084579</ele>
        <time>2011-07-29T09:33:17Z</time>
      </trkpt>
      <trkpt lat="43.1501" lon="6.30671">
        <ele>77.022629</ele>
        <time>2011-07-29T09:33:35Z</time>
      </trkpt>
      <trkpt lat="43.14981" lon="6.30615">
        <ele>79.114098</ele>
        <time>2011-07-29T09:33:49Z</time>
      </trkpt>
      <trkpt lat="43.14949" lon="6.30569">
        <ele>81.146439</ele>
        <time>2011-07-29T09:34:05Z</time>
      </trkpt>
      <trkpt lat="43.14916" lon="6.30521">
        <ele>85.726402</ele>
        <time>2011-07-29T09:34:21Z</time>
      </trkpt>
      <trkpt lat="43.14889" lon="6.30466">
        <ele>87.247437</ele>
        <time>2011-07-29T09:34:37Z</time>
      </trkpt>
      <trkpt lat="43.14872" lon="6.30398">
        <ele>85.278</ele>
        <time>2011-07-29T09:34:55Z</time>
      </trkpt>
      <trkpt lat="43.14859" lon="6.30328">
        <ele>79.418427</ele>
        <time>2011-07-29T09:35:14Z</time>
      </trkpt>
      <trkpt lat="43.1486" lon="6.30258">
        <ele>76.518723</ele>
        <time>2011-07-29T09:35:24Z</time>
      </trkpt>
      <trkpt lat="43.14862" lon="6.3019">
        <ele>74.273064</ele>
        <time>2011-07-29T09:35:33Z</time>
      </trkpt>
      <trkpt lat="43.14866" lon="6.30117">
        <ele>72.435165</ele>
        <time>2011-07-29T09:35:42Z</time>
      </trkpt>
      <trkpt lat="43.14876" lon="6.30047">
        <ele>71.709404</ele>
        <time>2011-07-29T09:35:51Z</time>
      </trkpt>
      <trkpt lat="43.14892" lon="6.29986">
        <ele>70.058754</ele>
        <time>2011-07-29T09:35:59Z</time>
      </trkpt>
      <trkpt lat="43.14909" lon="6.29921">
        <ele>68.324997</ele>
        <time>2011-07-29T09:36:07Z</time>
      </trkpt>
      <trkpt lat="43.14928" lon="6.2986">
        <ele>67.763702</ele>
        <time>2011-07-29T09:36:15Z</time>
      </trkpt>
      <trkpt lat="43.14945" lon="6.29794">
        <ele>67.106247</ele>
        <time>2011-07-29T09:36:24Z</time>
      </trkpt>
      <trkpt lat="43.14962" lon="6.29735">
        <ele>65.160004</ele>
        <time>2011-07-29T09:36:32Z</time>
      </trkpt>
      <trkpt lat="43.14979" lon="6.29678">
        <ele>63.344963</ele>
        <time>2011-07-29T09:36:41Z</time>
      </trkpt>
      <trkpt lat="43.14985" lon="6.29615">
        <ele>61.095001</ele>
        <time>2011-07-29T09:36:52Z</time>
      </trkpt>
      <trkpt lat="43.14981" lon="6.29555">
        <ele>59.468548</ele>
        <time>2011-07-29T09:37:04Z</time>
      </trkpt>
      <trkpt lat="43.14973" lon="6.29493">
        <ele>67.708717</ele>
        <time>2011-07-29T09:37:19Z</time>
      </trkpt>
      <trkpt lat="43.14965" lon="6.29429">
        <ele>71.599419</ele>
        <time>2011-07-29T09:37:34Z</time>
      </trkpt>
      <trkpt lat="43.14956" lon="6.29366">
        <ele>72.283356</ele>
        <time>2011-07-29T09:37:54Z</time>
      </trkpt>
      <trkpt lat="43.14948" lon="6.29301">
        <ele>72.403748</ele>
        <time>2011-07-29T09:38:10Z</time>
      </trkpt>
      <trkpt lat="43.14942" lon="6.29236">
        <ele>71.660004</ele>
        <time>2011-07-29T09:38:25Z</time>
      </trkpt>
      <trkpt lat="43.14955" lon="6.29175">
        <ele>72.781982</ele>
        <time>2011-07-29T09:38:39Z</time>
      </trkpt>
      <trkpt lat="43.14978" lon="6.29122">
        <ele>72.830223</ele>
        <time>2011-07-29T09:38:52Z</time>
      </trkpt>
      <trkpt lat="43.14991" lon="6.2906">
        <ele>71.770798</ele>
        <time>2011-07-29T09:39:04Z</time>
      </trkpt>
      <trkpt lat="43.15005" lon="6.29003">
        <ele>71.964653</ele>
        <time>2011-07-29T09:39:19Z</time>
      </trkpt>
      <trkpt lat="43.15021" lon="6.28943">
        <ele>77.386345</ele>
        <time>2011-07-29T09:39:39Z</time>
      </trkpt>
      <trkpt lat="43.15034" lon="6.28883">
        <ele>82.308403</ele>
        <time>2011-07-29T09:39:57Z</time>
      </trkpt>
      <trkpt lat="43.15047" lon="6.28821">
        <ele>85.329498</ele>
        <time>2011-07-29T09:40:13Z</time>
      </trkpt>
      <trkpt lat="43.15057" lon="6.2876">
        <ele>88.195839</ele>
        <time>2011-07-29T09:40:27Z</time>
      </trkpt>
      <trkpt lat="43.15062" lon="6.28695">
        <ele>89.403816</ele>
        <time>2011-07-29T09:40:41Z</time>
      </trkpt>
      <trkpt lat="43.15062" lon="6.28637">
        <ele>89.505188</ele>
        <time>2011-07-29T09:40:53Z</time>
      </trkpt>
      <trkpt lat="43.15058" lon="6.28572">
        <ele>87.997238</ele>
        <time>2011-07-29T09:41:05Z</time>
      </trkpt>
      <trkpt lat="43.15047" lon="6.28499">
        <ele>87.594215</ele>
        <time>2011-07-29T09:41:14Z</time>
      </trkpt>
      <trkpt lat="43.15034" lon="6.28438">
        <ele>85.013344</ele>
        <time>2011-07-29T09:41:22Z</time>
      </trkpt>
      <trkpt lat="43.1502" lon="6.28381">
        <ele>83.451248</ele>
        <time>2011-07-29T09:41:30Z</time>
      </trkpt>
      <trkpt lat="43.15003" lon="6.28319">
        <ele>82.654404</ele>
        <time>2011-07-29T09:41:39Z</time>
      </trkpt>
      <trkpt lat="43.14988" lon="6.2826">
        <ele>80.417877</ele>
        <time>2011-07-29T09:41:47Z</time>
      </trkpt>
      <trkpt lat="43.14972" lon="6.28195">
        <ele>77.892723</ele>
        <time>2011-07-29T09:41:55Z</time>
      </trkpt>
      <trkpt lat="43.14957" lon="6.28136">
        <ele>76.996735</ele>
        <time>2011-07-29T09:42:02Z</time>
      </trkpt>
      <trkpt lat="43.14942" lon="6.28073">
        <ele>74.29686</ele>
        <time>2011-07-29T09:42:09Z</time>
      </trkpt>
      <trkpt lat="43.14927" lon="6.2801">
        <ele>73.822586</ele>
        <time>2011-07-29T09:42:16Z</time>
      </trkpt>
      <trkpt lat="43.1491" lon="6.27942">
        <ele>70.563751</ele>
        <time>2011-07-29T09:42:23Z</time>
      </trkpt>
      <trkpt lat="43.14896" lon="6.27882">
        <ele>68.968521</ele>
        <time>2011-07-29T09:42:29Z</time>
      </trkpt>
      <trkpt lat="43.14885" lon="6.27821">
        <ele>68.445404</ele>
        <time>2011-07-29T09:42:35Z</time>
      </trkpt>
      <trkpt lat="43.14877" lon="6.27754">
        <ele>67.021812</ele>
        <time>2011-07-29T09:42:42Z</time>
      </trkpt>
      <trkpt lat="43.14869" lon="6.2769">
        <ele>64.504372</ele>
        <time>2011-07-29T09:42:49Z</time>
      </trkpt>
      <trkpt lat="43.14857" lon="6.27628">
        <ele>62.759422</ele>
        <time>2011-07-29T09:42:55Z</time>
      </trkpt>
      <trkpt lat="43.14849" lon="6.27563">
        <ele>61.623749</ele>
        <time>2011-07-29T09:43:01Z</time>
      </trkpt>
      <trkpt lat="43.14844" lon="6.275">
        <ele>61.151749</ele>
        <time>2011-07-29T09:43:07Z</time>
      </trkpt>
      <trkpt lat="43.14842" lon="6.27434">
        <ele>60.81625</ele>
        <time>2011-07-29T09:43:14Z</time>
      </trkpt>
      <trkpt lat="43.14836" lon="6.27369">
        <ele>60.28125</ele>
        <time>2011-07-29T09:43:22Z</time>
      </trkpt>
      <trkpt lat="43.14831" lon="6.27307">
        <ele>59.91375</ele>
        <time>2011-07-29T09:43:30Z</time>
      </trkpt>
      <trkpt lat="43.14823" lon="6.27242">
        <ele>59.924999</ele>
        <time>2011-07-29T09:43:43Z</time>
      </trkpt>
      <trkpt lat="43.14813" lon="6.27175">
        <ele>58.388752</ele>
        <time>2011-07-29T09:43:52Z</time>
      </trkpt>
      <trkpt lat="43.14811" lon="6.27102">
        <ele>55.625214</ele>
        <time>2011-07-29T09:43:58Z</time>
      </trkpt>
      <trkpt lat="43.14805" lon="6.27033">
        <ele>53.052555</ele>
        <time>2011-07-29T09:44:03Z</time>
      </trkpt>
      <trkpt lat="43.14801" lon="6.26961">
        <ele>50.100189</ele>
        <time>2011-07-29T09:44:09Z</time>
      </trkpt>
      <trkpt lat="43.14798" lon="6.26899">
        <ele>50.092358</ele>
        <time>2011-07-29T09:44:15Z</time>
      </trkpt>
      <trkpt lat="43.14791" lon="6.2683">
        <ele>49.647099</ele>
        <time>2011-07-29T09:44:22Z</time>
      </trkpt>
      <trkpt lat="43.14785" lon="6.26766">
        <ele>49.211609</ele>
        <time>2011-07-29T09:44:29Z</time>
      </trkpt>
      <trkpt lat="43.14778" lon="6.267">
        <ele>48.208752</ele>
        <time>2011-07-29T09:44:37Z</time>
      </trkpt>
      <trkpt lat="43.14772" lon="6.26633">
        <ele>47.510288</ele>
        <time>2011-07-29T09:44:45Z</time>
      </trkpt>
      <trkpt lat="43.14766" lon="6.26565">
        <ele>46.615002</ele>
        <time>2011-07-29T09:44:53Z</time>
      </trkpt>
      <trkpt lat="43.14761" lon="6.26501">
        <ele>44.516998</ele>
        <time>2011-07-29T09:45:02Z</time>
      </trkpt>
      <trkpt lat="43.14752" lon="6.26439">
        <ele>42.915657</ele>
        <time>2011-07-29T09:45:11Z</time>
      </trkpt>
      <trkpt lat="43.14744" lon="6.26371">
        <ele>43.616886</ele>
        <time>2011-07-29T09:45:19Z</time>
      </trkpt>
      <trkpt lat="43.14734" lon="6.26306">
        <ele>43.578125</ele>
        <time>2011-07-29T09:45:26Z</time>
      </trkpt>
      <trkpt lat="43.14723" lon="6.26241">
        <ele>43.749176</ele>
        <time>2011-07-29T09:45:33Z</time>
      </trkpt>
      <trkpt lat="43.14712" lon="6.26177">
        <ele>41.974594</ele>
        <time>2011-07-29T09:45:41Z</time>
      </trkpt>
      <trkpt lat="43.14699" lon="6.26111">
        <ele>40.412498</ele>
        <time>2011-07-29T09:45:50Z</time>
      </trkpt>
      <trkpt lat="43.14687" lon="6.26047">
        <ele>40.228622</ele>
        <time>2011-07-29T09:45:59Z</time>
      </trkpt>
      <trkpt lat="43.14677" lon="6.25986">
        <ele>39.244843</ele>
        <time>2011-07-29T09:46:07Z</time>
      </trkpt>
      <trkpt lat="43.14666" lon="6.25921">
        <ele>37.299809</ele>
        <time>2011-07-29T09:46:15Z</time>
      </trkpt>
      <trkpt lat="43.14639" lon="6.25868">
        <ele>37.882324</ele>
        <time>2011-07-29T09:46:24Z</time>
      </trkpt>
      <trkpt lat="43.14618" lon="6.25808">
        <ele>35.509998</ele>
        <time>2011-07-29T09:46:34Z</time>
      </trkpt>
      <trkpt lat="43.14598" lon="6.25753">
        <ele>33.010002</ele>
        <time>2011-07-29T09:46:42Z</time>
      </trkpt>
      <trkpt lat="43.14572" lon="6.257">
        <ele>32.349548</ele>
        <time>2011-07-29T09:46:50Z</time>
      </trkpt>
      <trkpt lat="43.1455" lon="6.2564">
        <ele>32.553356</ele>
        <time>2011-07-29T09:46:59Z</time>
      </trkpt>
      <trkpt lat="43.14529" lon="6.25582">
        <ele>30.525</ele>
        <time>2011-07-29T09:47:09Z</time>
      </trkpt>
      <trkpt lat="43.14506" lon="6.2552">
        <ele>28.578749</ele>
        <time>2011-07-29T09:47:19Z</time>
      </trkpt>
      <trkpt lat="43.14486" lon="6.25462">
        <ele>28.4</ele>
        <time>2011-07-29T09:47:27Z</time>
      </trkpt>
      <trkpt lat="43.14465" lon="6.25405">
        <ele>28.504999</ele>
        <time>2011-07-29T09:47:34Z</time>
      </trkpt>
      <trkpt lat="43.14444" lon="6.25348">
        <ele>28.906025</ele>
        <time>2011-07-29T09:47:41Z</time>
      </trkpt>
      <trkpt lat="43.14421" lon="6.25286">
        <ele>28.359999</ele>
        <time>2011-07-29T09:47:49Z</time>
      </trkpt>
      <trkpt lat="43.14399" lon="6.25225">
        <ele>27.904501</ele>
        <time>2011-07-29T09:47:58Z</time>
      </trkpt>
      <trkpt lat="43.14388" lon="6.25165">
        <ele>23.948015</ele>
        <time>2011-07-29T09:48:08Z</time>
      </trkpt>
      <trkpt lat="43.14387" lon="6.25099">
        <ele>20.263</ele>
        <time>2011-07-29T09:48:19Z</time>
      </trkpt>
      <trkpt lat="43.1439" lon="6.25036">
        <ele>22.872499</ele>
        <time>2011-07-29T09:48:30Z</time>
      </trkpt>
      <trkpt lat="43.14392" lon="6.24976">
        <ele>26.028891</ele>
        <time>2011-07-29T09:49:12Z</time>
      </trkpt>
      <trkpt lat="43.14381" lon="6.24917">
        <ele>28.60375</ele>
        <time>2011-07-29T09:49:28Z</time>
      </trkpt>
      <trkpt lat="43.14361" lon="6.24863">
        <ele>29.967501</ele>
        <time>2011-07-29T09:49:43Z</time>
      </trkpt>
      <trkpt lat="43.14329" lon="6.24821">
        <ele>30.51</ele>
        <time>2011-07-29T09:49:56Z</time>
      </trkpt>
      <trkpt lat="43.14296" lon="6.24775">
        <ele>31.061251</ele>
        <time>2011-07-29T09:50:11Z</time>
      </trkpt>
      <trkpt lat="43.14266" lon="6.24726">
        <ele>31.127501</ele>
        <time>2011-07-29T09:50:23Z</time>
      </trkpt>
      <trkpt lat="43.14241" lon="6.24668">
        <ele>30.637501</ele>
        <time>2011-07-29T09:50:36Z</time>
      </trkpt>
      <trkpt lat="43.14222" lon="6.24605">
        <ele>30.17</ele>
        <time>2011-07-29T09:50:47Z</time>
      </trkpt>
      <trkpt lat="43.14205" lon="6.24546">
        <ele>29.745001</ele>
        <time>2011-07-29T09:50:57Z</time>
      </trkpt>
      <trkpt lat="43.14186" lon="6.24481">
        <ele>28.699968</ele>
        <time>2011-07-29T09:51:07Z</time>
      </trkpt>
      <trkpt lat="43.14169" lon="6.24418">
        <ele>27.887444</ele>
        <time>2011-07-29T09:51:18Z</time>
      </trkpt>
      <trkpt lat="43.14152" lon="6.24355">
        <ele>27.41</ele>
        <time>2011-07-29T09:51:29Z</time>
      </trkpt>
      <trkpt lat="43.14133" lon="6.24295">
        <ele>27</ele>
        <time>2011-07-29T09:51:39Z</time>
      </trkpt>
      <trkpt lat="43.14115" lon="6.24237">
        <ele>26.6675</ele>
        <time>2011-07-29T09:51:49Z</time>
      </trkpt>
      <trkpt lat="43.14097" lon="6.24174">
        <ele>26.01627</ele>
        <time>2011-07-29T09:51:59Z</time>
      </trkpt>
      <trkpt lat="43.14079" lon="6.24112">
        <ele>25.602501</ele>
        <time>2011-07-29T09:52:09Z</time>
      </trkpt>
      <trkpt lat="43.14061" lon="6.24054">
        <ele>25.147499</ele>
        <time>2011-07-29T09:52:20Z</time>
      </trkpt>
      <trkpt lat="43.14046" lon="6.23993">
        <ele>24.891481</ele>
        <time>2011-07-29T09:52:32Z</time>
      </trkpt>
      <trkpt lat="43.14013" lon="6.23958">
        <ele>24.997723</ele>
        <time>2011-07-29T09:52:47Z</time>
      </trkpt>
      <trkpt lat="43.1397" lon="6.23923">
        <ele>24.626106</ele>
        <time>2011-07-29T09:52:58Z</time>
      </trkpt>
      <trkpt lat="43.13935" lon="6.2388">
        <ele>24.424</ele>
        <time>2011-07-29T09:53:08Z</time>
      </trkpt>
      <trkpt lat="43.13905" lon="6.23828">
        <ele>24.549549</ele>
        <time>2011-07-29T09:53:18Z</time>
      </trkpt>
      <trkpt lat="43.13882" lon="6.23768">
        <ele>24.981251</ele>
        <time>2011-07-29T09:53:28Z</time>
      </trkpt>
      <trkpt lat="43.13865" lon="6.23717">
        <ele>25.370001</ele>
        <time>2011-07-29T09:54:36Z</time>
      </trkpt>
      <trkpt lat="43.13857" lon="6.23664">
        <ele>25.3025</ele>
        <time>2011-07-29T09:54:55Z</time>
      </trkpt>
      <trkpt lat="43.13837" lon="6.23605">
        <ele>24.797501</ele>
        <time>2011-07-29T09:55:10Z</time>
      </trkpt>
      <trkpt lat="43.13818" lon="6.23546">
        <ele>24.141525</ele>
        <time>2011-07-29T09:55:24Z</time>
      </trkpt>
      <trkpt lat="43.138" lon="6.23487">
        <ele>23.355</ele>
        <time>2011-07-29T09:55:40Z</time>
      </trkpt>
      <trkpt lat="43.13792" lon="6.23436">
        <ele>22.313749</ele>
        <time>2011-07-29T09:57:18Z</time>
      </trkpt>
      <trkpt lat="43.13764" lon="6.23394">
        <ele>21.004999</ele>
        <time>2011-07-29T09:57:55Z</time>
      </trkpt>
      <trkpt lat="43.13745" lon="6.23335">
        <ele>18.639126</ele>
        <time>2011-07-29T09:58:10Z</time>
      </trkpt>
      <trkpt lat="43.13723" lon="6.23279">
        <ele>18.00214</ele>
        <time>2011-07-29T09:58:27Z</time>
      </trkpt>
      <trkpt lat="43.1372" lon="6.23209">
        <ele>17.8825</ele>
        <time>2011-07-29T09:58:45Z</time>
      </trkpt>
      <trkpt lat="43.13696" lon="6.2316">
        <ele>17.305</ele>
        <time>2011-07-29T09:58:57Z</time>
      </trkpt>
      <trkpt lat="43.13676" lon="6.23102">
        <ele>16.934557</ele>
        <time>2011-07-29T09:59:09Z</time>
      </trkpt>
      <trkpt lat="43.13656" lon="6.23044">
        <ele>17</ele>
        <time>2011-07-29T09:59:20Z</time>
      </trkpt>
      <trkpt lat="43.13637" lon="6.22985">
        <ele>17.598135</ele>
        <time>2011-07-29T09:59:31Z</time>
      </trkpt>
      <trkpt lat="43.1362" lon="6.22924">
        <ele>19.5375</ele>
        <time>2011-07-29T09:59:43Z</time>
      </trkpt>
      <trkpt lat="43.13598" lon="6.22872">
        <ele>21.32</ele>
        <time>2011-07-29T09:59:55Z</time>
      </trkpt>
      <trkpt lat="43.1357" lon="6.22819">
        <ele>22.139999</ele>
        <time>2011-07-29T10:00:09Z</time>
      </trkpt>
      <trkpt lat="43.13543" lon="6.22771">
        <ele>22.89875</ele>
        <time>2011-07-29T10:00:23Z</time>
      </trkpt>
      <trkpt lat="43.13512" lon="6.22718">
        <ele>23.723749</ele>
        <time>2011-07-29T10:00:37Z</time>
      </trkpt>
      <trkpt lat="43.13484" lon="6.22666">
        <ele>24.102747</ele>
        <time>2011-07-29T10:00:50Z</time>
      </trkpt>
      <trkpt lat="43.13454" lon="6.22615">
        <ele>24.3325</ele>
        <time>2011-07-29T10:01:03Z</time>
      </trkpt>
      <trkpt lat="43.13425" lon="6.22559">
        <ele>24.625813</ele>
        <time>2011-07-29T10:01:16Z</time>
      </trkpt>
      <trkpt lat="43.13403" lon="6.22504">
        <ele>23.928774</ele>
        <time>2011-07-29T10:01:30Z</time>
      </trkpt>
      <trkpt lat="43.13364" lon="6.2246">
        <ele>23.084406</ele>
        <time>2011-07-29T10:01:40Z</time>
      </trkpt>
      <trkpt lat="43.13338" lon="6.2241">
        <ele>22.74</ele>
        <time>2011-07-29T10:01:50Z</time>
      </trkpt>
      <trkpt lat="43.1331" lon="6.2236">
        <ele>22.381834</ele>
        <time>2011-07-29T10:02:01Z</time>
      </trkpt>
      <trkpt lat="43.13282" lon="6.22309">
        <ele>22.4275</ele>
        <time>2011-07-29T10:02:13Z</time>
      </trkpt>
      <trkpt lat="43.13252" lon="6.22256">
        <ele>21.7125</ele>
        <time>2011-07-29T10:02:25Z</time>
      </trkpt>
      <trkpt lat="43.13231" lon="6.22204">
        <ele>21.192499</ele>
        <time>2011-07-29T10:02:40Z</time>
      </trkpt>
      <trkpt lat="43.13198" lon="6.22162">
        <ele>20.424999</ele>
        <time>2011-07-29T10:02:54Z</time>
      </trkpt>
      <trkpt lat="43.13171" lon="6.22113">
        <ele>20.042538</ele>
        <time>2011-07-29T10:03:06Z</time>
      </trkpt>
      <trkpt lat="43.13143" lon="6.22062">
        <ele>20.860676</ele>
        <time>2011-07-29T10:03:17Z</time>
      </trkpt>
      <trkpt lat="43.13111" lon="6.22008">
        <ele>19.543749</ele>
        <time>2011-07-29T10:03:27Z</time>
      </trkpt>
      <trkpt lat="43.13077" lon="6.2196">
        <ele>17.809313</ele>
        <time>2011-07-29T10:03:36Z</time>
      </trkpt>
      <trkpt lat="43.13049" lon="6.21908">
        <ele>16.907499</ele>
        <time>2011-07-29T10:03:45Z</time>
      </trkpt>
      <trkpt lat="43.13019" lon="6.21855">
        <ele>16.44875</ele>
        <time>2011-07-29T10:03:55Z</time>
      </trkpt>
      <trkpt lat="43.12992" lon="6.21805">
        <ele>16.145</ele>
        <time>2011-07-29T10:04:05Z</time>
      </trkpt>
      <trkpt lat="43.12965" lon="6.21751">
        <ele>15.721459</ele>
        <time>2011-07-29T10:04:15Z</time>
      </trkpt>
      <trkpt lat="43.12935" lon="6.21714">
        <ele>14.529884</ele>
        <time>2011-07-29T10:04:37Z</time>
      </trkpt>
      <trkpt lat="43.12917" lon="6.2165">
        <ele>13.555</ele>
        <time>2011-07-29T10:04:48Z</time>
      </trkpt>
      <trkpt lat="43.12902" lon="6.21589">
        <ele>12.785</ele>
        <time>2011-07-29T10:04:58Z</time>
      </trkpt>
      <trkpt lat="43.12889" lon="6.21525">
        <ele>12.080653</ele>
        <time>2011-07-29T10:05:08Z</time>
      </trkpt>
      <trkpt lat="43.12878" lon="6.21456">
        <ele>11.515</ele>
        <time>2011-07-29T10:05:17Z</time>
      </trkpt>
      <trkpt lat="43.12866" lon="6.21389">
        <ele>11.220625</ele>
        <time>2011-07-29T10:05:26Z</time>
      </trkpt>
      <trkpt lat="43.12854" lon="6.21327">
        <ele>11.173906</ele>
        <time>2011-07-29T10:05:35Z</time>
      </trkpt>
      <trkpt lat="43.1284" lon="6.21265">
        <ele>10.745</ele>
        <time>2011-07-29T10:05:45Z</time>
      </trkpt>
      <trkpt lat="43.1283" lon="6.21204">
        <ele>10.49</ele>
        <time>2011-07-29T10:05:55Z</time>
      </trkpt>
      <trkpt lat="43.1282" lon="6.21144">
        <ele>10.31875</ele>
        <time>2011-07-29T10:06:05Z</time>
      </trkpt>
      <trkpt lat="43.12808" lon="6.21084">
        <ele>10.388938</ele>
        <time>2011-07-29T10:06:15Z</time>
      </trkpt>
      <trkpt lat="43.12796" lon="6.21019">
        <ele>10.155</ele>
        <time>2011-07-29T10:06:26Z</time>
      </trkpt>
      <trkpt lat="43.12785" lon="6.20959">
        <ele>9.966825</ele>
        <time>2011-07-29T10:06:36Z</time>
      </trkpt>
      <trkpt lat="43.12759" lon="6.20907">
        <ele>9.675</ele>
        <time>2011-07-29T10:06:46Z</time>
      </trkpt>
      <trkpt lat="43.12749" lon="6.20841">
        <ele>9.3825</ele>
        <time>2011-07-29T10:06:57Z</time>
      </trkpt>
      <trkpt lat="43.12739" lon="6.20781">
        <ele>9.11</ele>
        <time>2011-07-29T10:07:10Z</time>
      </trkpt>
      <trkpt lat="43.12729" lon="6.2072">
        <ele>8.773109</ele>
        <time>2011-07-29T10:07:22Z</time>
      </trkpt>
      <trkpt lat="43.12716" lon="6.20659">
        <ele>8.015</ele>
        <time>2011-07-29T10:07:33Z</time>
      </trkpt>
      <trkpt lat="43.12705" lon="6.20596">
        <ele>7.445</ele>
        <time>2011-07-29T10:07:46Z</time>
      </trkpt>
      <trkpt lat="43.12703" lon="6.20537">
        <ele>7.545609</ele>
        <time>2011-07-29T10:07:59Z</time>
      </trkpt>
      <trkpt lat="43.12685" lon="6.20482">
        <ele>7.422781</ele>
        <time>2011-07-29T10:08:09Z</time>
      </trkpt>
      <trkpt lat="43.12672" lon="6.20418">
        <ele>7.335</ele>
        <time>2011-07-29T10:08:17Z</time>
      </trkpt>
      <trkpt lat="43.1266" lon="6.20354">
        <ele>7.028856</ele>
        <time>2011-07-29T10:08:25Z</time>
      </trkpt>
      <trkpt lat="43.12658" lon="6.20291">
        <ele>6.92</ele>
        <time>2011-07-29T10:08:34Z</time>
      </trkpt>
      <trkpt lat="43.12644" lon="6.20227">
        <ele>6.7469</ele>
        <time>2011-07-29T10:08:44Z</time>
      </trkpt>
      <trkpt lat="43.12631" lon="6.20162">
        <ele>6.445</ele>
        <time>2011-07-29T10:08:54Z</time>
      </trkpt>
      <trkpt lat="43.12617" lon="6.20102">
        <ele>5.855</ele>
        <time>2011-07-29T10:09:04Z</time>
      </trkpt>
      <trkpt lat="43.12593" lon="6.20049">
        <ele>5.285</ele>
        <time>2011-07-29T10:09:17Z</time>
      </trkpt>
      <trkpt lat="43.12567" lon="6.19993">
        <ele>4.34</ele>
        <time>2011-07-29T10:09:27Z</time>
      </trkpt>
      <trkpt lat="43.12555" lon="6.19933">
        <ele>3.692563</ele>
        <time>2011-07-29T10:09:37Z</time>
      </trkpt>
      <trkpt lat="43.1257" lon="6.19876">
        <ele>3.665962</ele>
        <time>2011-07-29T10:09:49Z</time>
      </trkpt>
      <trkpt lat="43.12558" lon="6.19819">
        <ele>3.32</ele>
        <time>2011-07-29T10:09:59Z</time>
      </trkpt>
      <trkpt lat="43.12548" lon="6.19753">
        <ele>3.0575</ele>
        <time>2011-07-29T10:10:08Z</time>
      </trkpt>
      <trkpt lat="43.12538" lon="6.19691">
        <ele>2.785</ele>
        <time>2011-07-29T10:10:18Z</time>
      </trkpt>
      <trkpt lat="43.12532" lon="6.19625">
        <ele>2.585</ele>
        <time>2011-07-29T10:10:30Z</time>
      </trkpt>
      <trkpt lat="43.12525" lon="6.19557">
        <ele>2.25</ele>
        <time>2011-07-29T10:10:41Z</time>
      </trkpt>
      <trkpt lat="43.12518" lon="6.19495">
        <ele>1.1825</ele>
        <time>2011-07-29T10:10:51Z</time>
      </trkpt>
      <trkpt lat="43.12521" lon="6.19431">
        <ele>1.185</ele>
        <time>2011-07-29T10:11:02Z</time>
      </trkpt>
      <trkpt lat="43.12519" lon="6.19364">
        <ele>1.0875</ele>
        <time>2011-07-29T10:11:12Z</time>
      </trkpt>
      <trkpt lat="43.1252" lon="6.193">
        <ele>1.0675</ele>
        <time>2011-07-29T10:11:22Z</time>
      </trkpt>
      <trkpt lat="43.12523" lon="6.19234">
        <ele>1.0725</ele>
        <time>2011-07-29T10:11:33Z</time>
      </trkpt>
      <trkpt lat="43.12528" lon="6.19172">
        <ele>1.1475</ele>
        <time>2011-07-29T10:11:43Z</time>
      </trkpt>
      <trkpt lat="43.12532" lon="6.19106">
        <ele>1.258125</ele>
        <time>2011-07-29T10:11:55Z</time>
      </trkpt>
      <trkpt lat="43.1253" lon="6.19048">
        <ele>1.554806</ele>
        <time>2011-07-29T10:12:33Z</time>
      </trkpt>
      <trkpt lat="43.12498" lon="6.19002">
        <ele>1.47625</ele>
        <time>2011-07-29T10:12:44Z</time>
      </trkpt>
      <trkpt lat="43.12464" lon="6.18958">
        <ele>1.81</ele>
        <time>2011-07-29T10:12:54Z</time>
      </trkpt>
      <trkpt lat="43.1244" lon="6.18901">
        <ele>3.387088</ele>
        <time>2011-07-29T10:13:06Z</time>
      </trkpt>
      <trkpt lat="43.12428" lon="6.18847">
        <ele>4.431737</ele>
        <time>2011-07-29T10:13:36Z</time>
      </trkpt>
      <trkpt lat="43.12388" lon="6.18816">
        <ele>4.758547</ele>
        <time>2011-07-29T10:13:48Z</time>
      </trkpt>
      <trkpt lat="43.12349" lon="6.18785">
        <ele>4.34375</ele>
        <time>2011-07-29T10:13:58Z</time>
      </trkpt>
      <trkpt lat="43.12307" lon="6.18753">
        <ele>3.868641</ele>
        <time>2011-07-29T10:14:09Z</time>
      </trkpt>
      <trkpt lat="43.12267" lon="6.18724">
        <ele>3.397694</ele>
        <time>2011-07-29T10:14:25Z</time>
      </trkpt>
      <trkpt lat="43.12226" lon="6.18693">
        <ele>3.041384</ele>
        <time>2011-07-29T10:14:38Z</time>
      </trkpt>
      <trkpt lat="43.12186" lon="6.18663">
        <ele>3.269531</ele>
        <time>2011-07-29T10:14:49Z</time>
      </trkpt>
      <trkpt lat="43.12143" lon="6.1863">
        <ele>3.8075</ele>
        <time>2011-07-29T10:15:01Z</time>
      </trkpt>
      <trkpt lat="43.121" lon="6.18601">
        <ele>4.2225</ele>
        <time>2011-07-29T10:15:12Z</time>
      </trkpt>
      <trkpt lat="43.12054" lon="6.18592">
        <ele>3.750194</ele>
        <time>2011-07-29T10:15:23Z</time>
      </trkpt>
      <trkpt lat="43.12009" lon="6.18585">
        <ele>3.447337</ele>
        <time>2011-07-29T10:15:35Z</time>
      </trkpt>
      <trkpt lat="43.11962" lon="6.18577">
        <ele>2.973081</ele>
        <time>2011-07-29T10:15:46Z</time>
      </trkpt>
      <trkpt lat="43.11918" lon="6.1858">
        <ele>2.725</ele>
        <time>2011-07-29T10:15:56Z</time>
      </trkpt>
      <trkpt lat="43.11877" lon="6.18619">
        <ele>2.23165</ele>
        <time>2011-07-29T10:16:07Z</time>
      </trkpt>
      <trkpt lat="43.1184" lon="6.1866">
        <ele>1.566375</ele>
        <time>2011-07-29T10:16:19Z</time>
      </trkpt>
      <trkpt lat="43.11804" lon="6.18699">
        <ele>1.65375</ele>
        <time>2011-07-29T10:16:30Z</time>
      </trkpt>
      <trkpt lat="43.11768" lon="6.18739">
        <ele>1.656237</ele>
        <time>2011-07-29T10:16:40Z</time>
      </trkpt>
      <trkpt lat="43.11732" lon="6.18778">
        <ele>1.8283</ele>
        <time>2011-07-29T10:16:51Z</time>
      </trkpt>
      <trkpt lat="43.11695" lon="6.1882">
        <ele>1.735225</ele>
        <time>2011-07-29T10:17:02Z</time>
      </trkpt>
      <trkpt lat="43.11668" lon="6.18872">
        <ele>1.499206</ele>
        <time>2011-07-29T10:17:12Z</time>
      </trkpt>
      <trkpt lat="43.11642" lon="6.18929">
        <ele>1.28785</ele>
        <time>2011-07-29T10:17:22Z</time>
      </trkpt>
      <trkpt lat="43.11617" lon="6.18986">
        <ele>1.2675</ele>
        <time>2011-07-29T10:17:32Z</time>
      </trkpt>
      <trkpt lat="43.11593" lon="6.19039">
        <ele>1.870266</ele>
        <time>2011-07-29T10:17:41Z</time>
      </trkpt>
      <trkpt lat="43.11566" lon="6.19096">
        <ele>2</ele>
        <time>2011-07-29T10:17:50Z</time>
      </trkpt>
      <trkpt lat="43.11541" lon="6.1915">
        <ele>2</ele>
        <time>2011-07-29T10:18:00Z</time>
      </trkpt>
      <trkpt lat="43.11514" lon="6.19205">
        <ele>1.904375</ele>
        <time>2011-07-29T10:18:11Z</time>
      </trkpt>
      <trkpt lat="43.11491" lon="6.19258">
        <ele>1.14</ele>
        <time>2011-07-29T10:18:21Z</time>
      </trkpt>
      <trkpt lat="43.1147" lon="6.19293">
        <ele>1</ele>
        <time>2011-07-29T10:18:33Z</time>
      </trkpt>
      <trkpt lat="43.11449" lon="6.19229">
        <ele>1.0565</ele>
        <time>2011-07-29T10:18:45Z</time>
      </trkpt>
      <trkpt lat="43.11431" lon="6.19169">
        <ele>1.18625</ele>
        <time>2011-07-29T10:18:56Z</time>
      </trkpt>
      <trkpt lat="43.11407" lon="6.19111">
        <ele>1.312156</ele>
        <time>2011-07-29T10:19:10Z</time>
      </trkpt>
      <trkpt lat="43.11383" lon="6.19053">
        <ele>1.623572</ele>
        <time>2011-07-29T10:19:23Z</time>
      </trkpt>
      <trkpt lat="43.11357" lon="6.19001">
        <ele>1.9</ele>
        <time>2011-07-29T10:19:38Z</time>
      </trkpt>
      <trkpt lat="43.11332" lon="6.1895">
        <ele>2</ele>
        <time>2011-07-29T10:20:25Z</time>
      </trkpt>
      <trkpt lat="43.11307" lon="6.18895">
        <ele>1.896688</ele>
        <time>2011-07-29T10:20:37Z</time>
      </trkpt>
      <trkpt lat="43.11278" lon="6.18847">
        <ele>2</ele>
        <time>2011-07-29T10:20:49Z</time>
      </trkpt>
      <trkpt lat="43.11251" lon="6.18793">
        <ele>2</ele>
        <time>2011-07-29T10:21:02Z</time>
      </trkpt>
      <trkpt lat="43.11225" lon="6.18739">
        <ele>1.818006</ele>
        <time>2011-07-29T10:21:14Z</time>
      </trkpt>
      <trkpt lat="43.11197" lon="6.18684">
        <ele>1.905716</ele>
        <time>2011-07-29T10:21:26Z</time>
      </trkpt>
      <trkpt lat="43.11172" lon="6.18634">
        <ele>1.5625</ele>
        <time>2011-07-29T10:21:38Z</time>
      </trkpt>
      <trkpt lat="43.11146" lon="6.18583">
        <ele>1.444141</ele>
        <time>2011-07-29T10:21:52Z</time>
      </trkpt>
      <trkpt lat="43.1112" lon="6.18532">
        <ele>1.325</ele>
        <time>2011-07-29T10:22:03Z</time>
      </trkpt>
      <trkpt lat="43.11092" lon="6.18475">
        <ele>1</ele>
        <time>2011-07-29T10:22:13Z</time>
      </trkpt>
      <trkpt lat="43.11066" lon="6.18422">
        <ele>1</ele>
        <time>2011-07-29T10:22:23Z</time>
      </trkpt>
      <trkpt lat="43.11039" lon="6.18368">
        <ele>1</ele>
        <time>2011-07-29T10:22:33Z</time>
      </trkpt>
      <trkpt lat="43.11012" lon="6.18316">
        <ele>1</ele>
        <time>2011-07-29T10:22:43Z</time>
      </trkpt>
      <trkpt lat="43.10985" lon="6.18262">
        <ele>1</ele>
        <time>2011-07-29T10:22:54Z</time>
      </trkpt>
      <trkpt lat="43.1096" lon="6.18212">
        <ele>1</ele>
        <time>2011-07-29T10:23:06Z</time>
      </trkpt>
      <trkpt lat="43.10936" lon="6.18158">
        <ele>1</ele>
        <time>2011-07-29T10:23:20Z</time>
      </trkpt>
      <trkpt lat="43.10907" lon="6.18106">
        <ele>1</ele>
        <time>2011-07-29T10:23:34Z</time>
      </trkpt>
      <trkpt lat="43.1088" lon="6.18053">
        <ele>1</ele>
        <time>2011-07-29T10:23:45Z</time>
      </trkpt>
      <trkpt lat="43.10854" lon="6.17998">
        <ele>1</ele>
        <time>2011-07-29T10:23:56Z</time>
      </trkpt>
      <trkpt lat="43.10826" lon="6.17946">
        <ele>1</ele>
        <time>2011-07-29T10:24:07Z</time>
      </trkpt>
      <trkpt lat="43.10801" lon="6.17895">
        <ele>1</ele>
        <time>2011-07-29T10:24:19Z</time>
      </trkpt>
      <trkpt lat="43.10771" lon="6.17844">
        <ele>1</ele>
        <time>2011-07-29T10:24:32Z</time>
      </trkpt>
      <trkpt lat="43.10741" lon="6.17797">
        <ele>1</ele>
        <time>2011-07-29T10:25:09Z</time>
      </trkpt>
      <trkpt lat="43.10708" lon="6.17748">
        <ele>1</ele>
        <time>2011-07-29T10:25:21Z</time>
      </trkpt>
      <trkpt lat="43.10672" lon="6.17702">
        <ele>1</ele>
        <time>2011-07-29T10:25:32Z</time>
      </trkpt>
      <trkpt lat="43.10638" lon="6.17665">
        <ele>1</ele>
        <time>2011-07-29T10:25:45Z</time>
      </trkpt>
      <trkpt lat="43.10598" lon="6.17624">
        <ele>1</ele>
        <time>2011-07-29T10:25:58Z</time>
      </trkpt>
      <trkpt lat="43.10568" lon="6.17577">
        <ele>1</ele>
        <time>2011-07-29T10:26:19Z</time>
      </trkpt>
      <trkpt lat="43.10524" lon="6.17551">
        <ele>1</ele>
        <time>2011-07-29T10:26:34Z</time>
      </trkpt>
      <trkpt lat="43.10486" lon="6.1751">
        <ele>1</ele>
        <time>2011-07-29T10:26:47Z</time>
      </trkpt>
      <trkpt lat="43.10449" lon="6.17475">
        <ele>1</ele>
        <time>2011-07-29T10:27:00Z</time>
      </trkpt>
      <trkpt lat="43.1041" lon="6.17435">
        <ele>1</ele>
        <time>2011-07-29T10:27:15Z</time>
      </trkpt>
      <trkpt lat="43.10372" lon="6.17397">
        <ele>1</ele>
        <time>2011-07-29T10:27:28Z</time>
      </trkpt>
      <trkpt lat="43.10334" lon="6.17359">
        <ele>1</ele>
        <time>2011-07-29T10:27:41Z</time>
      </trkpt>
      <trkpt lat="43.10297" lon="6.17321">
        <ele>1</ele>
        <time>2011-07-29T10:27:53Z</time>
      </trkpt>
      <trkpt lat="43.10259" lon="6.17283">
        <ele>1</ele>
        <time>2011-07-29T10:28:05Z</time>
      </trkpt>
      <trkpt lat="43.10222" lon="6.17244">
        <ele>1</ele>
        <time>2011-07-29T10:28:20Z</time>
      </trkpt>
      <trkpt lat="43.10186" lon="6.17209">
        <ele>1</ele>
        <time>2011-07-29T10:28:36Z</time>
      </trkpt>
      <trkpt lat="43.10146" lon="6.17169">
        <ele>1</ele>
        <time>2011-07-29T10:28:49Z</time>
      </trkpt>
      <trkpt lat="43.10108" lon="6.17131">
        <ele>1</ele>
        <time>2011-07-29T10:29:02Z</time>
      </trkpt>
      <trkpt lat="43.10071" lon="6.17094">
        <ele>0.9322</ele>
        <time>2011-07-29T10:29:15Z</time>
      </trkpt>
      <trkpt lat="43.10035" lon="6.17056">
        <ele>1</ele>
        <time>2011-07-29T10:29:31Z</time>
      </trkpt>
      <trkpt lat="43.10032" lon="6.17005">
        <ele>0.997662</ele>
        <time>2011-07-29T10:29:54Z</time>
      </trkpt>
      <trkpt lat="43.10075" lon="6.16973">
        <ele>1</ele>
        <time>2011-07-29T10:30:08Z</time>
      </trkpt>
      <trkpt lat="43.10115" lon="6.16937">
        <ele>1</ele>
        <time>2011-07-29T10:30:57Z</time>
      </trkpt>
      <trkpt lat="43.10149" lon="6.16899">
        <ele>1</ele>
        <time>2011-07-29T10:31:10Z</time>
      </trkpt>
      <trkpt lat="43.10185" lon="6.1686">
        <ele>1</ele>
        <time>2011-07-29T10:31:22Z</time>
      </trkpt>
      <trkpt lat="43.10222" lon="6.16822">
        <ele>1.165825</ele>
        <time>2011-07-29T10:31:34Z</time>
      </trkpt>
      <trkpt lat="43.10261" lon="6.16781">
        <ele>1.979731</ele>
        <time>2011-07-29T10:31:46Z</time>
      </trkpt>
      <trkpt lat="43.10299" lon="6.1674">
        <ele>2</ele>
        <time>2011-07-29T10:31:58Z</time>
      </trkpt>
      <trkpt lat="43.10311" lon="6.16728">
        <ele>2</ele>
        <time>2011-07-29T10:32:41Z</time>
      </trkpt>
      <trkpt lat="43.10274" lon="6.16769">
        <ele>2</ele>
        <time>2011-07-29T10:32:55Z</time>
      </trkpt>
      <trkpt lat="43.10236" lon="6.16808">
        <ele>1.57815</ele>
        <time>2011-07-29T10:33:07Z</time>
      </trkpt>
      <trkpt lat="43.102" lon="6.16848">
        <ele>1</ele>
        <time>2011-07-29T10:33:18Z</time>
      </trkpt>
      <trkpt lat="43.10158" lon="6.16893">
        <ele>1</ele>
        <time>2011-07-29T10:33:29Z</time>
      </trkpt>
      <trkpt lat="43.10119" lon="6.16935">
        <ele>1</ele>
        <time>2011-07-29T10:33:41Z</time>
      </trkpt>
      <trkpt lat="43.10081" lon="6.16967">
        <ele>1</ele>
        <time>2011-07-29T10:33:54Z</time>
      </trkpt>
      <trkpt lat="43.10041" lon="6.16999">
        <ele>1</ele>
        <time>2011-07-29T10:34:09Z</time>
      </trkpt>
      <trkpt lat="43.10008" lon="6.17022">
        <ele>0.793909</ele>
        <time>2011-07-29T10:34:42Z</time>
      </trkpt>
      <trkpt lat="43.09969" lon="6.16986">
        <ele>1</ele>
        <time>2011-07-29T10:34:57Z</time>
      </trkpt>
      <trkpt lat="43.0993" lon="6.16948">
        <ele>0.914412</ele>
        <time>2011-07-29T10:35:10Z</time>
      </trkpt>
      <trkpt lat="43.09891" lon="6.16911">
        <ele>0.805</ele>
        <time>2011-07-29T10:35:22Z</time>
      </trkpt>
      <trkpt lat="43.09852" lon="6.16872">
        <ele>0.9525</ele>
        <time>2011-07-29T10:35:35Z</time>
      </trkpt>
      <trkpt lat="43.09815" lon="6.16836">
        <ele>0.978484</ele>
        <time>2011-07-29T10:35:47Z</time>
      </trkpt>
      <trkpt lat="43.09777" lon="6.16797">
        <ele>1</ele>
        <time>2011-07-29T10:35:58Z</time>
      </trkpt>
      <trkpt lat="43.09739" lon="6.16758">
        <ele>0.743613</ele>
        <time>2011-07-29T10:36:09Z</time>
      </trkpt>
      <trkpt lat="43.097" lon="6.16719">
        <ele>1</ele>
        <time>2011-07-29T10:36:21Z</time>
      </trkpt>
      <trkpt lat="43.09662" lon="6.16682">
        <ele>0.908491</ele>
        <time>2011-07-29T10:36:33Z</time>
      </trkpt>
      <trkpt lat="43.09625" lon="6.16645">
        <ele>1</ele>
        <time>2011-07-29T10:36:48Z</time>
      </trkpt>
      <trkpt lat="43.09586" lon="6.16604">
        <ele>1</ele>
        <time>2011-07-29T10:37:01Z</time>
      </trkpt>
      <trkpt lat="43.0955" lon="6.16568">
        <ele>1</ele>
        <time>2011-07-29T10:37:12Z</time>
      </trkpt>
      <trkpt lat="43.09514" lon="6.16532">
        <ele>1</ele>
        <time>2011-07-29T10:37:23Z</time>
      </trkpt>
      <trkpt lat="43.09476" lon="6.16494">
        <ele>1</ele>
        <time>2011-07-29T10:37:33Z</time>
      </trkpt>
      <trkpt lat="43.09439" lon="6.16457">
        <ele>1</ele>
        <time>2011-07-29T10:37:43Z</time>
      </trkpt>
      <trkpt lat="43.09402" lon="6.1642">
        <ele>1</ele>
        <time>2011-07-29T10:37:54Z</time>
      </trkpt>
      <trkpt lat="43.09362" lon="6.1638">
        <ele>1</ele>
        <time>2011-07-29T10:38:06Z</time>
      </trkpt>
      <trkpt lat="43.09326" lon="6.16343">
        <ele>1</ele>
        <time>2011-07-29T10:38:21Z</time>
      </trkpt>
      <trkpt lat="43.09288" lon="6.16307">
        <ele>1</ele>
        <time>2011-07-29T10:38:33Z</time>
      </trkpt>
      <trkpt lat="43.0925" lon="6.1627">
        <ele>1</ele>
        <time>2011-07-29T10:38:46Z</time>
      </trkpt>
      <trkpt lat="43.09211" lon="6.16231">
        <ele>1</ele>
        <time>2011-07-29T10:38:59Z</time>
      </trkpt>
      <trkpt lat="43.09169" lon="6.16187">
        <ele>1</ele>
        <time>2011-07-29T10:39:11Z</time>
      </trkpt>
      <trkpt lat="43.09128" lon="6.16147">
        <ele>1</ele>
        <time>2011-07-29T10:39:21Z</time>
      </trkpt>
      <trkpt lat="43.09089" lon="6.16109">
        <ele>1</ele>
        <time>2011-07-29T10:39:31Z</time>
      </trkpt>
      <trkpt lat="43.0905" lon="6.16073">
        <ele>1</ele>
        <time>2011-07-29T10:39:43Z</time>
      </trkpt>
      <trkpt lat="43.09033" lon="6.16014">
        <ele>1</ele>
        <time>2011-07-29T10:40:04Z</time>
      </trkpt>
      <trkpt lat="43.08992" lon="6.16001">
        <ele>1</ele>
        <time>2011-07-29T10:42:17Z</time>
      </trkpt>
      <trkpt lat="43.0895" lon="6.15977">
        <ele>1</ele>
        <time>2011-07-29T10:42:28Z</time>
      </trkpt>
      <trkpt lat="43.08925" lon="6.15933">
        <ele>1</ele>
        <time>2011-07-29T10:42:45Z</time>
      </trkpt>
      <trkpt lat="43.08896" lon="6.15916">
        <ele>1</ele>
        <time>2011-07-29T10:43:33Z</time>
      </trkpt>
      <trkpt lat="43.08861" lon="6.15879">
        <ele>1</ele>
        <time>2011-07-29T10:43:46Z</time>
      </trkpt>
      <trkpt lat="43.08824" lon="6.15843">
        <ele>1</ele>
        <time>2011-07-29T10:43:58Z</time>
      </trkpt>
      <trkpt lat="43.08788" lon="6.15804">
        <ele>1</ele>
        <time>2011-07-29T10:44:11Z</time>
      </trkpt>
      <trkpt lat="43.08752" lon="6.15766">
        <ele>1</ele>
        <time>2011-07-29T10:44:45Z</time>
      </trkpt>
      <trkpt lat="43.08709" lon="6.15735">
        <ele>1</ele>
        <time>2011-07-29T10:45:00Z</time>
      </trkpt>
      <trkpt lat="43.08665" lon="6.15719">
        <ele>1</ele>
        <time>2011-07-29T10:45:15Z</time>
      </trkpt>
      <trkpt lat="43.08639" lon="6.15666">
        <ele>1</ele>
        <time>2011-07-29T10:45:52Z</time>
      </trkpt>
      <trkpt lat="43.08629" lon="6.15707">
        <ele>1</ele>
        <time>2011-07-29T10:46:07Z</time>
      </trkpt>
      <trkpt lat="43.08595" lon="6.15747">
        <ele>1</ele>
        <time>2011-07-29T10:46:19Z</time>
      </trkpt>
      <trkpt lat="43.0856" lon="6.15791">
        <ele>1</ele>
        <time>2011-07-29T10:46:34Z</time>
      </trkpt>
      <trkpt lat="43.0852" lon="6.1579">
        <ele>1</ele>
        <time>2011-07-29T10:46:52Z</time>
      </trkpt>
      <trkpt lat="43.08475" lon="6.15774">
        <ele>1</ele>
        <time>2011-07-29T10:47:10Z</time>
      </trkpt>
      <trkpt lat="43.0843" lon="6.15755">
        <ele>1</ele>
        <time>2011-07-29T10:47:25Z</time>
      </trkpt>
      <trkpt lat="43.08385" lon="6.15737">
        <ele>1</ele>
        <time>2011-07-29T10:47:37Z</time>
      </trkpt>
      <trkpt lat="43.0834" lon="6.15719">
        <ele>1</ele>
        <time>2011-07-29T10:47:53Z</time>
      </trkpt>
      <trkpt lat="43.08294" lon="6.15699">
        <ele>1</ele>
        <time>2011-07-29T10:48:09Z</time>
      </trkpt>
      <trkpt lat="43.08253" lon="6.15672">
        <ele>1</ele>
        <time>2011-07-29T10:48:26Z</time>
      </trkpt>
      <trkpt lat="43.08209" lon="6.15651">
        <ele>1</ele>
        <time>2011-07-29T10:48:42Z</time>
      </trkpt>
      <trkpt lat="43.08168" lon="6.15655">
        <ele>0.95875</ele>
        <time>2011-07-29T10:49:05Z</time>
      </trkpt>
      <trkpt lat="43.08124" lon="6.15646">
        <ele>1</ele>
        <time>2011-07-29T10:49:20Z</time>
      </trkpt>
      <trkpt lat="43.08078" lon="6.15632">
        <ele>1</ele>
        <time>2011-07-29T10:49:35Z</time>
      </trkpt>
      <trkpt lat="43.08037" lon="6.15619">
        <ele>1</ele>
        <time>2011-07-29T10:49:58Z</time>
      </trkpt>
      <trkpt lat="43.07992" lon="6.15595">
        <ele>0.857266</ele>
        <time>2011-07-29T10:50:12Z</time>
      </trkpt>
      <trkpt lat="43.07948" lon="6.15575">
        <ele>1</ele>
        <time>2011-07-29T10:50:25Z</time>
      </trkpt>
      <trkpt lat="43.07914" lon="6.15556">
        <ele>1</ele>
        <time>2011-07-29T10:51:17Z</time>
      </trkpt>
      <trkpt lat="43.07947" lon="6.15573">
        <ele>1</ele>
        <time>2011-07-29T10:51:41Z</time>
      </trkpt>
      <trkpt lat="43.0799" lon="6.15598">
        <ele>0.818509</ele>
        <time>2011-07-29T10:51:59Z</time>
      </trkpt>
      <trkpt lat="43.08021" lon="6.15631">
        <ele>1</ele>
        <time>2011-07-29T10:52:17Z</time>
      </trkpt>
      <trkpt lat="43.0801" lon="6.15695">
        <ele>0.915</ele>
        <time>2011-07-29T10:54:48Z</time>
      </trkpt>
      <trkpt lat="43.08002" lon="6.15737">
        <ele>0.7775</ele>
        <time>2011-07-29T10:55:17Z</time>
      </trkpt>
      <trkpt lat="43.08045" lon="6.15756">
        <ele>0.2625</ele>
        <time>2011-07-29T10:56:18Z</time>
      </trkpt>
      <trkpt lat="43.08043" lon="6.15721">
        <ele>0.33</ele>
        <time>2011-07-29T10:57:12Z</time>
      </trkpt>
      <trkpt lat="43.08054" lon="6.15675">
        <ele>0.575509</ele>
        <time>2011-07-29T11:16:08Z</time>
      </trkpt>
    </trkseg>
  </trk>
  <trk>
    <name><![CDATA[ACTIVE LOG- 29 JUL 2011 13-16-MNT]]></name>
    <trkseg>
      <trkpt lat="43.08059" lon="6.15654">
        <ele>0.861928</ele>
        <time>2011-07-29T11:16:28Z</time>
      </trkpt>
      <trkpt lat="43.08094" lon="6.15638">
        <ele>1</ele>
        <time>2011-07-29T11:16:56Z</time>
      </trkpt>
      <trkpt lat="43.08138" lon="6.15654">
        <ele>0.94375</ele>
        <time>2011-07-29T11:17:13Z</time>
      </trkpt>
      <trkpt lat="43.08182" lon="6.15666">
        <ele>0.79125</ele>
        <time>2011-07-29T11:17:32Z</time>
      </trkpt>
      <trkpt lat="43.08227" lon="6.15687">
        <ele>0.861125</ele>
        <time>2011-07-29T11:17:48Z</time>
      </trkpt>
      <trkpt lat="43.08271" lon="6.15708">
        <ele>1</ele>
        <time>2011-07-29T11:19:08Z</time>
      </trkpt>
      <trkpt lat="43.08315" lon="6.15724">
        <ele>1</ele>
        <time>2011-07-29T11:19:29Z</time>
      </trkpt>
      <trkpt lat="43.08356" lon="6.15745">
        <ele>1</ele>
        <time>2011-07-29T11:19:44Z</time>
      </trkpt>
      <trkpt lat="43.08341" lon="6.15809">
        <ele>0.8677</ele>
        <time>2011-07-29T11:19:58Z</time>
      </trkpt>
      <trkpt lat="43.08327" lon="6.1587">
        <ele>0.8925</ele>
        <time>2011-07-29T11:20:18Z</time>
      </trkpt>
      <trkpt lat="43.08315" lon="6.15933">
        <ele>0.516956</ele>
        <time>2011-07-29T11:20:46Z</time>
      </trkpt>
      <trkpt lat="43.08315" lon="6.1598">
        <ele>1.2</ele>
        <time>2011-07-29T11:21:08Z</time>
      </trkpt>
      <trkpt lat="43.08326" lon="6.15919">
        <ele>0.7216</ele>
        <time>2011-07-29T11:21:25Z</time>
      </trkpt>
      <trkpt lat="43.08338" lon="6.1586">
        <ele>0.6675</ele>
        <time>2011-07-29T11:21:42Z</time>
      </trkpt>
      <trkpt lat="43.08352" lon="6.15799">
        <ele>0.887031</ele>
        <time>2011-07-29T11:21:58Z</time>
      </trkpt>
      <trkpt lat="43.08395" lon="6.1581">
        <ele>0.68375</ele>
        <time>2011-07-29T11:22:21Z</time>
      </trkpt>
      <trkpt lat="43.08431" lon="6.1579">
        <ele>1</ele>
        <time>2011-07-29T11:22:45Z</time>
      </trkpt>
      <trkpt lat="43.08474" lon="6.15808">
        <ele>0.8</ele>
        <time>2011-07-29T11:23:07Z</time>
      </trkpt>
      <trkpt lat="43.08517" lon="6.15824">
        <ele>0.57375</ele>
        <time>2011-07-29T11:23:31Z</time>
      </trkpt>
      <trkpt lat="43.08561" lon="6.15839">
        <ele>0.554019</ele>
        <time>2011-07-29T11:25:25Z</time>
      </trkpt>
      <trkpt lat="43.08581" lon="6.15879">
        <ele>0.745</ele>
        <time>2011-07-29T11:25:46Z</time>
      </trkpt>
      <trkpt lat="43.08568" lon="6.15943">
        <ele>0.660441</ele>
        <time>2011-07-29T11:25:59Z</time>
      </trkpt>
      <trkpt lat="43.08536" lon="6.15981">
        <ele>0.801281</ele>
        <time>2011-07-29T11:26:16Z</time>
      </trkpt>
      <trkpt lat="43.0853" lon="6.16042">
        <ele>0.7475</ele>
        <time>2011-07-29T11:26:35Z</time>
      </trkpt>
      <trkpt lat="43.08534" lon="6.16069">
        <ele>0.913609</ele>
        <time>2011-07-29T11:26:59Z</time>
      </trkpt>
      <trkpt lat="43.08533" lon="6.16003">
        <ele>0.7875</ele>
        <time>2011-07-29T11:27:16Z</time>
      </trkpt>
      <trkpt lat="43.08567" lon="6.15965">
        <ele>0.834859</ele>
        <time>2011-07-29T11:27:34Z</time>
      </trkpt>
      <trkpt lat="43.08571" lon="6.15916">
        <ele>0.5675</ele>
        <time>2011-07-29T11:28:17Z</time>
      </trkpt>
      <trkpt lat="43.08577" lon="6.15856">
        <ele>0.68725</ele>
        <time>2011-07-29T11:28:35Z</time>
      </trkpt>
      <trkpt lat="43.08571" lon="6.15797">
        <ele>1</ele>
        <time>2011-07-29T11:28:53Z</time>
      </trkpt>
      <trkpt lat="43.086" lon="6.15751">
        <ele>1</ele>
        <time>2011-07-29T11:29:07Z</time>
      </trkpt>
      <trkpt lat="43.08639" lon="6.1571">
        <ele>1</ele>
        <time>2011-07-29T11:29:21Z</time>
      </trkpt>
      <trkpt lat="43.08681" lon="6.15735">
        <ele>1</ele>
        <time>2011-07-29T11:29:36Z</time>
      </trkpt>
      <trkpt lat="43.08725" lon="6.15762">
        <ele>1</ele>
        <time>2011-07-29T11:29:48Z</time>
      </trkpt>
      <trkpt lat="43.08773" lon="6.15803">
        <ele>1</ele>
        <time>2011-07-29T11:29:58Z</time>
      </trkpt>
      <trkpt lat="43.08811" lon="6.15841">
        <ele>1</ele>
        <time>2011-07-29T11:30:06Z</time>
      </trkpt>
      <trkpt lat="43.08849" lon="6.15879">
        <ele>1</ele>
        <time>2011-07-29T11:30:13Z</time>
      </trkpt>
      <trkpt lat="43.0889" lon="6.1592">
        <ele>1</ele>
        <time>2011-07-29T11:30:21Z</time>
      </trkpt>
      <trkpt lat="43.08928" lon="6.15958">
        <ele>1</ele>
        <time>2011-07-29T11:30:30Z</time>
      </trkpt>
      <trkpt lat="43.08966" lon="6.15995">
        <ele>1</ele>
        <time>2011-07-29T11:30:40Z</time>
      </trkpt>
      <trkpt lat="43.09002" lon="6.16036">
        <ele>1</ele>
        <time>2011-07-29T11:30:49Z</time>
      </trkpt>
      <trkpt lat="43.0904" lon="6.16069">
        <ele>1</ele>
        <time>2011-07-29T11:30:57Z</time>
      </trkpt>
      <trkpt lat="43.09079" lon="6.1611">
        <ele>1</ele>
        <time>2011-07-29T11:31:06Z</time>
      </trkpt>
      <trkpt lat="43.09118" lon="6.1615">
        <ele>0.99235</ele>
        <time>2011-07-29T11:31:17Z</time>
      </trkpt>
      <trkpt lat="43.09156" lon="6.16189">
        <ele>1</ele>
        <time>2011-07-29T11:31:28Z</time>
      </trkpt>
      <trkpt lat="43.09189" lon="6.16236">
        <ele>0.821341</ele>
        <time>2011-07-29T11:31:38Z</time>
      </trkpt>
      <trkpt lat="43.09227" lon="6.16273">
        <ele>1</ele>
        <time>2011-07-29T11:31:48Z</time>
      </trkpt>
      <trkpt lat="43.09266" lon="6.163">
        <ele>1</ele>
        <time>2011-07-29T11:31:59Z</time>
      </trkpt>
      <trkpt lat="43.09306" lon="6.16338">
        <ele>1</ele>
        <time>2011-07-29T11:32:10Z</time>
      </trkpt>
      <trkpt lat="43.09339" lon="6.16387">
        <ele>1</ele>
        <time>2011-07-29T11:32:20Z</time>
      </trkpt>
      <trkpt lat="43.09379" lon="6.16422">
        <ele>0.983813</ele>
        <time>2011-07-29T11:32:29Z</time>
      </trkpt>
      <trkpt lat="43.09416" lon="6.16459">
        <ele>1</ele>
        <time>2011-07-29T11:32:39Z</time>
      </trkpt>
      <trkpt lat="43.09457" lon="6.16498">
        <ele>0.898075</ele>
        <time>2011-07-29T11:32:49Z</time>
      </trkpt>
      <trkpt lat="43.09497" lon="6.16539">
        <ele>0.997375</ele>
        <time>2011-07-29T11:32:59Z</time>
      </trkpt>
      <trkpt lat="43.09536" lon="6.16569">
        <ele>1</ele>
        <time>2011-07-29T11:33:10Z</time>
      </trkpt>
      <trkpt lat="43.09574" lon="6.16606">
        <ele>0.98805</ele>
        <time>2011-07-29T11:33:20Z</time>
      </trkpt>
      <trkpt lat="43.09614" lon="6.16646">
        <ele>1</ele>
        <time>2011-07-29T11:33:29Z</time>
      </trkpt>
      <trkpt lat="43.09651" lon="6.16684">
        <ele>0.834456</ele>
        <time>2011-07-29T11:33:38Z</time>
      </trkpt>
      <trkpt lat="43.09679" lon="6.16695">
        <ele>0.933203</ele>
        <time>2011-07-29T11:34:01Z</time>
      </trkpt>
      <trkpt lat="43.0972" lon="6.16735">
        <ele>1</ele>
        <time>2011-07-29T11:34:11Z</time>
      </trkpt>
      <trkpt lat="43.09756" lon="6.1677">
        <ele>0.792816</ele>
        <time>2011-07-29T11:34:20Z</time>
      </trkpt>
      <trkpt lat="43.09795" lon="6.16812">
        <ele>0.928891</ele>
        <time>2011-07-29T11:34:31Z</time>
      </trkpt>
      <trkpt lat="43.09835" lon="6.16851">
        <ele>1</ele>
        <time>2011-07-29T11:34:41Z</time>
      </trkpt>
      <trkpt lat="43.09874" lon="6.16889">
        <ele>0.793238</ele>
        <time>2011-07-29T11:34:50Z</time>
      </trkpt>
      <trkpt lat="43.09912" lon="6.16925">
        <ele>1</ele>
        <time>2011-07-29T11:34:58Z</time>
      </trkpt>
      <trkpt lat="43.09952" lon="6.16965">
        <ele>1</ele>
        <time>2011-07-29T11:35:06Z</time>
      </trkpt>
      <trkpt lat="43.09992" lon="6.17004">
        <ele>0.948681</ele>
        <time>2011-07-29T11:35:14Z</time>
      </trkpt>
      <trkpt lat="43.10028" lon="6.17042">
        <ele>0.913031</ele>
        <time>2011-07-29T11:35:23Z</time>
      </trkpt>
      <trkpt lat="43.10067" lon="6.17082">
        <ele>0.943012</ele>
        <time>2011-07-29T11:35:34Z</time>
      </trkpt>
      <trkpt lat="43.10107" lon="6.17122">
        <ele>1</ele>
        <time>2011-07-29T11:35:44Z</time>
      </trkpt>
      <trkpt lat="43.10143" lon="6.1716">
        <ele>1</ele>
        <time>2011-07-29T11:35:53Z</time>
      </trkpt>
      <trkpt lat="43.10182" lon="6.17198">
        <ele>1</ele>
        <time>2011-07-29T11:36:03Z</time>
      </trkpt>
      <trkpt lat="43.10221" lon="6.17238">
        <ele>1</ele>
        <time>2011-07-29T11:36:17Z</time>
      </trkpt>
      <trkpt lat="43.10261" lon="6.17277">
        <ele>1</ele>
        <time>2011-07-29T11:36:26Z</time>
      </trkpt>
      <trkpt lat="43.103" lon="6.17316">
        <ele>1</ele>
        <time>2011-07-29T11:36:34Z</time>
      </trkpt>
      <trkpt lat="43.10338" lon="6.17353">
        <ele>1</ele>
        <time>2011-07-29T11:36:43Z</time>
      </trkpt>
      <trkpt lat="43.10377" lon="6.17392">
        <ele>1</ele>
        <time>2011-07-29T11:36:54Z</time>
      </trkpt>
      <trkpt lat="43.10412" lon="6.17425">
        <ele>1</ele>
        <time>2011-07-29T11:37:04Z</time>
      </trkpt>
      <trkpt lat="43.10452" lon="6.17466">
        <ele>1</ele>
        <time>2011-07-29T11:37:16Z</time>
      </trkpt>
      <trkpt lat="43.10488" lon="6.17502">
        <ele>1</ele>
        <time>2011-07-29T11:37:29Z</time>
      </trkpt>
      <trkpt lat="43.10526" lon="6.17543">
        <ele>1</ele>
        <time>2011-07-29T11:37:39Z</time>
      </trkpt>
      <trkpt lat="43.10568" lon="6.17568">
        <ele>1</ele>
        <time>2011-07-29T11:37:50Z</time>
      </trkpt>
      <trkpt lat="43.10594" lon="6.17613">
        <ele>1</ele>
        <time>2011-07-29T11:38:27Z</time>
      </trkpt>
      <trkpt lat="43.10632" lon="6.17652">
        <ele>1</ele>
        <time>2011-07-29T11:38:40Z</time>
      </trkpt>
      <trkpt lat="43.1067" lon="6.17694">
        <ele>1</ele>
        <time>2011-07-29T11:38:50Z</time>
      </trkpt>
      <trkpt lat="43.10707" lon="6.17737">
        <ele>1</ele>
        <time>2011-07-29T11:38:59Z</time>
      </trkpt>
      <trkpt lat="43.10738" lon="6.17783">
        <ele>1</ele>
        <time>2011-07-29T11:39:10Z</time>
      </trkpt>
      <trkpt lat="43.10769" lon="6.17831">
        <ele>1</ele>
        <time>2011-07-29T11:39:20Z</time>
      </trkpt>
      <trkpt lat="43.10802" lon="6.17886">
        <ele>1</ele>
        <time>2011-07-29T11:39:28Z</time>
      </trkpt>
      <trkpt lat="43.10828" lon="6.17942">
        <ele>1</ele>
        <time>2011-07-29T11:39:36Z</time>
      </trkpt>
      <trkpt lat="43.10857" lon="6.17997">
        <ele>1</ele>
        <time>2011-07-29T11:39:45Z</time>
      </trkpt>
      <trkpt lat="43.10885" lon="6.18053">
        <ele>1</ele>
        <time>2011-07-29T11:39:54Z</time>
      </trkpt>
      <trkpt lat="43.10913" lon="6.1811">
        <ele>1</ele>
        <time>2011-07-29T11:40:03Z</time>
      </trkpt>
      <trkpt lat="43.10942" lon="6.1816">
        <ele>1</ele>
        <time>2011-07-29T11:40:14Z</time>
      </trkpt>
      <trkpt lat="43.10969" lon="6.18218">
        <ele>1</ele>
        <time>2011-07-29T11:40:25Z</time>
      </trkpt>
      <trkpt lat="43.10994" lon="6.18269">
        <ele>1</ele>
        <time>2011-07-29T11:40:34Z</time>
      </trkpt>
      <trkpt lat="43.11023" lon="6.18326">
        <ele>1</ele>
        <time>2011-07-29T11:40:43Z</time>
      </trkpt>
      <trkpt lat="43.1105" lon="6.18378">
        <ele>1</ele>
        <time>2011-07-29T11:40:51Z</time>
      </trkpt>
      <trkpt lat="43.11076" lon="6.18429">
        <ele>1</ele>
        <time>2011-07-29T11:40:59Z</time>
      </trkpt>
      <trkpt lat="43.111" lon="6.1848">
        <ele>1</ele>
        <time>2011-07-29T11:41:08Z</time>
      </trkpt>
      <trkpt lat="43.11127" lon="6.18531">
        <ele>1.465</ele>
        <time>2011-07-29T11:41:17Z</time>
      </trkpt>
      <trkpt lat="43.11152" lon="6.18584">
        <ele>1.515381</ele>
        <time>2011-07-29T11:41:27Z</time>
      </trkpt>
      <trkpt lat="43.1118" lon="6.18639">
        <ele>1.74</ele>
        <time>2011-07-29T11:41:38Z</time>
      </trkpt>
      <trkpt lat="43.11206" lon="6.1869">
        <ele>1.876484</ele>
        <time>2011-07-29T11:41:46Z</time>
      </trkpt>
      <trkpt lat="43.11232" lon="6.18742">
        <ele>1.9825</ele>
        <time>2011-07-29T11:41:54Z</time>
      </trkpt>
      <trkpt lat="43.11259" lon="6.18794">
        <ele>2</ele>
        <time>2011-07-29T11:42:02Z</time>
      </trkpt>
      <trkpt lat="43.11286" lon="6.18849">
        <ele>2</ele>
        <time>2011-07-29T11:42:10Z</time>
      </trkpt>
      <trkpt lat="43.11314" lon="6.189">
        <ele>1.967419</ele>
        <time>2011-07-29T11:42:19Z</time>
      </trkpt>
      <trkpt lat="43.11333" lon="6.18885">
        <ele>2</ele>
        <time>2011-07-29T11:42:42Z</time>
      </trkpt>
      <trkpt lat="43.11353" lon="6.18829">
        <ele>2</ele>
        <time>2011-07-29T11:42:52Z</time>
      </trkpt>
      <trkpt lat="43.11375" lon="6.18769">
        <ele>2</ele>
        <time>2011-07-29T11:43:01Z</time>
      </trkpt>
      <trkpt lat="43.11403" lon="6.18714">
        <ele>2</ele>
        <time>2011-07-29T11:43:09Z</time>
      </trkpt>
      <trkpt lat="43.11435" lon="6.18663">
        <ele>2.712319</ele>
        <time>2011-07-29T11:43:17Z</time>
      </trkpt>
      <trkpt lat="43.11469" lon="6.18615">
        <ele>3</ele>
        <time>2011-07-29T11:43:27Z</time>
      </trkpt>
      <trkpt lat="43.115" lon="6.18566">
        <ele>3</ele>
        <time>2011-07-29T11:44:04Z</time>
      </trkpt>
      <trkpt lat="43.11533" lon="6.18522">
        <ele>3.433266</ele>
        <time>2011-07-29T11:44:18Z</time>
      </trkpt>
      <trkpt lat="43.11567" lon="6.18472">
        <ele>4</ele>
        <time>2011-07-29T11:44:29Z</time>
      </trkpt>
      <trkpt lat="43.116" lon="6.18422">
        <ele>4</ele>
        <time>2011-07-29T11:44:39Z</time>
      </trkpt>
      <trkpt lat="43.11633" lon="6.18375">
        <ele>4</ele>
        <time>2011-07-29T11:44:48Z</time>
      </trkpt>
      <trkpt lat="43.11669" lon="6.1833">
        <ele>4</ele>
        <time>2011-07-29T11:44:57Z</time>
      </trkpt>
      <trkpt lat="43.11709" lon="6.18295">
        <ele>4.176344</ele>
        <time>2011-07-29T11:45:07Z</time>
      </trkpt>
      <trkpt lat="43.11748" lon="6.18258">
        <ele>5</ele>
        <time>2011-07-29T11:45:17Z</time>
      </trkpt>
      <trkpt lat="43.11783" lon="6.18218">
        <ele>5</ele>
        <time>2011-07-29T11:45:26Z</time>
      </trkpt>
      <trkpt lat="43.11811" lon="6.1817">
        <ele>5</ele>
        <time>2011-07-29T11:45:37Z</time>
      </trkpt>
      <trkpt lat="43.11845" lon="6.18126">
        <ele>5</ele>
        <time>2011-07-29T11:45:49Z</time>
      </trkpt>
      <trkpt lat="43.11887" lon="6.1809">
        <ele>5.0225</ele>
        <time>2011-07-29T11:46:00Z</time>
      </trkpt>
      <trkpt lat="43.11928" lon="6.18062">
        <ele>5.915</ele>
        <time>2011-07-29T11:46:10Z</time>
      </trkpt>
      <trkpt lat="43.11964" lon="6.18018">
        <ele>6</ele>
        <time>2011-07-29T11:46:20Z</time>
      </trkpt>
      <trkpt lat="43.11998" lon="6.1797">
        <ele>6</ele>
        <time>2011-07-29T11:46:30Z</time>
      </trkpt>
      <trkpt lat="43.12025" lon="6.17912">
        <ele>6</ele>
        <time>2011-07-29T11:46:40Z</time>
      </trkpt>
      <trkpt lat="43.12047" lon="6.17858">
        <ele>6.3875</ele>
        <time>2011-07-29T11:46:50Z</time>
      </trkpt>
      <trkpt lat="43.12069" lon="6.17802">
        <ele>6.8475</ele>
        <time>2011-07-29T11:47:02Z</time>
      </trkpt>
      <trkpt lat="43.12101" lon="6.17756">
        <ele>7</ele>
        <time>2011-07-29T11:47:13Z</time>
      </trkpt>
      <trkpt lat="43.12141" lon="6.17715">
        <ele>7</ele>
        <time>2011-07-29T11:47:23Z</time>
      </trkpt>
      <trkpt lat="43.12177" lon="6.17674">
        <ele>7</ele>
        <time>2011-07-29T11:47:32Z</time>
      </trkpt>
      <trkpt lat="43.12213" lon="6.17631">
        <ele>7</ele>
        <time>2011-07-29T11:47:41Z</time>
      </trkpt>
      <trkpt lat="43.12243" lon="6.17583">
        <ele>7</ele>
        <time>2011-07-29T11:47:51Z</time>
      </trkpt>
      <trkpt lat="43.12277" lon="6.17529">
        <ele>7.027887</ele>
        <time>2011-07-29T11:48:01Z</time>
      </trkpt>
      <trkpt lat="43.12289" lon="6.17467">
        <ele>7</ele>
        <time>2011-07-29T11:48:10Z</time>
      </trkpt>
      <trkpt lat="43.12298" lon="6.17405">
        <ele>7</ele>
        <time>2011-07-29T11:48:18Z</time>
      </trkpt>
      <trkpt lat="43.12309" lon="6.17343">
        <ele>7</ele>
        <time>2011-07-29T11:48:26Z</time>
      </trkpt>
      <trkpt lat="43.12318" lon="6.17282">
        <ele>7</ele>
        <time>2011-07-29T11:48:36Z</time>
      </trkpt>
      <trkpt lat="43.12329" lon="6.17226">
        <ele>7.1625</ele>
        <time>2011-07-29T11:48:48Z</time>
      </trkpt>
      <trkpt lat="43.12362" lon="6.17177">
        <ele>7.258637</ele>
        <time>2011-07-29T11:48:59Z</time>
      </trkpt>
      <trkpt lat="43.12404" lon="6.1714">
        <ele>7.7675</ele>
        <time>2011-07-29T11:49:09Z</time>
      </trkpt>
      <trkpt lat="43.12447" lon="6.17108">
        <ele>8</ele>
        <time>2011-07-29T11:49:17Z</time>
      </trkpt>
      <trkpt lat="43.1249" lon="6.171">
        <ele>8</ele>
        <time>2011-07-29T11:49:33Z</time>
      </trkpt>
      <trkpt lat="43.12538" lon="6.1711">
        <ele>8</ele>
        <time>2011-07-29T11:49:45Z</time>
      </trkpt>
      <trkpt lat="43.12588" lon="6.17121">
        <ele>8</ele>
        <time>2011-07-29T11:49:55Z</time>
      </trkpt>
      <trkpt lat="43.12633" lon="6.17104">
        <ele>8</ele>
        <time>2011-07-29T11:50:04Z</time>
      </trkpt>
      <trkpt lat="43.12671" lon="6.17064">
        <ele>8</ele>
        <time>2011-07-29T11:50:13Z</time>
      </trkpt>
      <trkpt lat="43.12704" lon="6.17015">
        <ele>8</ele>
        <time>2011-07-29T11:50:21Z</time>
      </trkpt>
      <trkpt lat="43.12738" lon="6.16967">
        <ele>8.0575</ele>
        <time>2011-07-29T11:50:29Z</time>
      </trkpt>
      <trkpt lat="43.1277" lon="6.1692">
        <ele>8.4761</ele>
        <time>2011-07-29T11:50:38Z</time>
      </trkpt>
      <trkpt lat="43.12801" lon="6.16877">
        <ele>8.362797</ele>
        <time>2011-07-29T11:50:48Z</time>
      </trkpt>
      <trkpt lat="43.12831" lon="6.16827">
        <ele>8.0938</ele>
        <time>2011-07-29T11:50:58Z</time>
      </trkpt>
      <trkpt lat="43.12857" lon="6.16773">
        <ele>8.094259</ele>
        <time>2011-07-29T11:51:07Z</time>
      </trkpt>
      <trkpt lat="43.12891" lon="6.1672">
        <ele>8.069062</ele>
        <time>2011-07-29T11:51:16Z</time>
      </trkpt>
      <trkpt lat="43.12935" lon="6.16691">
        <ele>8</ele>
        <time>2011-07-29T11:51:25Z</time>
      </trkpt>
      <trkpt lat="43.12978" lon="6.16664">
        <ele>8.0434</ele>
        <time>2011-07-29T11:51:36Z</time>
      </trkpt>
      <trkpt lat="43.13021" lon="6.1663">
        <ele>8.07</ele>
        <time>2011-07-29T11:51:47Z</time>
      </trkpt>
      <trkpt lat="43.1304" lon="6.16577">
        <ele>8.35945</ele>
        <time>2011-07-29T11:51:58Z</time>
      </trkpt>
      <trkpt lat="43.13039" lon="6.16523">
        <ele>8</ele>
        <time>2011-07-29T11:52:11Z</time>
      </trkpt>
      <trkpt lat="43.13058" lon="6.16588">
        <ele>8.82175</ele>
        <time>2011-07-29T11:52:25Z</time>
      </trkpt>
      <trkpt lat="43.13065" lon="6.16651">
        <ele>9</ele>
        <time>2011-07-29T11:52:40Z</time>
      </trkpt>
      <trkpt lat="43.13079" lon="6.16691">
        <ele>9</ele>
        <time>2011-07-29T11:53:17Z</time>
      </trkpt>
      <trkpt lat="43.13053" lon="6.16748">
        <ele>9</ele>
        <time>2011-07-29T11:53:30Z</time>
      </trkpt>
      <trkpt lat="43.13034" lon="6.16809">
        <ele>9</ele>
        <time>2011-07-29T11:53:41Z</time>
      </trkpt>
      <trkpt lat="43.13025" lon="6.16861">
        <ele>9</ele>
        <time>2011-07-29T11:54:16Z</time>
      </trkpt>
      <trkpt lat="43.13043" lon="6.1692">
        <ele>9</ele>
        <time>2011-07-29T11:54:26Z</time>
      </trkpt>
      <trkpt lat="43.13077" lon="6.16964">
        <ele>8.4125</ele>
        <time>2011-07-29T11:54:37Z</time>
      </trkpt>
      <trkpt lat="43.13114" lon="6.17008">
        <ele>8</ele>
        <time>2011-07-29T11:54:46Z</time>
      </trkpt>
      <trkpt lat="43.13149" lon="6.17047">
        <ele>8</ele>
        <time>2011-07-29T11:54:55Z</time>
      </trkpt>
      <trkpt lat="43.13185" lon="6.17095">
        <ele>8.0901</ele>
        <time>2011-07-29T11:55:05Z</time>
      </trkpt>
      <trkpt lat="43.13202" lon="6.17153">
        <ele>9.02625</ele>
        <time>2011-07-29T11:55:16Z</time>
      </trkpt>
      <trkpt lat="43.13186" lon="6.17218">
        <ele>9.468631</ele>
        <time>2011-07-29T11:55:28Z</time>
      </trkpt>
      <trkpt lat="43.13167" lon="6.17279">
        <ele>9.91625</ele>
        <time>2011-07-29T11:55:39Z</time>
      </trkpt>
      <trkpt lat="43.1315" lon="6.17337">
        <ele>10.495</ele>
        <time>2011-07-29T11:55:50Z</time>
      </trkpt>
      <trkpt lat="43.1313" lon="6.17397">
        <ele>10.1575</ele>
        <time>2011-07-29T11:56:02Z</time>
      </trkpt>
      <trkpt lat="43.13111" lon="6.17461">
        <ele>10.7375</ele>
        <time>2011-07-29T11:56:14Z</time>
      </trkpt>
      <trkpt lat="43.13092" lon="6.17517">
        <ele>10.41125</ele>
        <time>2011-07-29T11:56:24Z</time>
      </trkpt>
      <trkpt lat="43.13073" lon="6.17576">
        <ele>11.005</ele>
        <time>2011-07-29T11:56:34Z</time>
      </trkpt>
      <trkpt lat="43.13054" lon="6.17636">
        <ele>11.6025</ele>
        <time>2011-07-29T11:56:46Z</time>
      </trkpt>
      <trkpt lat="43.13031" lon="6.17689">
        <ele>11.1475</ele>
        <time>2011-07-29T11:56:55Z</time>
      </trkpt>
      <trkpt lat="43.13009" lon="6.17743">
        <ele>11.50125</ele>
        <time>2011-07-29T11:57:03Z</time>
      </trkpt>
      <trkpt lat="43.12987" lon="6.17799">
        <ele>11.2375</ele>
        <time>2011-07-29T11:57:13Z</time>
      </trkpt>
      <trkpt lat="43.12968" lon="6.17856">
        <ele>11.602025</ele>
        <time>2011-07-29T11:57:23Z</time>
      </trkpt>
      <trkpt lat="43.12952" lon="6.17919">
        <ele>11.5575</ele>
        <time>2011-07-29T11:57:32Z</time>
      </trkpt>
      <trkpt lat="43.12938" lon="6.1798">
        <ele>11.305</ele>
        <time>2011-07-29T11:57:40Z</time>
      </trkpt>
      <trkpt lat="43.12926" lon="6.18045">
        <ele>11.0775</ele>
        <time>2011-07-29T11:57:49Z</time>
      </trkpt>
      <trkpt lat="43.12915" lon="6.1811">
        <ele>10.9</ele>
        <time>2011-07-29T11:57:57Z</time>
      </trkpt>
      <trkpt lat="43.12904" lon="6.18175">
        <ele>10.705</ele>
        <time>2011-07-29T11:58:05Z</time>
      </trkpt>
      <trkpt lat="43.12893" lon="6.18234">
        <ele>10.505</ele>
        <time>2011-07-29T11:58:13Z</time>
      </trkpt>
      <trkpt lat="43.1288" lon="6.183">
        <ele>10.24875</ele>
        <time>2011-07-29T11:58:22Z</time>
      </trkpt>
      <trkpt lat="43.1287" lon="6.18364">
        <ele>9.0875</ele>
        <time>2011-07-29T11:58:31Z</time>
      </trkpt>
      <trkpt lat="43.12857" lon="6.18425">
        <ele>8.855</ele>
        <time>2011-07-29T11:58:40Z</time>
      </trkpt>
      <trkpt lat="43.12839" lon="6.1849">
        <ele>8.51</ele>
        <time>2011-07-29T11:58:48Z</time>
      </trkpt>
      <trkpt lat="43.12819" lon="6.1855">
        <ele>8.2725</ele>
        <time>2011-07-29T11:58:56Z</time>
      </trkpt>
      <trkpt lat="43.12797" lon="6.18609">
        <ele>8.778278</ele>
        <time>2011-07-29T11:59:06Z</time>
      </trkpt>
      <trkpt lat="43.1278" lon="6.18666">
        <ele>8.665</ele>
        <time>2011-07-29T11:59:15Z</time>
      </trkpt>
      <trkpt lat="43.12767" lon="6.18726">
        <ele>8.195</ele>
        <time>2011-07-29T11:59:23Z</time>
      </trkpt>
      <trkpt lat="43.12755" lon="6.18794">
        <ele>7.8875</ele>
        <time>2011-07-29T11:59:31Z</time>
      </trkpt>
      <trkpt lat="43.12745" lon="6.18854">
        <ele>7.7125</ele>
        <time>2011-07-29T11:59:38Z</time>
      </trkpt>
      <trkpt lat="43.12734" lon="6.18917">
        <ele>7.525</ele>
        <time>2011-07-29T11:59:46Z</time>
      </trkpt>
      <trkpt lat="43.12722" lon="6.18978">
        <ele>7.232181</ele>
        <time>2011-07-29T11:59:55Z</time>
      </trkpt>
      <trkpt lat="43.12703" lon="6.19036">
        <ele>6.7325</ele>
        <time>2011-07-29T12:00:04Z</time>
      </trkpt>
      <trkpt lat="43.12657" lon="6.19015">
        <ele>5.875</ele>
        <time>2011-07-29T12:00:15Z</time>
      </trkpt>
      <trkpt lat="43.12614" lon="6.18987">
        <ele>4.843156</ele>
        <time>2011-07-29T12:00:26Z</time>
      </trkpt>
      <trkpt lat="43.1257" lon="6.18972">
        <ele>3.60875</ele>
        <time>2011-07-29T12:00:38Z</time>
      </trkpt>
      <trkpt lat="43.12526" lon="6.18956">
        <ele>2.8275</ele>
        <time>2011-07-29T12:00:50Z</time>
      </trkpt>
      <trkpt lat="43.12502" lon="6.18934">
        <ele>2.87</ele>
        <time>2011-07-29T12:01:27Z</time>
      </trkpt>
      <trkpt lat="43.12472" lon="6.1891">
        <ele>3.21</ele>
        <time>2011-07-29T12:01:49Z</time>
      </trkpt>
      <trkpt lat="43.12437" lon="6.18892">
        <ele>3.622819</ele>
        <time>2011-07-29T12:01:59Z</time>
      </trkpt>
      <trkpt lat="43.12464" lon="6.18949">
        <ele>1.9475</ele>
        <time>2011-07-29T12:02:14Z</time>
      </trkpt>
      <trkpt lat="43.12499" lon="6.1899">
        <ele>1.6875</ele>
        <time>2011-07-29T12:02:25Z</time>
      </trkpt>
      <trkpt lat="43.12529" lon="6.19039">
        <ele>1.624875</ele>
        <time>2011-07-29T12:02:35Z</time>
      </trkpt>
      <trkpt lat="43.12537" lon="6.191">
        <ele>1.4553</ele>
        <time>2011-07-29T12:02:49Z</time>
      </trkpt>
      <trkpt lat="43.12533" lon="6.19165">
        <ele>1.255</ele>
        <time>2011-07-29T12:03:02Z</time>
      </trkpt>
      <trkpt lat="43.12529" lon="6.19229">
        <ele>1.205</ele>
        <time>2011-07-29T12:03:12Z</time>
      </trkpt>
      <trkpt lat="43.12524" lon="6.19294">
        <ele>1.15</ele>
        <time>2011-07-29T12:03:21Z</time>
      </trkpt>
      <trkpt lat="43.12522" lon="6.19357">
        <ele>1.1475</ele>
        <time>2011-07-29T12:03:30Z</time>
      </trkpt>
      <trkpt lat="43.12523" lon="6.19423">
        <ele>1.2325</ele>
        <time>2011-07-29T12:03:40Z</time>
      </trkpt>
      <trkpt lat="43.12523" lon="6.19483">
        <ele>1.265</ele>
        <time>2011-07-29T12:03:50Z</time>
      </trkpt>
      <trkpt lat="43.12527" lon="6.19548">
        <ele>2.15375</ele>
        <time>2011-07-29T12:03:59Z</time>
      </trkpt>
      <trkpt lat="43.12535" lon="6.19615">
        <ele>2.6375</ele>
        <time>2011-07-29T12:04:09Z</time>
      </trkpt>
      <trkpt lat="43.12542" lon="6.19678">
        <ele>2.8475</ele>
        <time>2011-07-29T12:04:19Z</time>
      </trkpt>
      <trkpt lat="43.1255" lon="6.19742">
        <ele>3.0925</ele>
        <time>2011-07-29T12:04:29Z</time>
      </trkpt>
      <trkpt lat="43.1256" lon="6.19806">
        <ele>3.3575</ele>
        <time>2011-07-29T12:04:39Z</time>
      </trkpt>
      <trkpt lat="43.12572" lon="6.1987">
        <ele>3.68</ele>
        <time>2011-07-29T12:04:50Z</time>
      </trkpt>
      <trkpt lat="43.12563" lon="6.19924">
        <ele>3.955434</ele>
        <time>2011-07-29T12:05:01Z</time>
      </trkpt>
      <trkpt lat="43.12568" lon="6.19987">
        <ele>4.36</ele>
        <time>2011-07-29T12:05:11Z</time>
      </trkpt>
      <trkpt lat="43.12593" lon="6.20037">
        <ele>5.2825</ele>
        <time>2011-07-29T12:05:22Z</time>
      </trkpt>
      <trkpt lat="43.12617" lon="6.20092">
        <ele>5.8425</ele>
        <time>2011-07-29T12:05:33Z</time>
      </trkpt>
      <trkpt lat="43.12635" lon="6.20157">
        <ele>6.615</ele>
        <time>2011-07-29T12:05:43Z</time>
      </trkpt>
      <trkpt lat="43.12648" lon="6.2022">
        <ele>6.957938</ele>
        <time>2011-07-29T12:05:53Z</time>
      </trkpt>
      <trkpt lat="43.12662" lon="6.20283">
        <ele>7.02</ele>
        <time>2011-07-29T12:06:04Z</time>
      </trkpt>
      <trkpt lat="43.12666" lon="6.20345">
        <ele>7.1944</ele>
        <time>2011-07-29T12:06:16Z</time>
      </trkpt>
      <trkpt lat="43.12675" lon="6.2041">
        <ele>7.405</ele>
        <time>2011-07-29T12:06:28Z</time>
      </trkpt>
      <trkpt lat="43.12688" lon="6.20474">
        <ele>7.564406</ele>
        <time>2011-07-29T12:06:40Z</time>
      </trkpt>
      <trkpt lat="43.12703" lon="6.20532">
        <ele>7.634538</ele>
        <time>2011-07-29T12:06:52Z</time>
      </trkpt>
      <trkpt lat="43.1271" lon="6.20594">
        <ele>7.65</ele>
        <time>2011-07-29T12:07:04Z</time>
      </trkpt>
      <trkpt lat="43.12722" lon="6.20657">
        <ele>8.28</ele>
        <time>2011-07-29T12:07:16Z</time>
      </trkpt>
      <trkpt lat="43.12733" lon="6.2072">
        <ele>8.908837</ele>
        <time>2011-07-29T12:07:27Z</time>
      </trkpt>
      <trkpt lat="43.12746" lon="6.20786">
        <ele>9.285</ele>
        <time>2011-07-29T12:07:38Z</time>
      </trkpt>
      <trkpt lat="43.12756" lon="6.20851">
        <ele>9.5575</ele>
        <time>2011-07-29T12:07:48Z</time>
      </trkpt>
      <trkpt lat="43.12768" lon="6.20917">
        <ele>9.87</ele>
        <time>2011-07-29T12:07:57Z</time>
      </trkpt>
      <trkpt lat="43.12794" lon="6.20967">
        <ele>10.199819</ele>
        <time>2011-07-29T12:08:08Z</time>
      </trkpt>
      <trkpt lat="43.12807" lon="6.21032">
        <ele>10.66</ele>
        <time>2011-07-29T12:08:19Z</time>
      </trkpt>
      <trkpt lat="43.12821" lon="6.21098">
        <ele>10.661475</ele>
        <time>2011-07-29T12:08:29Z</time>
      </trkpt>
      <trkpt lat="43.12832" lon="6.21162">
        <ele>10.652163</ele>
        <time>2011-07-29T12:08:40Z</time>
      </trkpt>
      <trkpt lat="43.12845" lon="6.21223">
        <ele>10.83</ele>
        <time>2011-07-29T12:08:51Z</time>
      </trkpt>
      <trkpt lat="43.12853" lon="6.21284">
        <ele>11.105</ele>
        <time>2011-07-29T12:09:02Z</time>
      </trkpt>
      <trkpt lat="43.12866" lon="6.21345">
        <ele>11.529906</ele>
        <time>2011-07-29T12:09:12Z</time>
      </trkpt>
      <trkpt lat="43.12878" lon="6.2141">
        <ele>11.512257</ele>
        <time>2011-07-29T12:09:21Z</time>
      </trkpt>
      <trkpt lat="43.1289" lon="6.21476">
        <ele>12.045</ele>
        <time>2011-07-29T12:09:30Z</time>
      </trkpt>
      <trkpt lat="43.12899" lon="6.21541">
        <ele>12.508368</ele>
        <time>2011-07-29T12:09:41Z</time>
      </trkpt>
      <trkpt lat="43.12915" lon="6.21603">
        <ele>13.385</ele>
        <time>2011-07-29T12:09:54Z</time>
      </trkpt>
      <trkpt lat="43.12929" lon="6.21663">
        <ele>14.150494</ele>
        <time>2011-07-29T12:10:07Z</time>
      </trkpt>
      <trkpt lat="43.12944" lon="6.21723">
        <ele>15.019962</ele>
        <time>2011-07-29T12:10:20Z</time>
      </trkpt>
      <trkpt lat="43.12976" lon="6.21757">
        <ele>16.112499</ele>
        <time>2011-07-29T12:10:41Z</time>
      </trkpt>
      <trkpt lat="43.12999" lon="6.21812">
        <ele>16.389006</ele>
        <time>2011-07-29T12:10:55Z</time>
      </trkpt>
      <trkpt lat="43.13032" lon="6.21863">
        <ele>16.616251</ele>
        <time>2011-07-29T12:11:11Z</time>
      </trkpt>
      <trkpt lat="43.13059" lon="6.21913">
        <ele>17.19285</ele>
        <time>2011-07-29T12:11:25Z</time>
      </trkpt>
      <trkpt lat="43.13087" lon="6.21966">
        <ele>18.197247</ele>
        <time>2011-07-29T12:11:38Z</time>
      </trkpt>
      <trkpt lat="43.1312" lon="6.22016">
        <ele>19.8575</ele>
        <time>2011-07-29T12:11:50Z</time>
      </trkpt>
      <trkpt lat="43.13149" lon="6.22063">
        <ele>20.7227</ele>
        <time>2011-07-29T12:12:01Z</time>
      </trkpt>
      <trkpt lat="43.13176" lon="6.22113">
        <ele>20.018265</ele>
        <time>2011-07-29T12:12:14Z</time>
      </trkpt>
      <trkpt lat="43.13208" lon="6.22166">
        <ele>20.6525</ele>
        <time>2011-07-29T12:12:25Z</time>
      </trkpt>
      <trkpt lat="43.1324" lon="6.2221">
        <ele>21.407499</ele>
        <time>2011-07-29T12:12:39Z</time>
      </trkpt>
      <trkpt lat="43.1326" lon="6.22263">
        <ele>21.887501</ele>
        <time>2011-07-29T12:12:50Z</time>
      </trkpt>
      <trkpt lat="43.13289" lon="6.22313">
        <ele>22.584999</ele>
        <time>2011-07-29T12:13:01Z</time>
      </trkpt>
      <trkpt lat="43.13318" lon="6.22362">
        <ele>22.492315</ele>
        <time>2011-07-29T12:13:12Z</time>
      </trkpt>
      <trkpt lat="43.13346" lon="6.22416">
        <ele>22.9375</ele>
        <time>2011-07-29T12:13:22Z</time>
      </trkpt>
      <trkpt lat="43.13376" lon="6.22471">
        <ele>23.25675</ele>
        <time>2011-07-29T12:13:34Z</time>
      </trkpt>
      <trkpt lat="43.13413" lon="6.22512">
        <ele>24.01306</ele>
        <time>2011-07-29T12:13:47Z</time>
      </trkpt>
      <trkpt lat="43.13432" lon="6.22569">
        <ele>24.915281</ele>
        <time>2011-07-29T12:14:01Z</time>
      </trkpt>
      <trkpt lat="43.13465" lon="6.22624">
        <ele>24.20875</ele>
        <time>2011-07-29T12:14:12Z</time>
      </trkpt>
      <trkpt lat="43.13493" lon="6.22677">
        <ele>24.150265</ele>
        <time>2011-07-29T12:14:23Z</time>
      </trkpt>
      <trkpt lat="43.13523" lon="6.22729">
        <ele>23.567499</ele>
        <time>2011-07-29T12:14:35Z</time>
      </trkpt>
      <trkpt lat="43.13554" lon="6.22784">
        <ele>22.69875</ele>
        <time>2011-07-29T12:14:46Z</time>
      </trkpt>
      <trkpt lat="43.13586" lon="6.22838">
        <ele>21.8575</ele>
        <time>2011-07-29T12:14:57Z</time>
      </trkpt>
      <trkpt lat="43.13613" lon="6.22892">
        <ele>20.7631</ele>
        <time>2011-07-29T12:15:08Z</time>
      </trkpt>
      <trkpt lat="43.13629" lon="6.22947">
        <ele>18.5825</ele>
        <time>2011-07-29T12:15:22Z</time>
      </trkpt>
      <trkpt lat="43.13647" lon="6.23008">
        <ele>17.14625</ele>
        <time>2011-07-29T12:15:36Z</time>
      </trkpt>
      <trkpt lat="43.13668" lon="6.23069">
        <ele>17</ele>
        <time>2011-07-29T12:15:47Z</time>
      </trkpt>
      <trkpt lat="43.13688" lon="6.23126">
        <ele>17.105</ele>
        <time>2011-07-29T12:16:03Z</time>
      </trkpt>
      <trkpt lat="43.13709" lon="6.23179">
        <ele>17.615</ele>
        <time>2011-07-29T12:16:19Z</time>
      </trkpt>
      <trkpt lat="43.13711" lon="6.23238">
        <ele>17.7125</ele>
        <time>2011-07-29T12:16:34Z</time>
      </trkpt>
      <trkpt lat="43.13735" lon="6.23291">
        <ele>18.104219</ele>
        <time>2011-07-29T12:16:49Z</time>
      </trkpt>
      <trkpt lat="43.13754" lon="6.23346">
        <ele>19.156</ele>
        <time>2011-07-29T12:17:01Z</time>
      </trkpt>
      <trkpt lat="43.13771" lon="6.23407">
        <ele>21.376249</ele>
        <time>2011-07-29T12:17:17Z</time>
      </trkpt>
      <trkpt lat="43.13794" lon="6.23463">
        <ele>22.842501</ele>
        <time>2011-07-29T12:18:00Z</time>
      </trkpt>
      <trkpt lat="43.13814" lon="6.2352">
        <ele>24.000872</ele>
        <time>2011-07-29T12:18:31Z</time>
      </trkpt>
      <trkpt lat="43.13832" lon="6.2358">
        <ele>24.648001</ele>
        <time>2011-07-29T12:18:51Z</time>
      </trkpt>
      <trkpt lat="43.13851" lon="6.23637">
        <ele>25.122015</ele>
        <time>2011-07-29T12:19:08Z</time>
      </trkpt>
      <trkpt lat="43.13869" lon="6.23694">
        <ele>25.58</ele>
        <time>2011-07-29T12:19:24Z</time>
      </trkpt>
      <trkpt lat="43.13886" lon="6.23735">
        <ele>25.561251</ele>
        <time>2011-07-29T12:20:06Z</time>
      </trkpt>
      <trkpt lat="43.13867" lon="6.23679">
        <ele>25.540001</ele>
        <time>2011-07-29T12:20:20Z</time>
      </trkpt>
      <trkpt lat="43.13856" lon="6.23626">
        <ele>25.164101</ele>
        <time>2011-07-29T12:20:37Z</time>
      </trkpt>
      <trkpt lat="43.1384" lon="6.23616">
        <ele>24.8825</ele>
        <time>2011-07-29T12:36:12Z</time>
      </trkpt>
      <trkpt lat="43.13858" lon="6.23673">
        <ele>25.3375</ele>
        <time>2011-07-29T12:36:29Z</time>
      </trkpt>
      <trkpt lat="43.13874" lon="6.23732">
        <ele>25.3375</ele>
        <time>2011-07-29T12:36:43Z</time>
      </trkpt>
      <trkpt lat="43.13889" lon="6.23777">
        <ele>24.912737</ele>
        <time>2011-07-29T12:37:16Z</time>
      </trkpt>
      <trkpt lat="43.1391" lon="6.23839">
        <ele>24.5375</ele>
        <time>2011-07-29T12:37:31Z</time>
      </trkpt>
      <trkpt lat="43.13945" lon="6.23884">
        <ele>24.556641</ele>
        <time>2011-07-29T12:37:46Z</time>
      </trkpt>
      <trkpt lat="43.13981" lon="6.23926">
        <ele>24.692488</ele>
        <time>2011-07-29T12:38:02Z</time>
      </trkpt>
      <trkpt lat="43.1402" lon="6.23959">
        <ele>25.011812</ele>
        <time>2011-07-29T12:38:16Z</time>
      </trkpt>
      <trkpt lat="43.14054" lon="6.24014">
        <ele>24.961437</ele>
        <time>2011-07-29T12:38:28Z</time>
      </trkpt>
      <trkpt lat="43.14073" lon="6.24085">
        <ele>25.4475</ele>
        <time>2011-07-29T12:38:38Z</time>
      </trkpt>
      <trkpt lat="43.14091" lon="6.24147">
        <ele>25.8925</ele>
        <time>2011-07-29T12:38:48Z</time>
      </trkpt>
      <trkpt lat="43.14108" lon="6.24206">
        <ele>26.262501</ele>
        <time>2011-07-29T12:38:58Z</time>
      </trkpt>
      <trkpt lat="43.14125" lon="6.24266">
        <ele>26.948656</ele>
        <time>2011-07-29T12:39:09Z</time>
      </trkpt>
      <trkpt lat="43.14143" lon="6.24328">
        <ele>27.143263</ele>
        <time>2011-07-29T12:39:21Z</time>
      </trkpt>
      <trkpt lat="43.14161" lon="6.24385">
        <ele>27.65</ele>
        <time>2011-07-29T12:39:33Z</time>
      </trkpt>
      <trkpt lat="43.14177" lon="6.24445">
        <ele>28.066549</ele>
        <time>2011-07-29T12:39:45Z</time>
      </trkpt>
      <trkpt lat="43.14195" lon="6.24507">
        <ele>29.331749</ele>
        <time>2011-07-29T12:39:57Z</time>
      </trkpt>
      <trkpt lat="43.14213" lon="6.24568">
        <ele>29.934999</ele>
        <time>2011-07-29T12:40:08Z</time>
      </trkpt>
      <trkpt lat="43.1423" lon="6.24628">
        <ele>30.3675</ele>
        <time>2011-07-29T12:40:19Z</time>
      </trkpt>
      <trkpt lat="43.14248" lon="6.24687">
        <ele>30.827499</ele>
        <time>2011-07-29T12:40:29Z</time>
      </trkpt>
      <trkpt lat="43.14273" lon="6.24743">
        <ele>31.014999</ele>
        <time>2011-07-29T12:40:39Z</time>
      </trkpt>
      <trkpt lat="43.14308" lon="6.24793">
        <ele>30.875</ele>
        <time>2011-07-29T12:40:48Z</time>
      </trkpt>
      <trkpt lat="43.14345" lon="6.2484">
        <ele>30.299999</ele>
        <time>2011-07-29T12:40:56Z</time>
      </trkpt>
      <trkpt lat="43.14374" lon="6.24893">
        <ele>29.309999</ele>
        <time>2011-07-29T12:41:03Z</time>
      </trkpt>
      <trkpt lat="43.14391" lon="6.24961">
        <ele>26.772501</ele>
        <time>2011-07-29T12:41:11Z</time>
      </trkpt>
      <trkpt lat="43.14397" lon="6.25028">
        <ele>23.332232</ele>
        <time>2011-07-29T12:41:21Z</time>
      </trkpt>
      <trkpt lat="43.14391" lon="6.25094">
        <ele>20.0375</ele>
        <time>2011-07-29T12:41:30Z</time>
      </trkpt>
      <trkpt lat="43.14392" lon="6.25155">
        <ele>22.769863</ele>
        <time>2011-07-29T12:41:39Z</time>
      </trkpt>
      <trkpt lat="43.14401" lon="6.25221">
        <ele>27.095825</ele>
        <time>2011-07-29T12:41:49Z</time>
      </trkpt>
      <trkpt lat="43.14422" lon="6.25281">
        <ele>28.02305</ele>
        <time>2011-07-29T12:41:59Z</time>
      </trkpt>
      <trkpt lat="43.14444" lon="6.25338">
        <ele>28.434999</ele>
        <time>2011-07-29T12:42:11Z</time>
      </trkpt>
      <trkpt lat="43.14464" lon="6.25394">
        <ele>28.1675</ele>
        <time>2011-07-29T12:42:23Z</time>
      </trkpt>
      <trkpt lat="43.14482" lon="6.25451">
        <ele>28.391251</ele>
        <time>2011-07-29T12:42:36Z</time>
      </trkpt>
      <trkpt lat="43.14502" lon="6.25506">
        <ele>28.445</ele>
        <time>2011-07-29T12:42:49Z</time>
      </trkpt>
      <trkpt lat="43.14525" lon="6.25562">
        <ele>29.678749</ele>
        <time>2011-07-29T12:43:02Z</time>
      </trkpt>
      <trkpt lat="43.14543" lon="6.25617">
        <ele>31.910316</ele>
        <time>2011-07-29T12:43:16Z</time>
      </trkpt>
      <trkpt lat="43.14565" lon="6.25673">
        <ele>32.354015</ele>
        <time>2011-07-29T12:43:31Z</time>
      </trkpt>
      <trkpt lat="43.14565" lon="6.25671">
        <ele>32.294064</ele>
        <time>2011-07-29T12:43:48Z</time>
      </trkpt>
      <trkpt lat="43.14534" lon="6.25629">
        <ele>33.259026</ele>
        <time>2011-07-29T12:44:01Z</time>
      </trkpt>
      <trkpt lat="43.14494" lon="6.25654">
        <ele>37.716354</ele>
        <time>2011-07-29T12:44:18Z</time>
      </trkpt>
      <trkpt lat="43.1445" lon="6.25673">
        <ele>42.00248</ele>
        <time>2011-07-29T12:44:36Z</time>
      </trkpt>
      <trkpt lat="43.14404" lon="6.25684">
        <ele>42.4575</ele>
        <time>2011-07-29T12:44:52Z</time>
      </trkpt>
      <trkpt lat="43.14371" lon="6.25724">
        <ele>44.899998</ele>
        <time>2011-07-29T12:45:10Z</time>
      </trkpt>
      <trkpt lat="43.14357" lon="6.25785">
        <ele>48.027279</ele>
        <time>2011-07-29T12:45:31Z</time>
      </trkpt>
      <trkpt lat="43.14361" lon="6.2585">
        <ele>50.257599</ele>
        <time>2011-07-29T12:45:51Z</time>
      </trkpt>
      <trkpt lat="43.14371" lon="6.25908">
        <ele>52.831051</ele>
        <time>2011-07-29T12:46:14Z</time>
      </trkpt>
      <trkpt lat="43.14376" lon="6.2597">
        <ele>55.83429</ele>
        <time>2011-07-29T12:46:35Z</time>
      </trkpt>
      <trkpt lat="43.14391" lon="6.26035">
        <ele>58.369999</ele>
        <time>2011-07-29T12:46:55Z</time>
      </trkpt>
      <trkpt lat="43.14407" lon="6.26099">
        <ele>60.650188</ele>
        <time>2011-07-29T12:47:14Z</time>
      </trkpt>
      <trkpt lat="43.14373" lon="6.26139">
        <ele>60.243843</ele>
        <time>2011-07-29T12:47:30Z</time>
      </trkpt>
      <trkpt lat="43.14332" lon="6.26156">
        <ele>57.791248</ele>
        <time>2011-07-29T12:47:42Z</time>
      </trkpt>
      <trkpt lat="43.14283" lon="6.26173">
        <ele>57.16328</ele>
        <time>2011-07-29T12:47:53Z</time>
      </trkpt>
      <trkpt lat="43.14236" lon="6.26187">
        <ele>58.008671</ele>
        <time>2011-07-29T12:48:09Z</time>
      </trkpt>
      <trkpt lat="43.14188" lon="6.26197">
        <ele>60.142094</ele>
        <time>2011-07-29T12:48:24Z</time>
      </trkpt>
      <trkpt lat="43.14139" lon="6.26207">
        <ele>63.922626</ele>
        <time>2011-07-29T12:48:38Z</time>
      </trkpt>
      <trkpt lat="43.14094" lon="6.26221">
        <ele>64.762848</ele>
        <time>2011-07-29T12:48:55Z</time>
      </trkpt>
      <trkpt lat="43.14048" lon="6.2625">
        <ele>63.397984</ele>
        <time>2011-07-29T12:49:10Z</time>
      </trkpt>
      <trkpt lat="43.14006" lon="6.26276">
        <ele>62.360249</ele>
        <time>2011-07-29T12:49:19Z</time>
      </trkpt>
      <trkpt lat="43.13964" lon="6.26305">
        <ele>61.253437</ele>
        <time>2011-07-29T12:49:30Z</time>
      </trkpt>
      <trkpt lat="43.13939" lon="6.26359">
        <ele>60.919998</ele>
        <time>2011-07-29T12:49:43Z</time>
      </trkpt>
      <trkpt lat="43.13942" lon="6.26422">
        <ele>63.907124</ele>
        <time>2011-07-29T12:49:58Z</time>
      </trkpt>
      <trkpt lat="43.13954" lon="6.26484">
        <ele>66.903748</ele>
        <time>2011-07-29T12:50:12Z</time>
      </trkpt>
      <trkpt lat="43.13967" lon="6.26547">
        <ele>69.338753</ele>
        <time>2011-07-29T12:50:25Z</time>
      </trkpt>
      <trkpt lat="43.13977" lon="6.26607">
        <ele>68.090538</ele>
        <time>2011-07-29T12:50:40Z</time>
      </trkpt>
      <trkpt lat="43.14" lon="6.26658">
        <ele>68.295288</ele>
        <time>2011-07-29T12:50:52Z</time>
      </trkpt>
      <trkpt lat="43.14014" lon="6.2672">
        <ele>64.6688</ele>
        <time>2011-07-29T12:51:03Z</time>
      </trkpt>
      <trkpt lat="43.1401" lon="6.26785">
        <ele>58.410152</ele>
        <time>2011-07-29T12:51:10Z</time>
      </trkpt>
      <trkpt lat="43.13976" lon="6.26832">
        <ele>55.634411</ele>
        <time>2011-07-29T12:51:16Z</time>
      </trkpt>
      <trkpt lat="43.13927" lon="6.26855">
        <ele>53.6903</ele>
        <time>2011-07-29T12:51:22Z</time>
      </trkpt>
      <trkpt lat="43.13878" lon="6.26881">
        <ele>49.548752</ele>
        <time>2011-07-29T12:51:28Z</time>
      </trkpt>
      <trkpt lat="43.13832" lon="6.26906">
        <ele>45.79763</ele>
        <time>2011-07-29T12:51:34Z</time>
      </trkpt>
      <trkpt lat="43.13789" lon="6.26929">
        <ele>45.204414</ele>
        <time>2011-07-29T12:51:40Z</time>
      </trkpt>
      <trkpt lat="43.1375" lon="6.26961">
        <ele>44.867336</ele>
        <time>2011-07-29T12:51:47Z</time>
      </trkpt>
      <trkpt lat="43.13711" lon="6.26993">
        <ele>43.745625</ele>
        <time>2011-07-29T12:51:55Z</time>
      </trkpt>
      <trkpt lat="43.13667" lon="6.27014">
        <ele>42.05875</ele>
        <time>2011-07-29T12:52:02Z</time>
      </trkpt>
      <trkpt lat="43.13628" lon="6.27052">
        <ele>40.833752</ele>
        <time>2011-07-29T12:52:09Z</time>
      </trkpt>
      <trkpt lat="43.13591" lon="6.2709">
        <ele>40.307098</ele>
        <time>2011-07-29T12:52:15Z</time>
      </trkpt>
      <trkpt lat="43.13552" lon="6.27122">
        <ele>39.576252</ele>
        <time>2011-07-29T12:52:21Z</time>
      </trkpt>
      <trkpt lat="43.13509" lon="6.27154">
        <ele>38.782501</ele>
        <time>2011-07-29T12:52:28Z</time>
      </trkpt>
      <trkpt lat="43.1346" lon="6.2716">
        <ele>36.932499</ele>
        <time>2011-07-29T12:52:35Z</time>
      </trkpt>
      <trkpt lat="43.1341" lon="6.27162">
        <ele>33.666901</ele>
        <time>2011-07-29T12:52:42Z</time>
      </trkpt>
      <trkpt lat="43.13366" lon="6.27179">
        <ele>30.665953</ele>
        <time>2011-07-29T12:52:48Z</time>
      </trkpt>
      <trkpt lat="43.13348" lon="6.27243">
        <ele>28.651251</ele>
        <time>2011-07-29T12:52:54Z</time>
      </trkpt>
      <trkpt lat="43.13302" lon="6.27263">
        <ele>26.370001</ele>
        <time>2011-07-29T12:53:02Z</time>
      </trkpt>
      <trkpt lat="43.13256" lon="6.27266">
        <ele>25.23625</ele>
        <time>2011-07-29T12:53:10Z</time>
      </trkpt>
      <trkpt lat="43.1321" lon="6.27272">
        <ele>24.200399</ele>
        <time>2011-07-29T12:53:20Z</time>
      </trkpt>
      <trkpt lat="43.13164" lon="6.27277">
        <ele>23.83</ele>
        <time>2011-07-29T12:53:29Z</time>
      </trkpt>
      <trkpt lat="43.13117" lon="6.27272">
        <ele>22.77</ele>
        <time>2011-07-29T12:53:37Z</time>
      </trkpt>
      <trkpt lat="43.13069" lon="6.27264">
        <ele>21.761875</ele>
        <time>2011-07-29T12:53:47Z</time>
      </trkpt>
      <trkpt lat="43.1302" lon="6.2727">
        <ele>21.039366</ele>
        <time>2011-07-29T12:53:59Z</time>
      </trkpt>
      <trkpt lat="43.12979" lon="6.27288">
        <ele>20.647547</ele>
        <time>2011-07-29T12:54:12Z</time>
      </trkpt>
      <trkpt lat="43.12931" lon="6.27303">
        <ele>19.834999</ele>
        <time>2011-07-29T12:54:21Z</time>
      </trkpt>
      <trkpt lat="43.12885" lon="6.27312">
        <ele>19.440001</ele>
        <time>2011-07-29T12:54:28Z</time>
      </trkpt>
      <trkpt lat="43.1285" lon="6.27354">
        <ele>16.395613</ele>
        <time>2011-07-29T12:54:34Z</time>
      </trkpt>
      <trkpt lat="43.12825" lon="6.27415">
        <ele>11.422582</ele>
        <time>2011-07-29T12:54:40Z</time>
      </trkpt>
      <trkpt lat="43.12796" lon="6.27464">
        <ele>8.45875</ele>
        <time>2011-07-29T12:54:46Z</time>
      </trkpt>
      <trkpt lat="43.12769" lon="6.27515">
        <ele>7.235</ele>
        <time>2011-07-29T12:54:54Z</time>
      </trkpt>
      <trkpt lat="43.12742" lon="6.27571">
        <ele>7.31</ele>
        <time>2011-07-29T12:55:02Z</time>
      </trkpt>
      <trkpt lat="43.1272" lon="6.2763">
        <ele>9.321281</ele>
        <time>2011-07-29T12:55:13Z</time>
      </trkpt>
      <trkpt lat="43.127" lon="6.27693">
        <ele>11.2175</ele>
        <time>2011-07-29T12:55:26Z</time>
      </trkpt>
      <trkpt lat="43.12684" lon="6.27753">
        <ele>12.895</ele>
        <time>2011-07-29T12:55:38Z</time>
      </trkpt>
      <trkpt lat="43.12658" lon="6.27809">
        <ele>14.14625</ele>
        <time>2011-07-29T12:55:49Z</time>
      </trkpt>
      <trkpt lat="43.12634" lon="6.27864">
        <ele>15.023934</ele>
        <time>2011-07-29T12:56:00Z</time>
      </trkpt>
      <trkpt lat="43.12607" lon="6.27912">
        <ele>15.006413</ele>
        <time>2011-07-29T12:56:47Z</time>
      </trkpt>
      <trkpt lat="43.1258" lon="6.27965">
        <ele>15.3015</ele>
        <time>2011-07-29T12:57:02Z</time>
      </trkpt>
      <trkpt lat="43.12557" lon="6.28023">
        <ele>16.336876</ele>
        <time>2011-07-29T12:57:14Z</time>
      </trkpt>
      <trkpt lat="43.12536" lon="6.28083">
        <ele>16.79125</ele>
        <time>2011-07-29T12:57:25Z</time>
      </trkpt>
      <trkpt lat="43.12533" lon="6.28149">
        <ele>18.237438</ele>
        <time>2011-07-29T12:57:36Z</time>
      </trkpt>
      <trkpt lat="43.12526" lon="6.28216">
        <ele>19.09</ele>
        <time>2011-07-29T12:57:46Z</time>
      </trkpt>
      <trkpt lat="43.1251" lon="6.2828">
        <ele>18.3225</ele>
        <time>2011-07-29T12:57:55Z</time>
      </trkpt>
      <trkpt lat="43.12499" lon="6.28343">
        <ele>17.700001</ele>
        <time>2011-07-29T12:58:03Z</time>
      </trkpt>
      <trkpt lat="43.12489" lon="6.28413">
        <ele>16.737499</ele>
        <time>2011-07-29T12:58:11Z</time>
      </trkpt>
      <trkpt lat="43.12479" lon="6.2848">
        <ele>16.430237</ele>
        <time>2011-07-29T12:58:19Z</time>
      </trkpt>
      <trkpt lat="43.1247" lon="6.28543">
        <ele>16.164576</ele>
        <time>2011-07-29T12:58:28Z</time>
      </trkpt>
      <trkpt lat="43.12462" lon="6.28603">
        <ele>16.975</ele>
        <time>2011-07-29T12:58:38Z</time>
      </trkpt>
      <trkpt lat="43.12457" lon="6.28667">
        <ele>18.4025</ele>
        <time>2011-07-29T12:58:50Z</time>
      </trkpt>
      <trkpt lat="43.12452" lon="6.28731">
        <ele>20.555</ele>
        <time>2011-07-29T12:59:02Z</time>
      </trkpt>
      <trkpt lat="43.12446" lon="6.28793">
        <ele>22.317999</ele>
        <time>2011-07-29T12:59:13Z</time>
      </trkpt>
      <trkpt lat="43.12439" lon="6.28854">
        <ele>23.780563</ele>
        <time>2011-07-29T12:59:24Z</time>
      </trkpt>
      <trkpt lat="43.12413" lon="6.2891">
        <ele>25.865</ele>
        <time>2011-07-29T12:59:35Z</time>
      </trkpt>
      <trkpt lat="43.1238" lon="6.28955">
        <ele>26.976749</ele>
        <time>2011-07-29T12:59:46Z</time>
      </trkpt>
      <trkpt lat="43.12344" lon="6.28997">
        <ele>26.180775</ele>
        <time>2011-07-29T12:59:55Z</time>
      </trkpt>
      <trkpt lat="43.12315" lon="6.29049">
        <ele>24.695</ele>
        <time>2011-07-29T13:00:04Z</time>
      </trkpt>
      <trkpt lat="43.12294" lon="6.2911">
        <ele>23.286812</ele>
        <time>2011-07-29T13:00:14Z</time>
      </trkpt>
      <trkpt lat="43.12285" lon="6.29172">
        <ele>23.17</ele>
        <time>2011-07-29T13:00:27Z</time>
      </trkpt>
      <trkpt lat="43.12285" lon="6.29239">
        <ele>22.275</ele>
        <time>2011-07-29T13:00:35Z</time>
      </trkpt>
      <trkpt lat="43.12278" lon="6.29309">
        <ele>20.038631</ele>
        <time>2011-07-29T13:00:42Z</time>
      </trkpt>
      <trkpt lat="43.12242" lon="6.29356">
        <ele>18.444687</ele>
        <time>2011-07-29T13:00:48Z</time>
      </trkpt>
      <trkpt lat="43.12198" lon="6.29393">
        <ele>18.0896</ele>
        <time>2011-07-29T13:00:54Z</time>
      </trkpt>
      <trkpt lat="43.12159" lon="6.29431">
        <ele>16.831562</ele>
        <time>2011-07-29T13:01:00Z</time>
      </trkpt>
      <trkpt lat="43.12122" lon="6.29475">
        <ele>15.285</ele>
        <time>2011-07-29T13:01:07Z</time>
      </trkpt>
      <trkpt lat="43.12086" lon="6.29518">
        <ele>14.288025</ele>
        <time>2011-07-29T13:01:15Z</time>
      </trkpt>
      <trkpt lat="43.12062" lon="6.29579">
        <ele>14.61375</ele>
        <time>2011-07-29T13:01:24Z</time>
      </trkpt>
      <trkpt lat="43.12042" lon="6.2964">
        <ele>16.131393</ele>
        <time>2011-07-29T13:01:34Z</time>
      </trkpt>
      <trkpt lat="43.12008" lon="6.2969">
        <ele>16.57375</ele>
        <time>2011-07-29T13:01:45Z</time>
      </trkpt>
      <trkpt lat="43.11962" lon="6.29715">
        <ele>16.025</ele>
        <time>2011-07-29T13:01:55Z</time>
      </trkpt>
      <trkpt lat="43.11913" lon="6.29738">
        <ele>16.010313</ele>
        <time>2011-07-29T13:02:05Z</time>
      </trkpt>
      <trkpt lat="43.11867" lon="6.29761">
        <ele>15.02</ele>
        <time>2011-07-29T13:02:15Z</time>
      </trkpt>
      <trkpt lat="43.11837" lon="6.29809">
        <ele>15.60875</ele>
        <time>2011-07-29T13:02:25Z</time>
      </trkpt>
      <trkpt lat="43.11818" lon="6.29869">
        <ele>16.6075</ele>
        <time>2011-07-29T13:02:34Z</time>
      </trkpt>
      <trkpt lat="43.11799" lon="6.29929">
        <ele>17.94875</ele>
        <time>2011-07-29T13:02:44Z</time>
      </trkpt>
      <trkpt lat="43.11781" lon="6.29986">
        <ele>19.258749</ele>
        <time>2011-07-29T13:02:55Z</time>
      </trkpt>
      <trkpt lat="43.11763" lon="6.30045">
        <ele>19.283051</ele>
        <time>2011-07-29T13:03:07Z</time>
      </trkpt>
      <trkpt lat="43.11745" lon="6.30103">
        <ele>20.698093</ele>
        <time>2011-07-29T13:03:20Z</time>
      </trkpt>
      <trkpt lat="43.11726" lon="6.3016">
        <ele>20.712418</ele>
        <time>2011-07-29T13:03:32Z</time>
      </trkpt>
      <trkpt lat="43.11707" lon="6.30223">
        <ele>19.499125</ele>
        <time>2011-07-29T13:03:43Z</time>
      </trkpt>
      <trkpt lat="43.11688" lon="6.30279">
        <ele>19.36375</ele>
        <time>2011-07-29T13:03:56Z</time>
      </trkpt>
      <trkpt lat="43.11669" lon="6.30337">
        <ele>19.597218</ele>
        <time>2011-07-29T13:04:06Z</time>
      </trkpt>
      <trkpt lat="43.11649" lon="6.30393">
        <ele>20.047501</ele>
        <time>2011-07-29T13:04:15Z</time>
      </trkpt>
      <trkpt lat="43.1163" lon="6.3045">
        <ele>20.93375</ele>
        <time>2011-07-29T13:04:24Z</time>
      </trkpt>
      <trkpt lat="43.1161" lon="6.30509">
        <ele>21.701099</ele>
        <time>2011-07-29T13:04:34Z</time>
      </trkpt>
      <trkpt lat="43.11591" lon="6.30566">
        <ele>23.535</ele>
        <time>2011-07-29T13:04:43Z</time>
      </trkpt>
      <trkpt lat="43.11572" lon="6.30623">
        <ele>24.55765</ele>
        <time>2011-07-29T13:04:52Z</time>
      </trkpt>
      <trkpt lat="43.11554" lon="6.3068">
        <ele>24.859144</ele>
        <time>2011-07-29T13:05:02Z</time>
      </trkpt>
      <trkpt lat="43.11535" lon="6.30738">
        <ele>25.32</ele>
        <time>2011-07-29T13:05:12Z</time>
      </trkpt>
      <trkpt lat="43.11515" lon="6.30799">
        <ele>24.254999</ele>
        <time>2011-07-29T13:05:21Z</time>
      </trkpt>
      <trkpt lat="43.11496" lon="6.30857">
        <ele>24.202581</ele>
        <time>2011-07-29T13:05:31Z</time>
      </trkpt>
      <trkpt lat="43.11477" lon="6.30917">
        <ele>25.821352</ele>
        <time>2011-07-29T13:05:43Z</time>
      </trkpt>
      <trkpt lat="43.11507" lon="6.30956">
        <ele>28.997282</ele>
        <time>2011-07-29T13:05:56Z</time>
      </trkpt>
      <trkpt lat="43.1153" lon="6.31006">
        <ele>30.254856</ele>
        <time>2011-07-29T13:06:08Z</time>
      </trkpt>
      <trkpt lat="43.11521" lon="6.31072">
        <ele>26.93</ele>
        <time>2011-07-29T13:06:20Z</time>
      </trkpt>
      <trkpt lat="43.11477" lon="6.3111">
        <ele>25.491213</ele>
        <time>2011-07-29T13:06:26Z</time>
      </trkpt>
      <trkpt lat="43.11436" lon="6.31154">
        <ele>21.834249</ele>
        <time>2011-07-29T13:06:32Z</time>
      </trkpt>
      <trkpt lat="43.11406" lon="6.31214">
        <ele>16.1875</ele>
        <time>2011-07-29T13:06:37Z</time>
      </trkpt>
      <trkpt lat="43.1138" lon="6.3127">
        <ele>12.2588</ele>
        <time>2011-07-29T13:06:41Z</time>
      </trkpt>
      <trkpt lat="43.11353" lon="6.31325">
        <ele>9.321394</ele>
        <time>2011-07-29T13:06:45Z</time>
      </trkpt>
      <trkpt lat="43.11325" lon="6.31385">
        <ele>10.4063</ele>
        <time>2011-07-29T13:06:50Z</time>
      </trkpt>
      <trkpt lat="43.113" lon="6.31437">
        <ele>11.855459</ele>
        <time>2011-07-29T13:06:56Z</time>
      </trkpt>
      <trkpt lat="43.11275" lon="6.31488">
        <ele>12.331294</ele>
        <time>2011-07-29T13:07:05Z</time>
      </trkpt>
      <trkpt lat="43.11249" lon="6.3154">
        <ele>11.96875</ele>
        <time>2011-07-29T13:07:16Z</time>
      </trkpt>
      <trkpt lat="43.11222" lon="6.31599">
        <ele>11.395</ele>
        <time>2011-07-29T13:07:25Z</time>
      </trkpt>
      <trkpt lat="43.11197" lon="6.31655">
        <ele>11.1675</ele>
        <time>2011-07-29T13:07:35Z</time>
      </trkpt>
      <trkpt lat="43.11171" lon="6.31705">
        <ele>12.03625</ele>
        <time>2011-07-29T13:08:38Z</time>
      </trkpt>
      <trkpt lat="43.11147" lon="6.31757">
        <ele>13.964687</ele>
        <time>2011-07-29T13:08:53Z</time>
      </trkpt>
      <trkpt lat="43.11119" lon="6.31811">
        <ele>15.232525</ele>
        <time>2011-07-29T13:09:07Z</time>
      </trkpt>
      <trkpt lat="43.11094" lon="6.31864">
        <ele>16.434587</ele>
        <time>2011-07-29T13:09:23Z</time>
      </trkpt>
      <trkpt lat="43.11069" lon="6.31915">
        <ele>17.582119</ele>
        <time>2011-07-29T13:09:40Z</time>
      </trkpt>
      <trkpt lat="43.11043" lon="6.31965">
        <ele>18.937124</ele>
        <time>2011-07-29T13:09:55Z</time>
      </trkpt>
      <trkpt lat="43.11017" lon="6.32023">
        <ele>20.605</ele>
        <time>2011-07-29T13:10:09Z</time>
      </trkpt>
      <trkpt lat="43.10994" lon="6.32081">
        <ele>22.3519</ele>
        <time>2011-07-29T13:10:27Z</time>
      </trkpt>
      <trkpt lat="43.10972" lon="6.32138">
        <ele>23.243092</ele>
        <time>2011-07-29T13:10:40Z</time>
      </trkpt>
      <trkpt lat="43.10941" lon="6.32184">
        <ele>23.908957</ele>
        <time>2011-07-29T13:10:54Z</time>
      </trkpt>
      <trkpt lat="43.10911" lon="6.32234">
        <ele>24.909357</ele>
        <time>2011-07-29T13:11:10Z</time>
      </trkpt>
      <trkpt lat="43.10894" lon="6.32292">
        <ele>27.363607</ele>
        <time>2011-07-29T13:11:21Z</time>
      </trkpt>
      <trkpt lat="43.10861" lon="6.3234">
        <ele>28.1675</ele>
        <time>2011-07-29T13:11:34Z</time>
      </trkpt>
      <trkpt lat="43.10827" lon="6.32378">
        <ele>28.5625</ele>
        <time>2011-07-29T13:11:47Z</time>
      </trkpt>
      <trkpt lat="43.10792" lon="6.3242">
        <ele>28.535</ele>
        <time>2011-07-29T13:11:58Z</time>
      </trkpt>
      <trkpt lat="43.10757" lon="6.32463">
        <ele>28.506794</ele>
        <time>2011-07-29T13:12:10Z</time>
      </trkpt>
      <trkpt lat="43.10721" lon="6.3251">
        <ele>28.549999</ele>
        <time>2011-07-29T13:12:21Z</time>
      </trkpt>
      <trkpt lat="43.1069" lon="6.32556">
        <ele>28.322544</ele>
        <time>2011-07-29T13:12:32Z</time>
      </trkpt>
      <trkpt lat="43.10659" lon="6.32604">
        <ele>27.70364</ele>
        <time>2011-07-29T13:12:43Z</time>
      </trkpt>
      <trkpt lat="43.10625" lon="6.3264">
        <ele>26.370001</ele>
        <time>2011-07-29T13:12:56Z</time>
      </trkpt>
      <trkpt lat="43.10577" lon="6.32679">
        <ele>23.737499</ele>
        <time>2011-07-29T13:13:04Z</time>
      </trkpt>
      <trkpt lat="43.10531" lon="6.32682">
        <ele>22.767794</ele>
        <time>2011-07-29T13:13:12Z</time>
      </trkpt>
      <trkpt lat="43.10485" lon="6.32662">
        <ele>21.908737</ele>
        <time>2011-07-29T13:13:21Z</time>
      </trkpt>
      <trkpt lat="43.10449" lon="6.32621">
        <ele>21.860243</ele>
        <time>2011-07-29T13:13:27Z</time>
      </trkpt>
      <trkpt lat="43.10401" lon="6.32612">
        <ele>20.764999</ele>
        <time>2011-07-29T13:13:33Z</time>
      </trkpt>
      <trkpt lat="43.10353" lon="6.32624">
        <ele>16.92235</ele>
        <time>2011-07-29T13:13:38Z</time>
      </trkpt>
      <trkpt lat="43.10305" lon="6.32635">
        <ele>12.53575</ele>
        <time>2011-07-29T13:13:43Z</time>
      </trkpt>
      <trkpt lat="43.10254" lon="6.32655">
        <ele>9.807962</ele>
        <time>2011-07-29T13:13:48Z</time>
      </trkpt>
      <trkpt lat="43.10213" lon="6.32683">
        <ele>8.133934</ele>
        <time>2011-07-29T13:13:53Z</time>
      </trkpt>
      <trkpt lat="43.1018" lon="6.3273">
        <ele>7.01125</ele>
        <time>2011-07-29T13:13:58Z</time>
      </trkpt>
      <trkpt lat="43.10141" lon="6.32762">
        <ele>6.74375</ele>
        <time>2011-07-29T13:14:06Z</time>
      </trkpt>
      <trkpt lat="43.10095" lon="6.32762">
        <ele>6.675</ele>
        <time>2011-07-29T13:14:15Z</time>
      </trkpt>
      <trkpt lat="43.10055" lon="6.32715">
        <ele>5.954372</ele>
        <time>2011-07-29T13:14:25Z</time>
      </trkpt>
      <trkpt lat="43.10022" lon="6.3267">
        <ele>5.8525</ele>
        <time>2011-07-29T13:14:35Z</time>
      </trkpt>
      <trkpt lat="43.09991" lon="6.32625">
        <ele>5.4575</ele>
        <time>2011-07-29T13:14:46Z</time>
      </trkpt>
      <trkpt lat="43.0996" lon="6.3258">
        <ele>4.759687</ele>
        <time>2011-07-29T13:15:27Z</time>
      </trkpt>
      <trkpt lat="43.09936" lon="6.32535">
        <ele>2.859</ele>
        <time>2011-07-29T13:16:26Z</time>
      </trkpt>
      <trkpt lat="43.09933" lon="6.32545">
        <ele>3.401825</ele>
        <time>2011-07-29T13:18:18Z</time>
      </trkpt>
      <trkpt lat="43.09968" lon="6.32585">
        <ele>4.741437</ele>
        <time>2011-07-29T13:19:48Z</time>
      </trkpt>
      <trkpt lat="43.09998" lon="6.32634">
        <ele>5.555</ele>
        <time>2011-07-29T13:20:04Z</time>
      </trkpt>
      <trkpt lat="43.10034" lon="6.32684">
        <ele>5.79875</ele>
        <time>2011-07-29T13:20:17Z</time>
      </trkpt>
      <trkpt lat="43.1007" lon="6.32734">
        <ele>6.24375</ele>
        <time>2011-07-29T13:20:33Z</time>
      </trkpt>
      <trkpt lat="43.1012" lon="6.32757">
        <ele>6.56375</ele>
        <time>2011-07-29T13:20:49Z</time>
      </trkpt>
      <trkpt lat="43.10164" lon="6.32754">
        <ele>7.07875</ele>
        <time>2011-07-29T13:21:11Z</time>
      </trkpt>
      <trkpt lat="43.10194" lon="6.32704">
        <ele>7.335559</ele>
        <time>2011-07-29T13:21:27Z</time>
      </trkpt>
      <trkpt lat="43.10242" lon="6.32658">
        <ele>9.3774</ele>
        <time>2011-07-29T13:21:50Z</time>
      </trkpt>
      <trkpt lat="43.10294" lon="6.32636">
        <ele>11.998221</ele>
        <time>2011-07-29T13:22:17Z</time>
      </trkpt>
      <trkpt lat="43.1034" lon="6.32627">
        <ele>15.534843</ele>
        <time>2011-07-29T13:22:43Z</time>
      </trkpt>
      <trkpt lat="43.10388" lon="6.32614">
        <ele>20.129999</ele>
        <time>2011-07-29T13:23:06Z</time>
      </trkpt>
      <trkpt lat="43.10433" lon="6.32614">
        <ele>21.609287</ele>
        <time>2011-07-29T13:23:31Z</time>
      </trkpt>
      <trkpt lat="43.10471" lon="6.32647">
        <ele>21.750601</ele>
        <time>2011-07-29T13:23:53Z</time>
      </trkpt>
      <trkpt lat="43.10514" lon="6.32677">
        <ele>22.473097</ele>
        <time>2011-07-29T13:24:13Z</time>
      </trkpt>
      <trkpt lat="43.10562" lon="6.3268">
        <ele>23.422501</ele>
        <time>2011-07-29T13:24:25Z</time>
      </trkpt>
      <trkpt lat="43.10611" lon="6.32653">
        <ele>25.4175</ele>
        <time>2011-07-29T13:24:35Z</time>
      </trkpt>
      <trkpt lat="43.10648" lon="6.32629">
        <ele>27.793438</ele>
        <time>2011-07-29T13:24:51Z</time>
      </trkpt>
      <trkpt lat="43.10678" lon="6.326">
        <ele>29.454538</ele>
        <time>2011-07-29T13:28:14Z</time>
      </trkpt>
      <trkpt lat="43.10708" lon="6.32553">
        <ele>29.832642</ele>
        <time>2011-07-29T13:28:28Z</time>
      </trkpt>
      <trkpt lat="43.10737" lon="6.32509">
        <ele>29.846184</ele>
        <time>2011-07-29T13:28:41Z</time>
      </trkpt>
      <trkpt lat="43.10767" lon="6.32464">
        <ele>29.395725</ele>
        <time>2011-07-29T13:28:56Z</time>
      </trkpt>
      <trkpt lat="43.10801" lon="6.3242">
        <ele>29.32</ele>
        <time>2011-07-29T13:29:10Z</time>
      </trkpt>
      <trkpt lat="43.10837" lon="6.32378">
        <ele>29.1525</ele>
        <time>2011-07-29T13:29:22Z</time>
      </trkpt>
      <trkpt lat="43.10877" lon="6.32327">
        <ele>28.455978</ele>
        <time>2011-07-29T13:29:31Z</time>
      </trkpt>
      <trkpt lat="43.10907" lon="6.32272">
        <ele>26.775385</ele>
        <time>2011-07-29T13:29:40Z</time>
      </trkpt>
      <trkpt lat="43.10931" lon="6.32221">
        <ele>25.44775</ele>
        <time>2011-07-29T13:29:51Z</time>
      </trkpt>
      <trkpt lat="43.10967" lon="6.32172">
        <ele>24.284437</ele>
        <time>2011-07-29T13:30:00Z</time>
      </trkpt>
      <trkpt lat="43.10991" lon="6.32118">
        <ele>23.425819</ele>
        <time>2011-07-29T13:30:07Z</time>
      </trkpt>
      <trkpt lat="43.1101" lon="6.3206">
        <ele>21.679951</ele>
        <time>2011-07-29T13:30:16Z</time>
      </trkpt>
      <trkpt lat="43.11035" lon="6.32012">
        <ele>20.164263</ele>
        <time>2011-07-29T13:30:27Z</time>
      </trkpt>
      <trkpt lat="43.11057" lon="6.31955">
        <ele>18.524694</ele>
        <time>2011-07-29T13:30:39Z</time>
      </trkpt>
      <trkpt lat="43.11083" lon="6.31898">
        <ele>17.142244</ele>
        <time>2011-07-29T13:30:49Z</time>
      </trkpt>
      <trkpt lat="43.11109" lon="6.31846">
        <ele>16.161522</ele>
        <time>2011-07-29T13:30:57Z</time>
      </trkpt>
      <trkpt lat="43.11136" lon="6.31793">
        <ele>15.206038</ele>
        <time>2011-07-29T13:31:06Z</time>
      </trkpt>
      <trkpt lat="43.11163" lon="6.31742">
        <ele>13.549494</ele>
        <time>2011-07-29T13:31:16Z</time>
      </trkpt>
      <trkpt lat="43.11179" lon="6.31686">
        <ele>11.4875</ele>
        <time>2011-07-29T13:31:29Z</time>
      </trkpt>
      <trkpt lat="43.11212" lon="6.31692">
        <ele>13.0825</ele>
        <time>2011-07-29T13:31:59Z</time>
      </trkpt>
      <trkpt lat="43.11258" lon="6.31709">
        <ele>16.000456</ele>
        <time>2011-07-29T13:32:15Z</time>
      </trkpt>
      <trkpt lat="43.11306" lon="6.31704">
        <ele>17.439699</ele>
        <time>2011-07-29T13:32:30Z</time>
      </trkpt>
      <trkpt lat="43.11351" lon="6.31708">
        <ele>20.078438</ele>
        <time>2011-07-29T13:32:46Z</time>
      </trkpt>
      <trkpt lat="43.11379" lon="6.31762">
        <ele>21.0086</ele>
        <time>2011-07-29T13:33:01Z</time>
      </trkpt>
      <trkpt lat="43.11399" lon="6.31821">
        <ele>21.628799</ele>
        <time>2011-07-29T13:33:17Z</time>
      </trkpt>
      <trkpt lat="43.11421" lon="6.3188">
        <ele>21.644375</ele>
        <time>2011-07-29T13:33:34Z</time>
      </trkpt>
      <trkpt lat="43.11447" lon="6.3193">
        <ele>23.562</ele>
        <time>2011-07-29T13:33:50Z</time>
      </trkpt>
      <trkpt lat="43.1148" lon="6.31977">
        <ele>25.420313</ele>
        <time>2011-07-29T13:34:05Z</time>
      </trkpt>
      <trkpt lat="43.11524" lon="6.3201">
        <ele>26.8638</ele>
        <time>2011-07-29T13:34:18Z</time>
      </trkpt>
      <trkpt lat="43.11563" lon="6.32045">
        <ele>28.171484</ele>
        <time>2011-07-29T13:34:33Z</time>
      </trkpt>
      <trkpt lat="43.11594" lon="6.32087">
        <ele>29.011875</ele>
        <time>2011-07-29T13:34:48Z</time>
      </trkpt>
      <trkpt lat="43.11632" lon="6.32122">
        <ele>32.178219</ele>
        <time>2011-07-29T13:35:07Z</time>
      </trkpt>
      <trkpt lat="43.11672" lon="6.32152">
        <ele>32.629601</ele>
        <time>2011-07-29T13:35:26Z</time>
      </trkpt>
      <trkpt lat="43.1171" lon="6.32182">
        <ele>35.559402</ele>
        <time>2011-07-29T13:35:45Z</time>
      </trkpt>
      <trkpt lat="43.11746" lon="6.32224">
        <ele>38.960636</ele>
        <time>2011-07-29T13:36:06Z</time>
      </trkpt>
      <trkpt lat="43.11788" lon="6.32254">
        <ele>40.784901</ele>
        <time>2011-07-29T13:36:23Z</time>
      </trkpt>
      <trkpt lat="43.11828" lon="6.32286">
        <ele>41.719662</ele>
        <time>2011-07-29T13:36:41Z</time>
      </trkpt>
      <trkpt lat="43.11866" lon="6.32324">
        <ele>45.514091</ele>
        <time>2011-07-29T13:37:00Z</time>
      </trkpt>
      <trkpt lat="43.11907" lon="6.32355">
        <ele>47</ele>
        <time>2011-07-29T13:37:18Z</time>
      </trkpt>
      <trkpt lat="43.11948" lon="6.32386">
        <ele>51.62764</ele>
        <time>2011-07-29T13:37:34Z</time>
      </trkpt>
      <trkpt lat="43.11986" lon="6.32423">
        <ele>52.104275</ele>
        <time>2011-07-29T13:37:54Z</time>
      </trkpt>
      <trkpt lat="43.12023" lon="6.32463">
        <ele>57.257813</ele>
        <time>2011-07-29T13:38:14Z</time>
      </trkpt>
      <trkpt lat="43.12045" lon="6.32518">
        <ele>63.09</ele>
        <time>2011-07-29T13:38:34Z</time>
      </trkpt>
      <trkpt lat="43.12073" lon="6.32567">
        <ele>66.492805</ele>
        <time>2011-07-29T13:38:54Z</time>
      </trkpt>
      <trkpt lat="43.12107" lon="6.32608">
        <ele>75.396378</ele>
        <time>2011-07-29T13:39:15Z</time>
      </trkpt>
      <trkpt lat="43.12141" lon="6.32652">
        <ele>79.383156</ele>
        <time>2011-07-29T13:39:35Z</time>
      </trkpt>
      <trkpt lat="43.12173" lon="6.32695">
        <ele>76.014999</ele>
        <time>2011-07-29T13:39:49Z</time>
      </trkpt>
      <trkpt lat="43.12208" lon="6.32759">
        <ele>66.009499</ele>
        <time>2011-07-29T13:39:56Z</time>
      </trkpt>
      <trkpt lat="43.12204" lon="6.32818">
        <ele>62.815186</ele>
        <time>2011-07-29T13:40:02Z</time>
      </trkpt>
      <trkpt lat="43.12181" lon="6.3287">
        <ele>63.037579</ele>
        <time>2011-07-29T13:40:07Z</time>
      </trkpt>
      <trkpt lat="43.12203" lon="6.32938">
        <ele>58.470203</ele>
        <time>2011-07-29T13:40:12Z</time>
      </trkpt>
      <trkpt lat="43.12218" lon="6.33008">
        <ele>55.818317</ele>
        <time>2011-07-29T13:40:17Z</time>
      </trkpt>
      <trkpt lat="43.1226" lon="6.33056">
        <ele>51.715</ele>
        <time>2011-07-29T13:40:22Z</time>
      </trkpt>
      <trkpt lat="43.12305" lon="6.33097">
        <ele>48.377499</ele>
        <time>2011-07-29T13:40:27Z</time>
      </trkpt>
      <trkpt lat="43.12351" lon="6.33136">
        <ele>46.009613</ele>
        <time>2011-07-29T13:40:32Z</time>
      </trkpt>
      <trkpt lat="43.12395" lon="6.33169">
        <ele>44.169739</ele>
        <time>2011-07-29T13:40:37Z</time>
      </trkpt>
      <trkpt lat="43.1244" lon="6.33192">
        <ele>41.539639</ele>
        <time>2011-07-29T13:40:42Z</time>
      </trkpt>
      <trkpt lat="43.12488" lon="6.33215">
        <ele>40.982929</ele>
        <time>2011-07-29T13:40:48Z</time>
      </trkpt>
      <trkpt lat="43.12533" lon="6.33239">
        <ele>40.41375</ele>
        <time>2011-07-29T13:40:54Z</time>
      </trkpt>
      <trkpt lat="43.1258" lon="6.33265">
        <ele>37.368076</ele>
        <time>2011-07-29T13:41:00Z</time>
      </trkpt>
      <trkpt lat="43.12628" lon="6.33294">
        <ele>34.305725</ele>
        <time>2011-07-29T13:41:06Z</time>
      </trkpt>
      <trkpt lat="43.12669" lon="6.33319">
        <ele>31.66539</ele>
        <time>2011-07-29T13:41:11Z</time>
      </trkpt>
      <trkpt lat="43.12717" lon="6.3335">
        <ele>29.261316</ele>
        <time>2011-07-29T13:41:17Z</time>
      </trkpt>
      <trkpt lat="43.12759" lon="6.33383">
        <ele>29.5</ele>
        <time>2011-07-29T13:41:24Z</time>
      </trkpt>
      <trkpt lat="43.12789" lon="6.33426">
        <ele>29.780001</ele>
        <time>2011-07-29T13:41:34Z</time>
      </trkpt>
      <trkpt lat="43.12816" lon="6.33477">
        <ele>30.1325</ele>
        <time>2011-07-29T13:41:42Z</time>
      </trkpt>
      <trkpt lat="43.12855" lon="6.33512">
        <ele>29.372499</ele>
        <time>2011-07-29T13:41:49Z</time>
      </trkpt>
      <trkpt lat="43.12904" lon="6.3353">
        <ele>27.627501</ele>
        <time>2011-07-29T13:41:56Z</time>
      </trkpt>
      <trkpt lat="43.12952" lon="6.33555">
        <ele>26.08375</ele>
        <time>2011-07-29T13:42:03Z</time>
      </trkpt>
      <trkpt lat="43.12996" lon="6.33582">
        <ele>25.45875</ele>
        <time>2011-07-29T13:42:10Z</time>
      </trkpt>
      <trkpt lat="43.13036" lon="6.3362">
        <ele>25.32</ele>
        <time>2011-07-29T13:42:18Z</time>
      </trkpt>
      <trkpt lat="43.13076" lon="6.33654">
        <ele>25.7225</ele>
        <time>2011-07-29T13:42:26Z</time>
      </trkpt>
      <trkpt lat="43.13121" lon="6.33666">
        <ele>24.72625</ele>
        <time>2011-07-29T13:42:33Z</time>
      </trkpt>
      <trkpt lat="43.13168" lon="6.33669">
        <ele>22.234524</ele>
        <time>2011-07-29T13:42:39Z</time>
      </trkpt>
      <trkpt lat="43.13212" lon="6.33698">
        <ele>17.492001</ele>
        <time>2011-07-29T13:42:44Z</time>
      </trkpt>
      <trkpt lat="43.13257" lon="6.33735">
        <ele>12.361</ele>
        <time>2011-07-29T13:42:49Z</time>
      </trkpt>
      <trkpt lat="43.133" lon="6.33768">
        <ele>10.356634</ele>
        <time>2011-07-29T13:42:54Z</time>
      </trkpt>
      <trkpt lat="43.13344" lon="6.33801">
        <ele>10.19</ele>
        <time>2011-07-29T13:43:00Z</time>
      </trkpt>
      <trkpt lat="43.13383" lon="6.33831">
        <ele>11.055672</ele>
        <time>2011-07-29T13:43:07Z</time>
      </trkpt>
      <trkpt lat="43.13424" lon="6.33859">
        <ele>11.241938</ele>
        <time>2011-07-29T13:43:17Z</time>
      </trkpt>
      <trkpt lat="43.1347" lon="6.3388">
        <ele>12.063535</ele>
        <time>2011-07-29T13:43:27Z</time>
      </trkpt>
      <trkpt lat="43.13519" lon="6.33886">
        <ele>12.909422</ele>
        <time>2011-07-29T13:43:36Z</time>
      </trkpt>
      <trkpt lat="43.13566" lon="6.33891">
        <ele>13.205</ele>
        <time>2011-07-29T13:43:47Z</time>
      </trkpt>
      <trkpt lat="43.13615" lon="6.33894">
        <ele>14.3075</ele>
        <time>2011-07-29T13:43:58Z</time>
      </trkpt>
      <trkpt lat="43.13662" lon="6.33897">
        <ele>15.294046</ele>
        <time>2011-07-29T13:44:08Z</time>
      </trkpt>
      <trkpt lat="43.13707" lon="6.339">
        <ele>16.21875</ele>
        <time>2011-07-29T13:44:18Z</time>
      </trkpt>
      <trkpt lat="43.13753" lon="6.33907">
        <ele>17.196251</ele>
        <time>2011-07-29T13:44:28Z</time>
      </trkpt>
      <trkpt lat="43.138" lon="6.33907">
        <ele>17.865</ele>
        <time>2011-07-29T13:44:38Z</time>
      </trkpt>
      <trkpt lat="43.13845" lon="6.33904">
        <ele>18.3825</ele>
        <time>2011-07-29T13:44:49Z</time>
      </trkpt>
      <trkpt lat="43.13891" lon="6.33899">
        <ele>19.108749</ele>
        <time>2011-07-29T13:45:00Z</time>
      </trkpt>
      <trkpt lat="43.13936" lon="6.33895">
        <ele>19.213751</ele>
        <time>2011-07-29T13:45:10Z</time>
      </trkpt>
      <trkpt lat="43.13984" lon="6.33901">
        <ele>19.265125</ele>
        <time>2011-07-29T13:45:20Z</time>
      </trkpt>
      <trkpt lat="43.1403" lon="6.33912">
        <ele>19.684975</ele>
        <time>2011-07-29T13:45:31Z</time>
      </trkpt>
      <trkpt lat="43.14077" lon="6.3393">
        <ele>21.494965</ele>
        <time>2011-07-29T13:45:43Z</time>
      </trkpt>
      <trkpt lat="43.14121" lon="6.33947">
        <ele>23.942499</ele>
        <time>2011-07-29T13:46:00Z</time>
      </trkpt>
      <trkpt lat="43.14166" lon="6.33976">
        <ele>25.640713</ele>
        <time>2011-07-29T13:46:19Z</time>
      </trkpt>
      <trkpt lat="43.14202" lon="6.34003">
        <ele>26.54962</ele>
        <time>2011-07-29T13:46:53Z</time>
      </trkpt>
      <trkpt lat="43.14215" lon="6.34073">
        <ele>25.0525</ele>
        <time>2011-07-29T13:47:07Z</time>
      </trkpt>
      <trkpt lat="43.14222" lon="6.34138">
        <ele>23.575001</ele>
        <time>2011-07-29T13:47:17Z</time>
      </trkpt>
      <trkpt lat="43.1423" lon="6.34205">
        <ele>22.733749</ele>
        <time>2011-07-29T13:47:27Z</time>
      </trkpt>
      <trkpt lat="43.14241" lon="6.34268">
        <ele>22.267651</ele>
        <time>2011-07-29T13:47:37Z</time>
      </trkpt>
      <trkpt lat="43.14251" lon="6.3433">
        <ele>22.1</ele>
        <time>2011-07-29T13:47:51Z</time>
      </trkpt>
      <trkpt lat="43.1426" lon="6.34391">
        <ele>22.075001</ele>
        <time>2011-07-29T13:48:05Z</time>
      </trkpt>
      <trkpt lat="43.14273" lon="6.34452">
        <ele>22.790001</ele>
        <time>2011-07-29T13:48:18Z</time>
      </trkpt>
      <trkpt lat="43.14273" lon="6.34512">
        <ele>23.066954</ele>
        <time>2011-07-29T13:48:30Z</time>
      </trkpt>
      <trkpt lat="43.14276" lon="6.34575">
        <ele>24.165625</ele>
        <time>2011-07-29T13:48:42Z</time>
      </trkpt>
      <trkpt lat="43.14249" lon="6.3461">
        <ele>22.041775</ele>
        <time>2011-07-29T13:48:52Z</time>
      </trkpt>
      <trkpt lat="43.14195" lon="6.34611">
        <ele>18.584999</ele>
        <time>2011-07-29T13:49:00Z</time>
      </trkpt>
      <trkpt lat="43.14146" lon="6.34618">
        <ele>16.7125</ele>
        <time>2011-07-29T13:49:08Z</time>
      </trkpt>
      <trkpt lat="43.1416" lon="6.34625">
        <ele>17.025</ele>
        <time>2011-07-29T13:49:20Z</time>
      </trkpt>
      <trkpt lat="43.14206" lon="6.3461">
        <ele>19.077845</ele>
        <time>2011-07-29T13:49:36Z</time>
      </trkpt>
      <trkpt lat="43.1425" lon="6.34609">
        <ele>22.094189</ele>
        <time>2011-07-29T13:49:51Z</time>
      </trkpt>
      <trkpt lat="43.14245" lon="6.34667">
        <ele>22.77</ele>
        <time>2011-07-29T13:50:06Z</time>
      </trkpt>
      <trkpt lat="43.14226" lon="6.34729">
        <ele>21.947401</ele>
        <time>2011-07-29T13:50:18Z</time>
      </trkpt>
      <trkpt lat="43.14205" lon="6.34785">
        <ele>20.827063</ele>
        <time>2011-07-29T13:50:26Z</time>
      </trkpt>
      <trkpt lat="43.14181" lon="6.34843">
        <ele>19.643766</ele>
        <time>2011-07-29T13:50:33Z</time>
      </trkpt>
      <trkpt lat="43.14157" lon="6.34903">
        <ele>17.719999</ele>
        <time>2011-07-29T13:50:40Z</time>
      </trkpt>
      <trkpt lat="43.14134" lon="6.34965">
        <ele>16.43</ele>
        <time>2011-07-29T13:50:47Z</time>
      </trkpt>
      <trkpt lat="43.14102" lon="6.3501">
        <ele>16.575363</ele>
        <time>2011-07-29T13:50:53Z</time>
      </trkpt>
      <trkpt lat="43.14056" lon="6.35029">
        <ele>15.530687</ele>
        <time>2011-07-29T13:50:59Z</time>
      </trkpt>
      <trkpt lat="43.14009" lon="6.35036">
        <ele>14.105</ele>
        <time>2011-07-29T13:51:05Z</time>
      </trkpt>
      <trkpt lat="43.13961" lon="6.35048">
        <ele>11.92875</ele>
        <time>2011-07-29T13:51:12Z</time>
      </trkpt>
      <trkpt lat="43.13923" lon="6.35084">
        <ele>10.706953</ele>
        <time>2011-07-29T13:51:20Z</time>
      </trkpt>
      <trkpt lat="43.13886" lon="6.35125">
        <ele>8.969047</ele>
        <time>2011-07-29T13:51:29Z</time>
      </trkpt>
      <trkpt lat="43.13848" lon="6.35149">
        <ele>8.158484</ele>
        <time>2011-07-29T13:51:37Z</time>
      </trkpt>
      <trkpt lat="43.13861" lon="6.35209">
        <ele>8.855</ele>
        <time>2011-07-29T13:51:44Z</time>
      </trkpt>
      <trkpt lat="43.13897" lon="6.35254">
        <ele>10.41</ele>
        <time>2011-07-29T13:51:51Z</time>
      </trkpt>
      <trkpt lat="43.13905" lon="6.35318">
        <ele>9.944157</ele>
        <time>2011-07-29T13:51:57Z</time>
      </trkpt>
      <trkpt lat="43.13911" lon="6.35388">
        <ele>9.99875</ele>
        <time>2011-07-29T13:52:04Z</time>
      </trkpt>
      <trkpt lat="43.13913" lon="6.35452">
        <ele>9.193375</ele>
        <time>2011-07-29T13:52:11Z</time>
      </trkpt>
      <trkpt lat="43.13916" lon="6.35517">
        <ele>9</ele>
        <time>2011-07-29T13:52:19Z</time>
      </trkpt>
      <trkpt lat="43.13921" lon="6.35583">
        <ele>8.862638</ele>
        <time>2011-07-29T13:52:28Z</time>
      </trkpt>
      <trkpt lat="43.13923" lon="6.35644">
        <ele>8.45105</ele>
        <time>2011-07-29T13:52:39Z</time>
      </trkpt>
      <trkpt lat="43.13944" lon="6.35688">
        <ele>8.862875</ele>
        <time>2011-07-29T13:53:16Z</time>
      </trkpt>
      <trkpt lat="43.13949" lon="6.35753">
        <ele>8.00265</ele>
        <time>2011-07-29T13:53:33Z</time>
      </trkpt>
      <trkpt lat="43.1395" lon="6.35813">
        <ele>8.348687</ele>
        <time>2011-07-29T13:53:47Z</time>
      </trkpt>
      <trkpt lat="43.13965" lon="6.35872">
        <ele>9.396232</ele>
        <time>2011-07-29T13:54:05Z</time>
      </trkpt>
      <trkpt lat="43.13963" lon="6.35927">
        <ele>12.656775</ele>
        <time>2011-07-29T13:54:23Z</time>
      </trkpt>
      <trkpt lat="43.13949" lon="6.35988">
        <ele>14.713366</ele>
        <time>2011-07-29T13:54:37Z</time>
      </trkpt>
      <trkpt lat="43.13936" lon="6.3605">
        <ele>16.376719</ele>
        <time>2011-07-29T13:54:50Z</time>
      </trkpt>
      <trkpt lat="43.13922" lon="6.3611">
        <ele>17.32375</ele>
        <time>2011-07-29T13:55:01Z</time>
      </trkpt>
      <trkpt lat="43.13884" lon="6.36155">
        <ele>13.540734</ele>
        <time>2011-07-29T13:55:12Z</time>
      </trkpt>
      <trkpt lat="43.13864" lon="6.36213">
        <ele>12.5471</ele>
        <time>2011-07-29T13:55:21Z</time>
      </trkpt>
      <trkpt lat="43.13857" lon="6.36273">
        <ele>11.6523</ele>
        <time>2011-07-29T13:55:29Z</time>
      </trkpt>
      <trkpt lat="43.1385" lon="6.36339">
        <ele>11.385732</ele>
        <time>2011-07-29T13:55:38Z</time>
      </trkpt>
      <trkpt lat="43.13834" lon="6.36405">
        <ele>11.985981</ele>
        <time>2011-07-29T13:55:48Z</time>
      </trkpt>
      <trkpt lat="43.13831" lon="6.36467">
        <ele>12.2789</ele>
        <time>2011-07-29T13:56:01Z</time>
      </trkpt>
      <trkpt lat="43.13829" lon="6.36525">
        <ele>11.83655</ele>
        <time>2011-07-29T13:56:28Z</time>
      </trkpt>
      <trkpt lat="43.13819" lon="6.36589">
        <ele>13.053138</ele>
        <time>2011-07-29T13:56:40Z</time>
      </trkpt>
      <trkpt lat="43.13822" lon="6.36652">
        <ele>16.13785</ele>
        <time>2011-07-29T13:56:54Z</time>
      </trkpt>
      <trkpt lat="43.13823" lon="6.36715">
        <ele>17.133375</ele>
        <time>2011-07-29T13:57:08Z</time>
      </trkpt>
      <trkpt lat="43.13828" lon="6.36776">
        <ele>15.196525</ele>
        <time>2011-07-29T13:57:21Z</time>
      </trkpt>
      <trkpt lat="43.13853" lon="6.36834">
        <ele>14.790075</ele>
        <time>2011-07-29T13:57:32Z</time>
      </trkpt>
      <trkpt lat="43.1388" lon="6.36884">
        <ele>14.283541</ele>
        <time>2011-07-29T13:57:43Z</time>
      </trkpt>
      <trkpt lat="43.13905" lon="6.36943">
        <ele>11.193088</ele>
        <time>2011-07-29T13:57:55Z</time>
      </trkpt>
      <trkpt lat="43.13906" lon="6.37007">
        <ele>11.128018</ele>
        <time>2011-07-29T13:58:04Z</time>
      </trkpt>
      <trkpt lat="43.13898" lon="6.37075">
        <ele>10.884275</ele>
        <time>2011-07-29T13:58:13Z</time>
      </trkpt>
      <trkpt lat="43.1389" lon="6.37138">
        <ele>9.987331</ele>
        <time>2011-07-29T13:58:23Z</time>
      </trkpt>
      <trkpt lat="43.13884" lon="6.37203">
        <ele>9.197687</ele>
        <time>2011-07-29T13:58:33Z</time>
      </trkpt>
      <trkpt lat="43.13874" lon="6.37267">
        <ele>8.9675</ele>
        <time>2011-07-29T13:58:42Z</time>
      </trkpt>
      <trkpt lat="43.13892" lon="6.373">
        <ele>13.828712</ele>
        <time>2011-07-29T13:59:24Z</time>
      </trkpt>
      <trkpt lat="43.13879" lon="6.37359">
        <ele>18.216743</ele>
        <time>2011-07-29T13:59:41Z</time>
      </trkpt>
      <trkpt lat="43.13852" lon="6.37411">
        <ele>19.889015</ele>
        <time>2011-07-29T13:59:56Z</time>
      </trkpt>
      <trkpt lat="43.13824" lon="6.37462">
        <ele>22.844332</ele>
        <time>2011-07-29T14:00:13Z</time>
      </trkpt>
      <trkpt lat="43.13809" lon="6.37526">
        <ele>22.725437</ele>
        <time>2011-07-29T14:00:30Z</time>
      </trkpt>
      <trkpt lat="43.13816" lon="6.37592">
        <ele>20.73653</ele>
        <time>2011-07-29T14:00:46Z</time>
      </trkpt>
      <trkpt lat="43.13837" lon="6.3765">
        <ele>21.630222</ele>
        <time>2011-07-29T14:01:00Z</time>
      </trkpt>
      <trkpt lat="43.13851" lon="6.37709">
        <ele>28.259956</ele>
        <time>2011-07-29T14:01:11Z</time>
      </trkpt>
      <trkpt lat="43.13848" lon="6.37777">
        <ele>28.320074</ele>
        <time>2011-07-29T14:01:21Z</time>
      </trkpt>
      <trkpt lat="43.13851" lon="6.37836">
        <ele>22.0105</ele>
        <time>2011-07-29T14:02:16Z</time>
      </trkpt>
      <trkpt lat="43.1386" lon="6.37902">
        <ele>19.269829</ele>
        <time>2011-07-29T14:02:28Z</time>
      </trkpt>
      <trkpt lat="43.13886" lon="6.37962">
        <ele>19.865368</ele>
        <time>2011-07-29T14:02:38Z</time>
      </trkpt>
      <trkpt lat="43.13923" lon="6.38">
        <ele>17.700001</ele>
        <time>2011-07-29T14:02:46Z</time>
      </trkpt>
      <trkpt lat="43.13971" lon="6.37999">
        <ele>14.096288</ele>
        <time>2011-07-29T14:02:58Z</time>
      </trkpt>
      <trkpt lat="43.14015" lon="6.3798">
        <ele>9.587313</ele>
        <time>2011-07-29T14:03:06Z</time>
      </trkpt>
      <trkpt lat="43.1406" lon="6.37958">
        <ele>6.8927</ele>
        <time>2011-07-29T14:03:12Z</time>
      </trkpt>
      <trkpt lat="43.1411" lon="6.37934">
        <ele>7.190234</ele>
        <time>2011-07-29T14:03:18Z</time>
      </trkpt>
      <trkpt lat="43.14156" lon="6.37927">
        <ele>7.5853</ele>
        <time>2011-07-29T14:03:25Z</time>
      </trkpt>
      <trkpt lat="43.14197" lon="6.37911">
        <ele>8.547313</ele>
        <time>2011-07-29T14:03:37Z</time>
      </trkpt>
      <trkpt lat="43.14245" lon="6.37902">
        <ele>11.151475</ele>
        <time>2011-07-29T14:03:49Z</time>
      </trkpt>
      <trkpt lat="43.14291" lon="6.37901">
        <ele>12.26586</ele>
        <time>2011-07-29T14:04:00Z</time>
      </trkpt>
      <trkpt lat="43.14338" lon="6.379">
        <ele>9.028247</ele>
        <time>2011-07-29T14:04:11Z</time>
      </trkpt>
      <trkpt lat="43.14382" lon="6.37906">
        <ele>6.679869</ele>
        <time>2011-07-29T14:04:22Z</time>
      </trkpt>
      <trkpt lat="43.14429" lon="6.37937">
        <ele>6</ele>
        <time>2011-07-29T14:04:32Z</time>
      </trkpt>
      <trkpt lat="43.14472" lon="6.3797">
        <ele>6</ele>
        <time>2011-07-29T14:04:42Z</time>
      </trkpt>
      <trkpt lat="43.14477" lon="6.38035">
        <ele>6</ele>
        <time>2011-07-29T14:04:54Z</time>
      </trkpt>
      <trkpt lat="43.14485" lon="6.38102">
        <ele>6.1425</ele>
        <time>2011-07-29T14:05:04Z</time>
      </trkpt>
      <trkpt lat="43.14484" lon="6.38165">
        <ele>6.055675</ele>
        <time>2011-07-29T14:05:14Z</time>
      </trkpt>
      <trkpt lat="43.14484" lon="6.38226">
        <ele>6</ele>
        <time>2011-07-29T14:05:29Z</time>
      </trkpt>
      <trkpt lat="43.14483" lon="6.3829">
        <ele>6.374312</ele>
        <time>2011-07-29T14:05:45Z</time>
      </trkpt>
      <trkpt lat="43.14483" lon="6.38354">
        <ele>8.1475</ele>
        <time>2011-07-29T14:06:02Z</time>
      </trkpt>
      <trkpt lat="43.14484" lon="6.38417">
        <ele>11.792296</ele>
        <time>2011-07-29T14:06:18Z</time>
      </trkpt>
      <trkpt lat="43.14492" lon="6.38481">
        <ele>15.007697</ele>
        <time>2011-07-29T14:06:32Z</time>
      </trkpt>
      <trkpt lat="43.14507" lon="6.38539">
        <ele>16.911001</ele>
        <time>2011-07-29T14:06:46Z</time>
      </trkpt>
      <trkpt lat="43.14525" lon="6.38595">
        <ele>16.120937</ele>
        <time>2011-07-29T14:07:04Z</time>
      </trkpt>
      <trkpt lat="43.14542" lon="6.38658">
        <ele>17.127968</ele>
        <time>2011-07-29T14:07:21Z</time>
      </trkpt>
      <trkpt lat="43.1454" lon="6.3872">
        <ele>19.099751</ele>
        <time>2011-07-29T14:07:37Z</time>
      </trkpt>
      <trkpt lat="43.14524" lon="6.38781">
        <ele>20.317219</ele>
        <time>2011-07-29T14:07:53Z</time>
      </trkpt>
      <trkpt lat="43.145" lon="6.38836">
        <ele>21.11792</ele>
        <time>2011-07-29T14:08:06Z</time>
      </trkpt>
      <trkpt lat="43.14475" lon="6.3889">
        <ele>21.587093</ele>
        <time>2011-07-29T14:08:19Z</time>
      </trkpt>
      <trkpt lat="43.14462" lon="6.38952">
        <ele>23.502609</ele>
        <time>2011-07-29T14:08:34Z</time>
      </trkpt>
      <trkpt lat="43.14464" lon="6.39015">
        <ele>23.825001</ele>
        <time>2011-07-29T14:08:45Z</time>
      </trkpt>
      <trkpt lat="43.14479" lon="6.3908">
        <ele>23.887863</ele>
        <time>2011-07-29T14:08:56Z</time>
      </trkpt>
      <trkpt lat="43.14494" lon="6.39141">
        <ele>21.068251</ele>
        <time>2011-07-29T14:09:06Z</time>
      </trkpt>
      <trkpt lat="43.14515" lon="6.39199">
        <ele>19.196444</ele>
        <time>2011-07-29T14:09:15Z</time>
      </trkpt>
      <trkpt lat="43.14534" lon="6.39251">
        <ele>15.64775</ele>
        <time>2011-07-29T14:09:30Z</time>
      </trkpt>
      <trkpt lat="43.14567" lon="6.39297">
        <ele>13.675522</ele>
        <time>2011-07-29T14:10:12Z</time>
      </trkpt>
      <trkpt lat="43.14606" lon="6.39338">
        <ele>11.545497</ele>
        <time>2011-07-29T14:10:23Z</time>
      </trkpt>
      <trkpt lat="43.14641" lon="6.39385">
        <ele>5.5675</ele>
        <time>2011-07-29T14:10:32Z</time>
      </trkpt>
      <trkpt lat="43.14659" lon="6.39446">
        <ele>3.212388</ele>
        <time>2011-07-29T14:10:40Z</time>
      </trkpt>
      <trkpt lat="43.14659" lon="6.39509">
        <ele>6.8599</ele>
        <time>2011-07-29T14:10:50Z</time>
      </trkpt>
      <trkpt lat="43.14646" lon="6.3957">
        <ele>11.349813</ele>
        <time>2011-07-29T14:11:29Z</time>
      </trkpt>
      <trkpt lat="43.14625" lon="6.39623">
        <ele>15.655594</ele>
        <time>2011-07-29T14:11:46Z</time>
      </trkpt>
      <trkpt lat="43.14607" lon="6.39684">
        <ele>21.87805</ele>
        <time>2011-07-29T14:12:01Z</time>
      </trkpt>
      <trkpt lat="43.14619" lon="6.39748">
        <ele>24.218975</ele>
        <time>2011-07-29T14:12:15Z</time>
      </trkpt>
      <trkpt lat="43.14643" lon="6.39803">
        <ele>17.908749</ele>
        <time>2011-07-29T14:12:29Z</time>
      </trkpt>
      <trkpt lat="43.14681" lon="6.39841">
        <ele>13.35</ele>
        <time>2011-07-29T14:12:43Z</time>
      </trkpt>
      <trkpt lat="43.1472" lon="6.39878">
        <ele>13.747734</ele>
        <time>2011-07-29T14:12:55Z</time>
      </trkpt>
      <trkpt lat="43.1475" lon="6.39928">
        <ele>13.081437</ele>
        <time>2011-07-29T14:13:05Z</time>
      </trkpt>
      <trkpt lat="43.14778" lon="6.39979">
        <ele>14.96045</ele>
        <time>2011-07-29T14:13:13Z</time>
      </trkpt>
      <trkpt lat="43.14811" lon="6.40024">
        <ele>15.53</ele>
        <time>2011-07-29T14:13:19Z</time>
      </trkpt>
      <trkpt lat="43.14857" lon="6.40057">
        <ele>13.2934</ele>
        <time>2011-07-29T14:13:26Z</time>
      </trkpt>
      <trkpt lat="43.14906" lon="6.40072">
        <ele>6.846</ele>
        <time>2011-07-29T14:13:33Z</time>
      </trkpt>
      <trkpt lat="43.14954" lon="6.40088">
        <ele>7.722003</ele>
        <time>2011-07-29T14:13:40Z</time>
      </trkpt>
      <trkpt lat="43.14999" lon="6.40122">
        <ele>6.709531</ele>
        <time>2011-07-29T14:13:47Z</time>
      </trkpt>
      <trkpt lat="43.15031" lon="6.40174">
        <ele>4.816187</ele>
        <time>2011-07-29T14:13:53Z</time>
      </trkpt>
      <trkpt lat="43.15046" lon="6.40242">
        <ele>4.90825</ele>
        <time>2011-07-29T14:13:59Z</time>
      </trkpt>
      <trkpt lat="43.15047" lon="6.40302">
        <ele>4.17625</ele>
        <time>2011-07-29T14:14:05Z</time>
      </trkpt>
      <trkpt lat="43.15041" lon="6.40361">
        <ele>3.4941</ele>
        <time>2011-07-29T14:14:14Z</time>
      </trkpt>
      <trkpt lat="43.14998" lon="6.40327">
        <ele>2.010291</ele>
        <time>2011-07-29T14:14:30Z</time>
      </trkpt>
      <trkpt lat="43.1499" lon="6.40375">
        <ele>2.409594</ele>
        <time>2011-07-29T14:14:49Z</time>
      </trkpt>
      <trkpt lat="43.14988" lon="6.40427">
        <ele>3.989362</ele>
        <time>2011-07-29T14:15:25Z</time>
      </trkpt>
      <trkpt lat="43.14979" lon="6.40487">
        <ele>5.759375</ele>
        <time>2011-07-29T14:15:43Z</time>
      </trkpt>
      <trkpt lat="43.14967" lon="6.40549">
        <ele>7.1615</ele>
        <time>2011-07-29T14:16:02Z</time>
      </trkpt>
      <trkpt lat="43.14961" lon="6.40617">
        <ele>12.320432</ele>
        <time>2011-07-29T14:16:20Z</time>
      </trkpt>
      <trkpt lat="43.14941" lon="6.40685">
        <ele>12.998813</ele>
        <time>2011-07-29T14:16:40Z</time>
      </trkpt>
      <trkpt lat="43.14941" lon="6.40747">
        <ele>14.636488</ele>
        <time>2011-07-29T14:17:01Z</time>
      </trkpt>
      <trkpt lat="43.14948" lon="6.4081">
        <ele>15.317187</ele>
        <time>2011-07-29T14:17:21Z</time>
      </trkpt>
      <trkpt lat="43.1493" lon="6.40887">
        <ele>19.627388</ele>
        <time>2011-07-29T14:17:41Z</time>
      </trkpt>
      <trkpt lat="43.1493" lon="6.40958">
        <ele>25.195988</ele>
        <time>2011-07-29T14:17:55Z</time>
      </trkpt>
      <trkpt lat="43.14937" lon="6.4103">
        <ele>21.375875</ele>
        <time>2011-07-29T14:18:09Z</time>
      </trkpt>
      <trkpt lat="43.14969" lon="6.41075">
        <ele>21.547297</ele>
        <time>2011-07-29T14:18:25Z</time>
      </trkpt>
      <trkpt lat="43.14993" lon="6.41125">
        <ele>23.594931</ele>
        <time>2011-07-29T14:18:46Z</time>
      </trkpt>
      <trkpt lat="43.15016" lon="6.41186">
        <ele>24.197172</ele>
        <time>2011-07-29T14:18:59Z</time>
      </trkpt>
      <trkpt lat="43.15028" lon="6.41248">
        <ele>23.499702</ele>
        <time>2011-07-29T14:19:09Z</time>
      </trkpt>
      <trkpt lat="43.15021" lon="6.41319">
        <ele>25.227501</ele>
        <time>2011-07-29T14:19:21Z</time>
      </trkpt>
      <trkpt lat="43.15" lon="6.41378">
        <ele>26.230194</ele>
        <time>2011-07-29T14:19:33Z</time>
      </trkpt>
      <trkpt lat="43.14976" lon="6.41439">
        <ele>26.299782</ele>
        <time>2011-07-29T14:19:43Z</time>
      </trkpt>
      <trkpt lat="43.14959" lon="6.41497">
        <ele>23.46455</ele>
        <time>2011-07-29T14:19:54Z</time>
      </trkpt>
      <trkpt lat="43.1496" lon="6.4156">
        <ele>29.818443</ele>
        <time>2011-07-29T14:20:04Z</time>
      </trkpt>
      <trkpt lat="43.14952" lon="6.41626">
        <ele>30.47625</ele>
        <time>2011-07-29T14:20:12Z</time>
      </trkpt>
      <trkpt lat="43.14942" lon="6.41686">
        <ele>31.622875</ele>
        <time>2011-07-29T14:20:20Z</time>
      </trkpt>
      <trkpt lat="43.14914" lon="6.4174">
        <ele>30.030609</ele>
        <time>2011-07-29T14:20:28Z</time>
      </trkpt>
      <trkpt lat="43.14904" lon="6.41971">
        <ele>20.744268</ele>
        <time>2011-07-29T14:20:54Z</time>
      </trkpt>
      <trkpt lat="43.14932" lon="6.4202">
        <ele>19.3594</ele>
        <time>2011-07-29T14:21:01Z</time>
      </trkpt>
      <trkpt lat="43.14958" lon="6.42072">
        <ele>18.263287</ele>
        <time>2011-07-29T14:21:08Z</time>
      </trkpt>
      <trkpt lat="43.14986" lon="6.42123">
        <ele>14.7625</ele>
        <time>2011-07-29T14:21:15Z</time>
      </trkpt>
      <trkpt lat="43.15017" lon="6.42174">
        <ele>11.6805</ele>
        <time>2011-07-29T14:21:22Z</time>
      </trkpt>
      <trkpt lat="43.15047" lon="6.42228">
        <ele>8.6982</ele>
        <time>2011-07-29T14:21:29Z</time>
      </trkpt>
      <trkpt lat="43.15079" lon="6.42281">
        <ele>6.6045</ele>
        <time>2011-07-29T14:21:37Z</time>
      </trkpt>
      <trkpt lat="43.15106" lon="6.42328">
        <ele>4.425</ele>
        <time>2011-07-29T14:21:46Z</time>
      </trkpt>
      <trkpt lat="43.15136" lon="6.42383">
        <ele>2.961694</ele>
        <time>2011-07-29T14:21:55Z</time>
      </trkpt>
      <trkpt lat="43.15163" lon="6.42434">
        <ele>2.48625</ele>
        <time>2011-07-29T14:22:04Z</time>
      </trkpt>
      <trkpt lat="43.15172" lon="6.42497">
        <ele>2.208163</ele>
        <time>2011-07-29T14:22:15Z</time>
      </trkpt>
      <trkpt lat="43.15201" lon="6.42541">
        <ele>2.8075</ele>
        <time>2011-07-29T14:22:36Z</time>
      </trkpt>
      <trkpt lat="43.15203" lon="6.42603">
        <ele>2.979662</ele>
        <time>2011-07-29T14:22:51Z</time>
      </trkpt>
      <trkpt lat="43.15208" lon="6.42668">
        <ele>4.20875</ele>
        <time>2011-07-29T14:23:05Z</time>
      </trkpt>
      <trkpt lat="43.15218" lon="6.42731">
        <ele>5.259056</ele>
        <time>2011-07-29T14:23:15Z</time>
      </trkpt>
      <trkpt lat="43.15231" lon="6.42793">
        <ele>5.375</ele>
        <time>2011-07-29T14:23:32Z</time>
      </trkpt>
      <trkpt lat="43.15246" lon="6.42855">
        <ele>6.50925</ele>
        <time>2011-07-29T14:23:47Z</time>
      </trkpt>
      <trkpt lat="43.15254" lon="6.42849">
        <ele>6.8556</ele>
        <time>2011-07-29T14:24:02Z</time>
      </trkpt>
      <trkpt lat="43.15244" lon="6.42789">
        <ele>5.965</ele>
        <time>2011-07-29T14:24:22Z</time>
      </trkpt>
      <trkpt lat="43.15252" lon="6.42853">
        <ele>6.90405</ele>
        <time>2011-07-29T14:24:38Z</time>
      </trkpt>
      <trkpt lat="43.1524" lon="6.42897">
        <ele>7.588728</ele>
        <time>2011-07-29T14:24:53Z</time>
      </trkpt>
      <trkpt lat="43.15204" lon="6.42913">
        <ele>3.973512</ele>
        <time>2011-07-29T14:25:12Z</time>
      </trkpt>
      <trkpt lat="43.15199" lon="6.42973">
        <ele>3.777937</ele>
        <time>2011-07-29T14:25:24Z</time>
      </trkpt>
      <trkpt lat="43.15196" lon="6.43037">
        <ele>3.413741</ele>
        <time>2011-07-29T14:25:36Z</time>
      </trkpt>
      <trkpt lat="43.15218" lon="6.43077">
        <ele>5.040731</ele>
        <time>2011-07-29T14:25:52Z</time>
      </trkpt>
      <trkpt lat="43.15217" lon="6.43144">
        <ele>5.895</ele>
        <time>2011-07-29T14:26:10Z</time>
      </trkpt>
      <trkpt lat="43.15212" lon="6.4321">
        <ele>6.8025</ele>
        <time>2011-07-29T14:26:24Z</time>
      </trkpt>
      <trkpt lat="43.15196" lon="6.4326">
        <ele>6.67625</ele>
        <time>2011-07-29T14:26:39Z</time>
      </trkpt>
    </trkseg>
  </trk>
</gpx>